Wetterdaten: Sonntag, 10.06.2018
Datum Zeit Temp. A. Feuchte A. Luftdruck Regen Wind Richtung Richtung Sonnenschein ET UV Solar Taupunkt Windchill Windböen
10.06.2018 00:00 15,9 °C 91 % 1010,1 hPa 0,0 mm 0,5 km/h (0 Bft) W 268 ° 0 min 0,000 mm 0,0 UV-I 0 W/m² 14,4 °C 15,9 °C 1,6 km/h (1 Bft)
10.06.2018 00:01 15,9 °C 91 % 1010,0 hPa 0,0 mm 0,5 km/h (0 Bft) W 268 ° 0 min 0,000 mm 0,0 UV-I 0 W/m² 14,4 °C 15,9 °C 1,6 km/h (1 Bft)
10.06.2018 00:02 15,9 °C 91 % 1010,0 hPa 0,0 mm 0,0 km/h (0 Bft) W 268 ° 0 min 0,000 mm 0,0 UV-I 0 W/m² 14,4 °C 15,9 °C 0,0 km/h (0 Bft)
10.06.2018 00:03 15,9 °C 91 % 1010,1 hPa 0,0 mm 0,0 km/h (0 Bft) W 268 ° 0 min 0,000 mm 0,0 UV-I 0 W/m² 14,4 °C 15,9 °C 0,0 km/h (0 Bft)
10.06.2018 00:04 15,9 °C 91 % 1010,1 hPa 0,0 mm 0,0 km/h (0 Bft) W 268 ° 0 min 0,000 mm 0,0 UV-I 0 W/m² 14,4 °C 15,9 °C 0,0 km/h (0 Bft)
10.06.2018 00:05 15,9 °C 91 % 1010,1 hPa 0,0 mm 0,1 km/h (0 Bft) W 268 ° 0 min 0,000 mm 0,0 UV-I 0 W/m² 14,4 °C 15,9 °C 1,6 km/h (1 Bft)
10.06.2018 00:06 15,8 °C 91 % 1010,1 hPa 0,0 mm 5,0 km/h (1 Bft) W-NW 292 ° 0 min 0,000 mm 0,0 UV-I 0 W/m² 14,3 °C 15,8 °C 8,0 km/h (2 Bft)
10.06.2018 00:07 15,9 °C 91 % 1010,2 hPa 0,0 mm 2,5 km/h (1 Bft) W-SW 254 ° 0 min 0,000 mm 0,0 UV-I 0 W/m² 14,4 °C 15,9 °C 4,8 km/h (1 Bft)
10.06.2018 00:08 15,9 °C 91 % 1010,2 hPa 0,0 mm 1,2 km/h (1 Bft) W-SW 254 ° 0 min 0,000 mm 0,0 UV-I 0 W/m² 14,4 °C 15,9 °C 3,2 km/h (1 Bft)
10.06.2018 00:09 15,9 °C 91 % 1010,1 hPa 0,0 mm 0,7 km/h (0 Bft) W-SW 254 ° 0 min 0,000 mm 0,0 UV-I 0 W/m² 14,4 °C 15,9 °C 1,6 km/h (1 Bft)
10.06.2018 00:10 15,9 °C 91 % 1010,2 hPa 0,0 mm 2,6 km/h (1 Bft) W 267 ° 0 min 0,000 mm 0,0 UV-I 0 W/m² 14,4 °C 15,9 °C 6,4 km/h (2 Bft)
10.06.2018 00:11 15,9 °C 91 % 1010,2 hPa 0,0 mm 4,6 km/h (1 Bft) W 265 ° 0 min 0,000 mm 0,0 UV-I 0 W/m² 14,4 °C 15,9 °C 9,7 km/h (2 Bft)
10.06.2018 00:12 15,8 °C 90 % 1010,2 hPa 0,0 mm 3,4 km/h (1 Bft) W-SW 248 ° 0 min 0,000 mm 0,0 UV-I 0 W/m² 14,2 °C 15,8 °C 9,7 km/h (2 Bft)
10.06.2018 00:13 15,8 °C 90 % 1010,2 hPa 0,0 mm 3,0 km/h (1 Bft) W 272 ° 0 min 0,000 mm 0,0 UV-I 0 W/m² 14,2 °C 15,8 °C 6,4 km/h (2 Bft)
10.06.2018 00:14 15,8 °C 90 % 1010,2 hPa 0,0 mm 0,0 km/h (0 Bft) W 272 ° 0 min 0,000 mm 0,0 UV-I 0 W/m² 14,2 °C 15,8 °C 0,0 km/h (0 Bft)
10.06.2018 00:15 15,8 °C 91 % 1010,3 hPa 0,0 mm 0,0 km/h (0 Bft) W 272 ° 0 min 0,000 mm 0,0 UV-I 0 W/m² 14,3 °C 15,8 °C 0,0 km/h (0 Bft)
10.06.2018 00:16 15,8 °C 90 % 1010,2 hPa 0,0 mm 0,0 km/h (0 Bft) W 272 ° 0 min 0,000 mm 0,0 UV-I 0 W/m² 14,2 °C 15,8 °C 0,0 km/h (0 Bft)
10.06.2018 00:17 15,8 °C 90 % 1010,2 hPa 0,0 mm 0,0 km/h (0 Bft) W 272 ° 0 min 0,000 mm 0,0 UV-I 0 W/m² 14,2 °C 15,8 °C 0,0 km/h (0 Bft)
10.06.2018 00:18 15,8 °C 90 % 1010,2 hPa 0,0 mm 0,1 km/h (0 Bft) W 272 ° 0 min 0,000 mm 0,0 UV-I 0 W/m² 14,2 °C 15,8 °C 1,6 km/h (1 Bft)
10.06.2018 00:19 15,8 °C 90 % 1010,2 hPa 0,0 mm 0,0 km/h (0 Bft) W 272 ° 0 min 0,000 mm 0,0 UV-I 0 W/m² 14,2 °C 15,8 °C 0,0 km/h (0 Bft)
10.06.2018 00:20 15,7 °C 90 % 1010,2 hPa 0,0 mm 0,0 km/h (0 Bft) W 272 ° 0 min 0,000 mm 0,0 UV-I 0 W/m² 14,1 °C 15,7 °C 0,0 km/h (0 Bft)
10.06.2018 00:21 15,8 °C 90 % 1010,2 hPa 0,0 mm 0,0 km/h (0 Bft) W 272 ° 0 min 0,000 mm 0,0 UV-I 0 W/m² 14,2 °C 15,8 °C 0,0 km/h (0 Bft)
10.06.2018 00:22 15,7 °C 90 % 1010,2 hPa 0,0 mm 0,3 km/h (0 Bft) W 272 ° 0 min 0,000 mm 0,0 UV-I 0 W/m² 14,1 °C 15,7 °C 1,6 km/h (1 Bft)
10.06.2018 00:23 15,7 °C 90 % 1010,1 hPa 0,0 mm 1,3 km/h (1 Bft) W 272 ° 0 min 0,000 mm 0,0 UV-I 0 W/m² 14,1 °C 15,7 °C 3,2 km/h (1 Bft)
10.06.2018 00:24 15,8 °C 90 % 1010,3 hPa 0,0 mm 3,6 km/h (1 Bft) W 271 ° 0 min 0,000 mm 0,0 UV-I 0 W/m² 14,2 °C 15,8 °C 4,8 km/h (1 Bft)
10.06.2018 00:25 15,8 °C 90 % 1010,2 hPa 0,0 mm 3,4 km/h (1 Bft) W-NW 299 ° 0 min 0,000 mm 0,0 UV-I 0 W/m² 14,2 °C 15,8 °C 4,8 km/h (1 Bft)
10.06.2018 00:26 15,8 °C 90 % 1010,2 hPa 0,0 mm 3,2 km/h (1 Bft) W-SW 248 ° 0 min 0,000 mm 0,0 UV-I 0 W/m² 14,2 °C 15,8 °C 4,8 km/h (1 Bft)
10.06.2018 00:27 15,9 °C 90 % 1010,2 hPa 0,0 mm 4,5 km/h (1 Bft) SW 236 ° 0 min 0,000 mm 0,0 UV-I 0 W/m² 14,3 °C 15,9 °C 8,0 km/h (2 Bft)
10.06.2018 00:28 15,9 °C 90 % 1010,2 hPa 0,0 mm 3,1 km/h (1 Bft) W 271 ° 0 min 0,000 mm 0,0 UV-I 0 W/m² 14,3 °C 15,9 °C 4,8 km/h (1 Bft)
10.06.2018 00:29 15,9 °C 90 % 1010,2 hPa 0,0 mm 2,5 km/h (1 Bft) W 271 ° 0 min 0,000 mm 0,0 UV-I 0 W/m² 14,3 °C 15,9 °C 4,8 km/h (1 Bft)
10.06.2018 00:30 15,9 °C 90 % 1010,2 hPa 0,0 mm 3,6 km/h (1 Bft) W 261 ° 0 min 0,000 mm 0,0 UV-I 0 W/m² 14,3 °C 15,9 °C 11,3 km/h (2 Bft)
10.06.2018 00:31 15,9 °C 90 % 1010,2 hPa 0,0 mm 1,1 km/h (1 Bft) W 261 ° 0 min 0,000 mm 0,0 UV-I 0 W/m² 14,3 °C 15,9 °C 3,2 km/h (1 Bft)
10.06.2018 00:32 15,9 °C 90 % 1010,2 hPa 0,0 mm 3,2 km/h (1 Bft) W 261 ° 0 min 0,000 mm 0,0 UV-I 0 W/m² 14,3 °C 15,9 °C 4,8 km/h (1 Bft)
10.06.2018 00:33 15,9 °C 90 % 1010,2 hPa 0,0 mm 3,8 km/h (1 Bft) W 262 ° 0 min 0,000 mm 0,0 UV-I 0 W/m² 14,3 °C 15,9 °C 4,8 km/h (1 Bft)
10.06.2018 00:34 15,9 °C 90 % 1010,2 hPa 0,0 mm 4,5 km/h (1 Bft) W 277 ° 0 min 0,000 mm 0,0 UV-I 0 W/m² 14,3 °C 15,9 °C 6,4 km/h (2 Bft)
10.06.2018 00:35 15,9 °C 90 % 1010,2 hPa 0,0 mm 4,4 km/h (1 Bft) W 277 ° 0 min 0,000 mm 0,0 UV-I 0 W/m² 14,3 °C 15,9 °C 6,4 km/h (2 Bft)
10.06.2018 00:36 15,9 °C 90 % 1010,2 hPa 0,0 mm 3,6 km/h (1 Bft) W 278 ° 0 min 0,000 mm 0,0 UV-I 0 W/m² 14,3 °C 15,9 °C 4,8 km/h (1 Bft)
10.06.2018 00:37 15,9 °C 90 % 1010,2 hPa 0,0 mm 2,9 km/h (1 Bft) W 277 ° 0 min 0,000 mm 0,0 UV-I 0 W/m² 14,3 °C 15,9 °C 3,2 km/h (1 Bft)
10.06.2018 00:38 15,9 °C 90 % 1010,1 hPa 0,0 mm 4,4 km/h (1 Bft) W 277 ° 0 min 0,000 mm 0,0 UV-I 0 W/m² 14,3 °C 15,9 °C 6,4 km/h (2 Bft)
10.06.2018 00:39 16,0 °C 90 % 1010,1 hPa 0,0 mm 3,8 km/h (1 Bft) W-SW 243 ° 0 min 0,000 mm 0,0 UV-I 0 W/m² 14,4 °C 16,0 °C 8,0 km/h (2 Bft)
10.06.2018 00:40 16,0 °C 90 % 1010,1 hPa 0,0 mm 3,0 km/h (1 Bft) W-SW 247 ° 0 min 0,000 mm 0,0 UV-I 0 W/m² 14,4 °C 16,0 °C 6,4 km/h (2 Bft)
10.06.2018 00:41 15,9 °C 90 % 1010,1 hPa 0,0 mm 2,3 km/h (1 Bft) W-SW 247 ° 0 min 0,000 mm 0,0 UV-I 0 W/m² 14,3 °C 15,9 °C 3,2 km/h (1 Bft)
10.06.2018 00:42 15,9 °C 90 % 1010,1 hPa 0,0 mm 2,4 km/h (1 Bft) W-SW 247 ° 0 min 0,000 mm 0,0 UV-I 0 W/m² 14,3 °C 15,9 °C 4,8 km/h (1 Bft)
10.06.2018 00:43 15,9 °C 90 % 1010,2 hPa 0,0 mm 1,1 km/h (1 Bft) W-SW 247 ° 0 min 0,000 mm 0,0 UV-I 0 W/m² 14,3 °C 15,9 °C 3,2 km/h (1 Bft)
10.06.2018 00:44 15,9 °C 90 % 1010,2 hPa 0,0 mm 1,1 km/h (1 Bft) W-SW 247 ° 0 min 0,000 mm 0,0 UV-I 0 W/m² 14,3 °C 15,9 °C 3,2 km/h (1 Bft)
10.06.2018 00:45 15,9 °C 90 % 1010,2 hPa 0,0 mm 0,0 km/h (0 Bft) W-SW 247 ° 0 min 0,000 mm 0,0 UV-I 0 W/m² 14,3 °C 15,9 °C 0,0 km/h (0 Bft)
10.06.2018 00:46 15,8 °C 90 % 1010,2 hPa 0,0 mm 0,0 km/h (0 Bft) W-SW 247 ° 0 min 0,000 mm 0,0 UV-I 0 W/m² 14,2 °C 15,8 °C 0,0 km/h (0 Bft)
10.06.2018 00:47 15,8 °C 90 % 1010,2 hPa 0,0 mm 1,2 km/h (1 Bft) W-SW 247 ° 0 min 0,000 mm 0,0 UV-I 0 W/m² 14,2 °C 15,8 °C 1,6 km/h (1 Bft)
10.06.2018 00:48 15,8 °C 90 % 1010,2 hPa 0,0 mm 1,6 km/h (1 Bft) W-SW 247 ° 0 min 0,000 mm 0,0 UV-I 0 W/m² 14,2 °C 15,8 °C 3,2 km/h (1 Bft)
10.06.2018 00:49 15,8 °C 90 % 1010,2 hPa 0,0 mm 0,1 km/h (0 Bft) W-SW 247 ° 0 min 0,000 mm 0,0 UV-I 0 W/m² 14,2 °C 15,8 °C 1,6 km/h (1 Bft)
10.06.2018 00:50 15,8 °C 90 % 1010,1 hPa 0,0 mm 0,0 km/h (0 Bft) W-SW 247 ° 0 min 0,000 mm 0,0 UV-I 0 W/m² 14,2 °C 15,8 °C 0,0 km/h (0 Bft)
10.06.2018 00:51 15,7 °C 90 % 1010,1 hPa 0,0 mm 0,0 km/h (0 Bft) W-SW 246 ° 0 min 0,000 mm 0,0 UV-I 0 W/m² 14,1 °C 15,7 °C 0,0 km/h (0 Bft)
10.06.2018 00:52 15,7 °C 90 % 1010,1 hPa 0,0 mm 0,1 km/h (0 Bft) W-SW 247 ° 0 min 0,000 mm 0,0 UV-I 0 W/m² 14,1 °C 15,7 °C 1,6 km/h (1 Bft)
10.06.2018 00:53 15,6 °C 90 % 1010,2 hPa 0,0 mm 1,4 km/h (1 Bft) S-SW 209 ° 0 min 0,000 mm 0,0 UV-I 0 W/m² 14,0 °C 15,6 °C 4,8 km/h (1 Bft)
10.06.2018 00:54 15,6 °C 91 % 1010,1 hPa 0,0 mm 0,7 km/h (0 Bft) SW 227 ° 0 min 0,000 mm 0,0 UV-I 0 W/m² 14,1 °C 15,6 °C 3,2 km/h (1 Bft)
10.06.2018 00:55 15,6 °C 91 % 1010,2 hPa 0,0 mm 0,7 km/h (0 Bft) SW 227 ° 0 min 0,000 mm 0,0 UV-I 0 W/m² 14,1 °C 15,6 °C 3,2 km/h (1 Bft)
10.06.2018 00:56 15,6 °C 91 % 1010,2 hPa 0,0 mm 1,3 km/h (1 Bft) SW 227 ° 0 min 0,000 mm 0,0 UV-I 0 W/m² 14,1 °C 15,6 °C 3,2 km/h (1 Bft)
10.06.2018 00:57 15,6 °C 91 % 1010,1 hPa 0,0 mm 0,9 km/h (0 Bft) SW 229 ° 0 min 0,000 mm 0,0 UV-I 0 W/m² 14,1 °C 15,6 °C 3,2 km/h (1 Bft)
10.06.2018 00:58 15,6 °C 91 % 1010,1 hPa 0,0 mm 0,1 km/h (0 Bft) SW 229 ° 0 min 0,000 mm 0,0 UV-I 0 W/m² 14,1 °C 15,6 °C 1,6 km/h (1 Bft)
10.06.2018 00:59 15,6 °C 91 % 1010,1 hPa 0,0 mm 0,3 km/h (0 Bft) SW 229 ° 0 min 0,000 mm 0,0 UV-I 0 W/m² 14,1 °C 15,6 °C 1,6 km/h (1 Bft)
10.06.2018 01:00 15,6 °C 91 % 1010,1 hPa 0,0 mm 0,5 km/h (0 Bft) SW 229 ° 0 min 0,000 mm 0,0 UV-I 0 W/m² 14,1 °C 15,6 °C 1,6 km/h (1 Bft)
10.06.2018 01:01 15,7 °C 91 % 1010,1 hPa 0,0 mm 3,2 km/h (1 Bft) W-SW 256 ° 0 min 0,000 mm 0,0 UV-I 0 W/m² 14,2 °C 15,7 °C 4,8 km/h (1 Bft)
10.06.2018 01:02 15,7 °C 91 % 1010,2 hPa 0,0 mm 1,8 km/h (1 Bft) W-SW 256 ° 0 min 0,000 mm 0,0 UV-I 0 W/m² 14,2 °C 15,7 °C 3,2 km/h (1 Bft)
10.06.2018 01:03 15,8 °C 90 % 1010,2 hPa 0,0 mm 0,3 km/h (0 Bft) W-SW 256 ° 0 min 0,000 mm 0,0 UV-I 0 W/m² 14,2 °C 15,8 °C 1,6 km/h (1 Bft)
10.06.2018 01:04 15,8 °C 90 % 1010,2 hPa 0,0 mm 0,0 km/h (0 Bft) W-SW 256 ° 0 min 0,000 mm 0,0 UV-I 0 W/m² 14,2 °C 15,8 °C 0,0 km/h (0 Bft)
10.06.2018 01:05 15,8 °C 90 % 1010,2 hPa 0,0 mm 1,6 km/h (1 Bft) W-SW 256 ° 0 min 0,000 mm 0,0 UV-I 0 W/m² 14,2 °C 15,8 °C 3,2 km/h (1 Bft)
10.06.2018 01:06 15,8 °C 90 % 1010,1 hPa 0,0 mm 2,4 km/h (1 Bft) W-SW 256 ° 0 min 0,000 mm 0,0 UV-I 0 W/m² 14,2 °C 15,8 °C 3,2 km/h (1 Bft)
10.06.2018 01:07 15,7 °C 90 % 1010,1 hPa 0,0 mm 0,6 km/h (0 Bft) W-SW 256 ° 0 min 0,000 mm 0,0 UV-I 0 W/m² 14,1 °C 15,7 °C 1,6 km/h (1 Bft)
10.06.2018 01:08 15,8 °C 90 % 1010,1 hPa 0,0 mm 2,8 km/h (1 Bft) W-SW 253 ° 0 min 0,000 mm 0,0 UV-I 0 W/m² 14,2 °C 15,8 °C 4,8 km/h (1 Bft)
10.06.2018 01:09 15,8 °C 90 % 1010,1 hPa 0,0 mm 0,0 km/h (0 Bft) W-SW 253 ° 0 min 0,000 mm 0,0 UV-I 0 W/m² 14,2 °C 15,8 °C 0,0 km/h (0 Bft)
10.06.2018 01:10 15,8 °C 90 % 1010,1 hPa 0,0 mm 2,3 km/h (1 Bft) W-SW 253 ° 0 min 0,000 mm 0,0 UV-I 0 W/m² 14,2 °C 15,8 °C 3,2 km/h (1 Bft)
10.06.2018 01:11 15,8 °C 90 % 1010,1 hPa 0,0 mm 2,9 km/h (1 Bft) W-SW 253 ° 0 min 0,000 mm 0,0 UV-I 0 W/m² 14,2 °C 15,8 °C 4,8 km/h (1 Bft)
10.06.2018 01:12 15,9 °C 90 % 1010,1 hPa 0,0 mm 1,7 km/h (1 Bft) W-SW 253 ° 0 min 0,000 mm 0,0 UV-I 0 W/m² 14,3 °C 15,9 °C 4,8 km/h (1 Bft)
10.06.2018 01:13 15,9 °C 90 % 1010,1 hPa 0,0 mm 0,0 km/h (0 Bft) W-SW 253 ° 0 min 0,000 mm 0,0 UV-I 0 W/m² 14,3 °C 15,9 °C 0,0 km/h (0 Bft)
10.06.2018 01:14 15,9 °C 90 % 1010,0 hPa 0,0 mm 0,0 km/h (0 Bft) W-SW 253 ° 0 min 0,000 mm 0,0 UV-I 0 W/m² 14,3 °C 15,9 °C 0,0 km/h (0 Bft)
10.06.2018 01:15 15,9 °C 90 % 1010,0 hPa 0,0 mm 0,0 km/h (0 Bft) W-SW 253 ° 0 min 0,000 mm 0,0 UV-I 0 W/m² 14,3 °C 15,9 °C 0,0 km/h (0 Bft)
10.06.2018 01:16 15,8 °C 90 % 1010,0 hPa 0,0 mm 0,0 km/h (0 Bft) W-SW 253 ° 0 min 0,000 mm 0,0 UV-I 0 W/m² 14,2 °C 15,8 °C 0,0 km/h (0 Bft)
10.06.2018 01:17 15,8 °C 90 % 1010,1 hPa 0,0 mm 0,2 km/h (0 Bft) SW 230 ° 0 min 0,000 mm 0,0 UV-I 0 W/m² 14,2 °C 15,8 °C 1,6 km/h (1 Bft)
10.06.2018 01:18 15,8 °C 90 % 1010,1 hPa 0,0 mm 0,0 km/h (0 Bft) SW 230 ° 0 min 0,000 mm 0,0 UV-I 0 W/m² 14,2 °C 15,8 °C 0,0 km/h (0 Bft)
10.06.2018 01:19 15,8 °C 90 % 1010,0 hPa 0,0 mm 0,0 km/h (0 Bft) SW 230 ° 0 min 0,000 mm 0,0 UV-I 0 W/m² 14,2 °C 15,8 °C 0,0 km/h (0 Bft)
10.06.2018 01:20 15,7 °C 90 % 1010,0 hPa 0,0 mm 1,1 km/h (1 Bft) SW 230 ° 0 min 0,000 mm 0,0 UV-I 0 W/m² 14,1 °C 15,7 °C 3,2 km/h (1 Bft)
10.06.2018 01:21 15,7 °C 90 % 1010,0 hPa 0,0 mm 0,1 km/h (0 Bft) SW 230 ° 0 min 0,000 mm 0,0 UV-I 0 W/m² 14,1 °C 15,7 °C 1,6 km/h (1 Bft)
10.06.2018 01:22 15,7 °C 90 % 1010,0 hPa 0,0 mm 1,1 km/h (1 Bft) W-NW 284 ° 0 min 0,000 mm 0,0 UV-I 0 W/m² 14,1 °C 15,7 °C 3,2 km/h (1 Bft)
10.06.2018 01:23 15,6 °C 90 % 1010,0 hPa 0,0 mm 1,1 km/h (1 Bft) W-NW 284 ° 0 min 0,000 mm 0,0 UV-I 0 W/m² 14,0 °C 15,6 °C 3,2 km/h (1 Bft)
10.06.2018 01:24 15,6 °C 90 % 1010,0 hPa 0,0 mm 0,3 km/h (0 Bft) W-NW 284 ° 0 min 0,000 mm 0,0 UV-I 0 W/m² 14,0 °C 15,6 °C 1,6 km/h (1 Bft)
10.06.2018 01:25 15,6 °C 90 % 1010,0 hPa 0,0 mm 0,0 km/h (0 Bft) W-NW 284 ° 0 min 0,000 mm 0,0 UV-I 0 W/m² 14,0 °C 15,6 °C 0,0 km/h (0 Bft)
10.06.2018 01:26 15,6 °C 90 % 1010,0 hPa 0,0 mm 2,5 km/h (1 Bft) S 180 ° 0 min 0,000 mm 0,0 UV-I 0 W/m² 14,0 °C 15,6 °C 8,0 km/h (2 Bft)
10.06.2018 01:27 15,6 °C 90 % 1010,0 hPa 0,0 mm 2,3 km/h (1 Bft) S 178 ° 0 min 0,000 mm 0,0 UV-I 0 W/m² 14,0 °C 15,6 °C 4,8 km/h (1 Bft)
10.06.2018 01:28 15,6 °C 90 % 1010,0 hPa 0,0 mm 2,3 km/h (1 Bft) S 178 ° 0 min 0,000 mm 0,0 UV-I 0 W/m² 14,0 °C 15,6 °C 3,2 km/h (1 Bft)
10.06.2018 01:29 15,6 °C 90 % 1010,0 hPa 0,0 mm 0,0 km/h (0 Bft) S 178 ° 0 min 0,000 mm 0,0 UV-I 0 W/m² 14,0 °C 15,6 °C 0,0 km/h (0 Bft)
10.06.2018 01:30 15,5 °C 90 % 1010,0 hPa 0,0 mm 0,5 km/h (0 Bft) S 183 ° 0 min 0,000 mm 0,0 UV-I 0 W/m² 13,9 °C 15,5 °C 1,6 km/h (1 Bft)
10.06.2018 01:31 15,4 °C 91 % 1010,0 hPa 0,0 mm 2,0 km/h (1 Bft) W-SW 257 ° 0 min 0,000 mm 0,0 UV-I 0 W/m² 13,9 °C 15,4 °C 3,2 km/h (1 Bft)
10.06.2018 01:32 15,4 °C 90 % 1010,0 hPa 0,0 mm 2,1 km/h (1 Bft) W-SW 246 ° 0 min 0,000 mm 0,0 UV-I 0 W/m² 13,8 °C 15,4 °C 4,8 km/h (1 Bft)
10.06.2018 01:33 15,4 °C 90 % 1010,0 hPa 0,0 mm 2,3 km/h (1 Bft) SW 223 ° 0 min 0,000 mm 0,0 UV-I 0 W/m² 13,8 °C 15,4 °C 4,8 km/h (1 Bft)
10.06.2018 01:34 15,4 °C 91 % 1010,1 hPa 0,0 mm 0,7 km/h (0 Bft) SW 222 ° 0 min 0,000 mm 0,0 UV-I 0 W/m² 13,9 °C 15,4 °C 3,2 km/h (1 Bft)
10.06.2018 01:35 15,4 °C 90 % 1010,1 hPa 0,0 mm 1,2 km/h (1 Bft) SW 226 ° 0 min 0,000 mm 0,0 UV-I 0 W/m² 13,8 °C 15,4 °C 3,2 km/h (1 Bft)
10.06.2018 01:36 15,5 °C 91 % 1010,0 hPa 0,0 mm 2,0 km/h (1 Bft) W 263 ° 0 min 0,000 mm 0,0 UV-I 0 W/m² 14,0 °C 15,5 °C 4,8 km/h (1 Bft)
10.06.2018 01:37 15,5 °C 90 % 1010,1 hPa 0,0 mm 3,4 km/h (1 Bft) W 275 ° 0 min 0,000 mm 0,0 UV-I 0 W/m² 13,9 °C 15,5 °C 4,8 km/h (1 Bft)
10.06.2018 01:38 15,5 °C 90 % 1010,1 hPa 0,0 mm 2,2 km/h (1 Bft) W-SW 245 ° 0 min 0,000 mm 0,0 UV-I 0 W/m² 13,9 °C 15,5 °C 3,2 km/h (1 Bft)
10.06.2018 01:39 15,5 °C 91 % 1010,2 hPa 0,0 mm 0,4 km/h (0 Bft) W-SW 245 ° 0 min 0,000 mm 0,0 UV-I 0 W/m² 14,0 °C 15,5 °C 1,6 km/h (1 Bft)
10.06.2018 01:40 15,4 °C 90 % 1010,1 hPa 0,0 mm 3,3 km/h (1 Bft) W 264 ° 0 min 0,000 mm 0,0 UV-I 0 W/m² 13,8 °C 15,4 °C 6,4 km/h (2 Bft)
10.06.2018 01:41 15,4 °C 90 % 1010,1 hPa 0,0 mm 2,8 km/h (1 Bft) W 275 ° 0 min 0,000 mm 0,0 UV-I 0 W/m² 13,8 °C 15,4 °C 4,8 km/h (1 Bft)
10.06.2018 01:42 15,4 °C 91 % 1010,2 hPa 0,0 mm 5,3 km/h (1 Bft) W 263 ° 0 min 0,000 mm 0,0 UV-I 0 W/m² 13,9 °C 15,4 °C 9,7 km/h (2 Bft)
10.06.2018 01:43 15,3 °C 90 % 1010,2 hPa 0,0 mm 4,5 km/h (1 Bft) W 273 ° 0 min 0,000 mm 0,0 UV-I 0 W/m² 13,7 °C 15,3 °C 9,7 km/h (2 Bft)
10.06.2018 01:44 15,3 °C 90 % 1010,2 hPa 0,0 mm 0,3 km/h (0 Bft) W 273 ° 0 min 0,000 mm 0,0 UV-I 0 W/m² 13,7 °C 15,3 °C 1,6 km/h (1 Bft)
10.06.2018 01:45 15,3 °C 91 % 1010,2 hPa 0,0 mm 1,0 km/h (0 Bft) W 270 ° 0 min 0,000 mm 0,0 UV-I 0 W/m² 13,8 °C 15,3 °C 4,8 km/h (1 Bft)
10.06.2018 01:46 15,3 °C 91 % 1010,2 hPa 0,0 mm 4,8 km/h (1 Bft) W 271 ° 0 min 0,000 mm 0,0 UV-I 0 W/m² 13,8 °C 15,3 °C 6,4 km/h (2 Bft)
10.06.2018 01:47 15,2 °C 91 % 1010,2 hPa 0,0 mm 6,4 km/h (2 Bft) W 274 ° 0 min 0,000 mm 0,0 UV-I 0 W/m² 13,7 °C 15,2 °C 9,7 km/h (2 Bft)
10.06.2018 01:48 15,2 °C 91 % 1010,1 hPa 0,0 mm 3,4 km/h (1 Bft) W 274 ° 0 min 0,000 mm 0,0 UV-I 0 W/m² 13,7 °C 15,2 °C 4,8 km/h (1 Bft)
10.06.2018 01:49 15,2 °C 91 % 1010,1 hPa 0,0 mm 0,1 km/h (0 Bft) W 274 ° 0 min 0,000 mm 0,0 UV-I 0 W/m² 13,7 °C 15,2 °C 1,6 km/h (1 Bft)
10.06.2018 01:50 15,2 °C 91 % 1010,1 hPa 0,0 mm 0,0 km/h (0 Bft) W 274 ° 0 min 0,000 mm 0,0 UV-I 0 W/m² 13,7 °C 15,2 °C 0,0 km/h (0 Bft)
10.06.2018 01:51 15,3 °C 91 % 1010,1 hPa 0,0 mm 0,8 km/h (0 Bft) W 274 ° 0 min 0,000 mm 0,0 UV-I 0 W/m² 13,8 °C 15,3 °C 3,2 km/h (1 Bft)
10.06.2018 01:52 15,3 °C 91 % 1010,0 hPa 0,0 mm 1,9 km/h (1 Bft) W 268 ° 0 min 0,000 mm 0,0 UV-I 0 W/m² 13,8 °C 15,3 °C 4,8 km/h (1 Bft)
10.06.2018 01:53 15,3 °C 91 % 1010,0 hPa 0,0 mm 1,6 km/h (1 Bft) W 268 ° 0 min 0,000 mm 0,0 UV-I 0 W/m² 13,8 °C 15,3 °C 3,2 km/h (1 Bft)
10.06.2018 01:54 15,3 °C 91 % 1010,0 hPa 0,0 mm 0,7 km/h (0 Bft) W 268 ° 0 min 0,000 mm 0,0 UV-I 0 W/m² 13,8 °C 15,3 °C 1,6 km/h (1 Bft)
10.06.2018 01:55 15,3 °C 91 % 1010,0 hPa 0,0 mm 0,4 km/h (0 Bft) W 268 ° 0 min 0,000 mm 0,0 UV-I 0 W/m² 13,8 °C 15,3 °C 1,6 km/h (1 Bft)
10.06.2018 01:56 15,4 °C 91 % 1010,0 hPa 0,0 mm 0,0 km/h (0 Bft) W 268 ° 0 min 0,000 mm 0,0 UV-I 0 W/m² 13,9 °C 15,4 °C 0,0 km/h (0 Bft)
10.06.2018 01:57 15,4 °C 91 % 1010,0 hPa 0,0 mm 0,0 km/h (0 Bft) W 266 ° 0 min 0,000 mm 0,0 UV-I 0 W/m² 13,9 °C 15,4 °C 0,0 km/h (0 Bft)
10.06.2018 01:58 15,4 °C 91 % 1010,0 hPa 0,0 mm 0,0 km/h (0 Bft) W 266 ° 0 min 0,000 mm 0,0 UV-I 0 W/m² 13,9 °C 15,4 °C 0,0 km/h (0 Bft)
10.06.2018 01:59 15,4 °C 91 % 1010,0 hPa 0,0 mm 0,0 km/h (0 Bft) W 266 ° 0 min 0,000 mm 0,0 UV-I 0 W/m² 13,9 °C 15,4 °C 0,0 km/h (0 Bft)
10.06.2018 02:00 15,5 °C 91 % 1010,1 hPa 0,0 mm 0,0 km/h (0 Bft) W 266 ° 0 min 0,000 mm 0,0 UV-I 0 W/m² 14,0 °C 15,5 °C 0,0 km/h (0 Bft)
10.06.2018 02:01 15,6 °C 91 % 1010,0 hPa 0,0 mm 0,8 km/h (0 Bft) W 267 ° 0 min 0,000 mm 0,0 UV-I 0 W/m² 14,1 °C 15,6 °C 3,2 km/h (1 Bft)
10.06.2018 02:02 15,6 °C 91 % 1010,0 hPa 0,0 mm 0,0 km/h (0 Bft) W 267 ° 0 min 0,000 mm 0,0 UV-I 0 W/m² 14,1 °C 15,6 °C 0,0 km/h (0 Bft)
10.06.2018 02:03 15,6 °C 91 % 1010,0 hPa 0,0 mm 0,0 km/h (0 Bft) W 266 ° 0 min 0,000 mm 0,0 UV-I 0 W/m² 14,1 °C 15,6 °C 0,0 km/h (0 Bft)
10.06.2018 02:04 15,6 °C 91 % 1010,1 hPa 0,0 mm 0,0 km/h (0 Bft) W 267 ° 0 min 0,000 mm 0,0 UV-I 0 W/m² 14,1 °C 15,6 °C 0,0 km/h (0 Bft)
10.06.2018 02:05 15,6 °C 91 % 1010,0 hPa 0,0 mm 0,0 km/h (0 Bft) W 266 ° 0 min 0,000 mm 0,0 UV-I 0 W/m² 14,1 °C 15,6 °C 0,0 km/h (0 Bft)
10.06.2018 02:06 15,6 °C 91 % 1010,0 hPa 0,0 mm 0,0 km/h (0 Bft) W 267 ° 0 min 0,000 mm 0,0 UV-I 0 W/m² 14,1 °C 15,6 °C 0,0 km/h (0 Bft)
10.06.2018 02:07 15,5 °C 91 % 1010,0 hPa 0,0 mm 0,0 km/h (0 Bft) W 267 ° 0 min 0,000 mm 0,0 UV-I 0 W/m² 14,0 °C 15,5 °C 0,0 km/h (0 Bft)
10.06.2018 02:08 15,5 °C 91 % 1010,0 hPa 0,0 mm 0,0 km/h (0 Bft) W 267 ° 0 min 0,000 mm 0,0 UV-I 0 W/m² 14,0 °C 15,5 °C 0,0 km/h (0 Bft)
10.06.2018 02:09 15,4 °C 91 % 1010,0 hPa 0,0 mm 0,0 km/h (0 Bft) W 267 ° 0 min 0,000 mm 0,0 UV-I 0 W/m² 13,9 °C 15,4 °C 0,0 km/h (0 Bft)
10.06.2018 02:10 15,4 °C 91 % 1010,1 hPa 0,0 mm 0,0 km/h (0 Bft) W 267 ° 0 min 0,000 mm 0,0 UV-I 0 W/m² 13,9 °C 15,4 °C 0,0 km/h (0 Bft)
10.06.2018 02:11 15,4 °C 91 % 1010,0 hPa 0,0 mm 0,0 km/h (0 Bft) W 267 ° 0 min 0,000 mm 0,0 UV-I 0 W/m² 13,9 °C 15,4 °C 0,0 km/h (0 Bft)
10.06.2018 02:12 15,3 °C 91 % 1010,0 hPa 0,0 mm 0,0 km/h (0 Bft) W 267 ° 0 min 0,000 mm 0,0 UV-I 0 W/m² 13,8 °C 15,3 °C 0,0 km/h (0 Bft)
10.06.2018 02:13 15,3 °C 91 % 1010,0 hPa 0,0 mm 0,0 km/h (0 Bft) W 267 ° 0 min 0,000 mm 0,0 UV-I 0 W/m² 13,8 °C 15,3 °C 0,0 km/h (0 Bft)
10.06.2018 02:14 15,3 °C 91 % 1010,0 hPa 0,0 mm 0,0 km/h (0 Bft) W 267 ° 0 min 0,000 mm 0,0 UV-I 0 W/m² 13,8 °C 15,3 °C 0,0 km/h (0 Bft)
10.06.2018 02:15 15,3 °C 91 % 1010,1 hPa 0,0 mm 1,3 km/h (1 Bft) W 266 ° 0 min 0,000 mm 0,0 UV-I 0 W/m² 13,8 °C 15,3 °C 4,8 km/h (1 Bft)
10.06.2018 02:16 15,4 °C 91 % 1010,1 hPa 0,0 mm 0,8 km/h (0 Bft) W 267 ° 0 min 0,000 mm 0,0 UV-I 0 W/m² 13,9 °C 15,4 °C 3,2 km/h (1 Bft)
10.06.2018 02:17 15,3 °C 91 % 1010,1 hPa 0,0 mm 0,2 km/h (0 Bft) W 267 ° 0 min 0,000 mm 0,0 UV-I 0 W/m² 13,8 °C 15,3 °C 1,6 km/h (1 Bft)
10.06.2018 02:18 15,3 °C 91 % 1010,1 hPa 0,0 mm 0,0 km/h (0 Bft) W 267 ° 0 min 0,000 mm 0,0 UV-I 0 W/m² 13,8 °C 15,3 °C 0,0 km/h (0 Bft)
10.06.2018 02:19 15,3 °C 91 % 1010,1 hPa 0,0 mm 0,0 km/h (0 Bft) W 267 ° 0 min 0,000 mm 0,0 UV-I 0 W/m² 13,8 °C 15,3 °C 0,0 km/h (0 Bft)
10.06.2018 02:20 15,3 °C 91 % 1010,1 hPa 0,0 mm 0,0 km/h (0 Bft) W 267 ° 0 min 0,000 mm 0,0 UV-I 0 W/m² 13,8 °C 15,3 °C 0,0 km/h (0 Bft)
10.06.2018 02:21 15,3 °C 91 % 1010,1 hPa 0,0 mm 0,0 km/h (0 Bft) W 267 ° 0 min 0,000 mm 0,0 UV-I 0 W/m² 13,8 °C 15,3 °C 0,0 km/h (0 Bft)
10.06.2018 02:22 15,3 °C 91 % 1010,0 hPa 0,0 mm 0,0 km/h (0 Bft) W 267 ° 0 min 0,000 mm 0,0 UV-I 0 W/m² 13,8 °C 15,3 °C 0,0 km/h (0 Bft)
10.06.2018 02:23 15,2 °C 91 % 1010,0 hPa 0,0 mm 0,0 km/h (0 Bft) W 267 ° 0 min 0,000 mm 0,0 UV-I 0 W/m² 13,7 °C 15,2 °C 0,0 km/h (0 Bft)
10.06.2018 02:24 15,2 °C 91 % 1010,1 hPa 0,0 mm 0,0 km/h (0 Bft) W 267 ° 0 min 0,000 mm 0,0 UV-I 0 W/m² 13,7 °C 15,2 °C 0,0 km/h (0 Bft)
10.06.2018 02:25 15,2 °C 91 % 1010,0 hPa 0,0 mm 0,0 km/h (0 Bft) W 267 ° 0 min 0,000 mm 0,0 UV-I 0 W/m² 13,7 °C 15,2 °C 0,0 km/h (0 Bft)
10.06.2018 02:26 15,2 °C 91 % 1010,0 hPa 0,0 mm 0,0 km/h (0 Bft) W 267 ° 0 min 0,000 mm 0,0 UV-I 0 W/m² 13,7 °C 15,2 °C 0,0 km/h (0 Bft)
10.06.2018 02:27 15,1 °C 91 % 1010,0 hPa 0,0 mm 0,0 km/h (0 Bft) W 267 ° 0 min 0,000 mm 0,0 UV-I 0 W/m² 13,6 °C 15,1 °C 0,0 km/h (0 Bft)
10.06.2018 02:28 15,1 °C 91 % 1010,0 hPa 0,0 mm 0,0 km/h (0 Bft) W 267 ° 0 min 0,000 mm 0,0 UV-I 0 W/m² 13,6 °C 15,1 °C 0,0 km/h (0 Bft)
10.06.2018 02:29 15,1 °C 91 % 1009,9 hPa 0,0 mm 0,0 km/h (0 Bft) W 267 ° 0 min 0,000 mm 0,0 UV-I 0 W/m² 13,6 °C 15,1 °C 0,0 km/h (0 Bft)
10.06.2018 02:30 15,1 °C 91 % 1009,9 hPa 0,0 mm 0,0 km/h (0 Bft) W 267 ° 0 min 0,000 mm 0,0 UV-I 0 W/m² 13,6 °C 15,1 °C 0,0 km/h (0 Bft)
10.06.2018 02:31 15,1 °C 91 % 1009,9 hPa 0,0 mm 0,0 km/h (0 Bft) W 267 ° 0 min 0,000 mm 0,0 UV-I 0 W/m² 13,6 °C 15,1 °C 0,0 km/h (0 Bft)
10.06.2018 02:32 15,1 °C 91 % 1010,0 hPa 0,0 mm 0,0 km/h (0 Bft) W 267 ° 0 min 0,000 mm 0,0 UV-I 0 W/m² 13,6 °C 15,1 °C 0,0 km/h (0 Bft)
10.06.2018 02:33 15,1 °C 91 % 1010,0 hPa 0,0 mm 1,7 km/h (1 Bft) N-NW 330 ° 0 min 0,000 mm 0,0 UV-I 0 W/m² 13,6 °C 15,1 °C 4,8 km/h (1 Bft)
10.06.2018 02:34 15,1 °C 91 % 1010,0 hPa 0,0 mm 1,1 km/h (1 Bft) N-NW 330 ° 0 min 0,000 mm 0,0 UV-I 0 W/m² 13,6 °C 15,1 °C 3,2 km/h (1 Bft)
10.06.2018 02:35 15,1 °C 91 % 1010,0 hPa 0,0 mm 2,0 km/h (1 Bft) N-NW 330 ° 0 min 0,000 mm 0,0 UV-I 0 W/m² 13,6 °C 15,1 °C 4,8 km/h (1 Bft)
10.06.2018 02:36 15,0 °C 91 % 1010,0 hPa 0,0 mm 0,0 km/h (0 Bft) N-NW 330 ° 0 min 0,000 mm 0,0 UV-I 0 W/m² 13,5 °C 15,0 °C 0,0 km/h (0 Bft)
10.06.2018 02:37 15,0 °C 91 % 1010,1 hPa 0,0 mm 0,0 km/h (0 Bft) N-NW 330 ° 0 min 0,000 mm 0,0 UV-I 0 W/m² 13,5 °C 15,0 °C 0,0 km/h (0 Bft)
10.06.2018 02:38 15,0 °C 92 % 1010,1 hPa 0,0 mm 0,0 km/h (0 Bft) N-NW 330 ° 0 min 0,000 mm 0,0 UV-I 0 W/m² 13,7 °C 15,0 °C 0,0 km/h (0 Bft)
10.06.2018 02:39 14,9 °C 92 % 1010,1 hPa 0,0 mm 0,0 km/h (0 Bft) N-NW 330 ° 0 min 0,000 mm 0,0 UV-I 0 W/m² 13,6 °C 14,9 °C 0,0 km/h (0 Bft)
10.06.2018 02:40 14,9 °C 92 % 1010,2 hPa 0,0 mm 0,0 km/h (0 Bft) N-NW 330 ° 0 min 0,000 mm 0,0 UV-I 0 W/m² 13,6 °C 14,9 °C 0,0 km/h (0 Bft)
10.06.2018 02:41 14,9 °C 92 % 1010,2 hPa 0,0 mm 0,0 km/h (0 Bft) N-NW 330 ° 0 min 0,000 mm 0,0 UV-I 0 W/m² 13,6 °C 14,9 °C 0,0 km/h (0 Bft)
10.06.2018 02:42 14,9 °C 92 % 1010,2 hPa 0,0 mm 0,0 km/h (0 Bft) N-NW 330 ° 0 min 0,000 mm 0,0 UV-I 0 W/m² 13,6 °C 14,9 °C 0,0 km/h (0 Bft)
10.06.2018 02:43 14,9 °C 92 % 1010,2 hPa 0,0 mm 0,0 km/h (0 Bft) N-NW 330 ° 0 min 0,000 mm 0,0 UV-I 0 W/m² 13,6 °C 14,9 °C 0,0 km/h (0 Bft)
10.06.2018 02:44 14,9 °C 92 % 1010,2 hPa 0,0 mm 0,0 km/h (0 Bft) N-NW 330 ° 0 min 0,000 mm 0,0 UV-I 0 W/m² 13,6 °C 14,9 °C 0,0 km/h (0 Bft)
10.06.2018 02:45 14,9 °C 92 % 1010,2 hPa 0,0 mm 0,0 km/h (0 Bft) N-NW 330 ° 0 min 0,000 mm 0,0 UV-I 0 W/m² 13,6 °C 14,9 °C 0,0 km/h (0 Bft)
10.06.2018 02:46 14,9 °C 92 % 1010,2 hPa 0,0 mm 0,0 km/h (0 Bft) N-NW 330 ° 0 min 0,000 mm 0,0 UV-I 0 W/m² 13,6 °C 14,9 °C 0,0 km/h (0 Bft)
10.06.2018 02:47 14,9 °C 92 % 1010,2 hPa 0,0 mm 0,0 km/h (0 Bft) N-NW 330 ° 0 min 0,000 mm 0,0 UV-I 0 W/m² 13,6 °C 14,9 °C 0,0 km/h (0 Bft)
10.06.2018 02:48 14,9 °C 92 % 1010,2 hPa 0,0 mm 0,0 km/h (0 Bft) N-NW 330 ° 0 min 0,000 mm 0,0 UV-I 0 W/m² 13,6 °C 14,9 °C 0,0 km/h (0 Bft)
10.06.2018 02:49 14,8 °C 92 % 1010,2 hPa 0,0 mm 0,0 km/h (0 Bft) N-NW 330 ° 0 min 0,000 mm 0,0 UV-I 0 W/m² 13,5 °C 14,8 °C 0,0 km/h (0 Bft)
10.06.2018 02:50 14,9 °C 92 % 1010,2 hPa 0,0 mm 0,0 km/h (0 Bft) N-NW 330 ° 0 min 0,000 mm 0,0 UV-I 0 W/m² 13,6 °C 14,9 °C 0,0 km/h (0 Bft)
10.06.2018 02:51 14,9 °C 92 % 1010,1 hPa 0,0 mm 0,0 km/h (0 Bft) N-NW 330 ° 0 min 0,000 mm 0,0 UV-I 0 W/m² 13,6 °C 14,9 °C 0,0 km/h (0 Bft)
10.06.2018 02:52 14,9 °C 92 % 1010,2 hPa 0,0 mm 0,0 km/h (0 Bft) N-NW 330 ° 0 min 0,000 mm 0,0 UV-I 0 W/m² 13,6 °C 14,9 °C 0,0 km/h (0 Bft)
10.06.2018 02:53 14,9 °C 92 % 1010,2 hPa 0,0 mm 0,0 km/h (0 Bft) N-NW 330 ° 0 min 0,000 mm 0,0 UV-I 0 W/m² 13,6 °C 14,9 °C 0,0 km/h (0 Bft)
10.06.2018 02:54 14,9 °C 92 % 1010,1 hPa 0,0 mm 0,0 km/h (0 Bft) N-NW 330 ° 0 min 0,000 mm 0,0 UV-I 0 W/m² 13,6 °C 14,9 °C 0,0 km/h (0 Bft)
10.06.2018 02:55 14,9 °C 92 % 1010,1 hPa 0,0 mm 0,0 km/h (0 Bft) N-NW 330 ° 0 min 0,000 mm 0,0 UV-I 0 W/m² 13,6 °C 14,9 °C 0,0 km/h (0 Bft)
10.06.2018 02:56 14,9 °C 92 % 1010,1 hPa 0,0 mm 0,0 km/h (0 Bft) N-NW 330 ° 0 min 0,000 mm 0,0 UV-I 0 W/m² 13,6 °C 14,9 °C 0,0 km/h (0 Bft)
10.06.2018 02:57 14,9 °C 92 % 1010,1 hPa 0,0 mm 0,0 km/h (0 Bft) N-NW 330 ° 0 min 0,000 mm 0,0 UV-I 0 W/m² 13,6 °C 14,9 °C 0,0 km/h (0 Bft)
10.06.2018 02:58 14,9 °C 92 % 1010,1 hPa 0,0 mm 0,0 km/h (0 Bft) N-NW 330 ° 0 min 0,000 mm 0,0 UV-I 0 W/m² 13,6 °C 14,9 °C 0,0 km/h (0 Bft)
10.06.2018 02:59 14,9 °C 92 % 1010,1 hPa 0,0 mm 0,0 km/h (0 Bft) N-NW 330 ° 0 min 0,000 mm 0,0 UV-I 0 W/m² 13,6 °C 14,9 °C 0,0 km/h (0 Bft)
10.06.2018 03:00 14,9 °C 92 % 1010,1 hPa 0,0 mm 0,0 km/h (0 Bft) N-NW 330 ° 0 min 0,000 mm 0,0 UV-I 0 W/m² 13,6 °C 14,9 °C 0,0 km/h (0 Bft)
10.06.2018 03:01 14,9 °C 92 % 1010,1 hPa 0,0 mm 0,0 km/h (0 Bft) N-NW 330 ° 0 min 0,000 mm 0,0 UV-I 0 W/m² 13,6 °C 14,9 °C 0,0 km/h (0 Bft)
10.06.2018 03:02 14,9 °C 92 % 1010,1 hPa 0,0 mm 0,0 km/h (0 Bft) N-NW 330 ° 0 min 0,000 mm 0,0 UV-I 0 W/m² 13,6 °C 14,9 °C 0,0 km/h (0 Bft)
10.06.2018 03:03 14,9 °C 92 % 1010,1 hPa 0,0 mm 0,0 km/h (0 Bft) N-NW 330 ° 0 min 0,000 mm 0,0 UV-I 0 W/m² 13,6 °C 14,9 °C 0,0 km/h (0 Bft)
10.06.2018 03:04 14,9 °C 92 % 1010,0 hPa 0,0 mm 0,0 km/h (0 Bft) N-NW 330 ° 0 min 0,000 mm 0,0 UV-I 0 W/m² 13,6 °C 14,9 °C 0,0 km/h (0 Bft)
10.06.2018 03:05 14,9 °C 92 % 1010,0 hPa 0,0 mm 0,0 km/h (0 Bft) N-NW 330 ° 0 min 0,000 mm 0,0 UV-I 0 W/m² 13,6 °C 14,9 °C 0,0 km/h (0 Bft)
10.06.2018 03:06 14,9 °C 92 % 1010,0 hPa 0,0 mm 0,0 km/h (0 Bft) N-NW 330 ° 0 min 0,000 mm 0,0 UV-I 0 W/m² 13,6 °C 14,9 °C 0,0 km/h (0 Bft)
10.06.2018 03:07 14,9 °C 92 % 1010,0 hPa 0,0 mm 0,0 km/h (0 Bft) N-NW 330 ° 0 min 0,000 mm 0,0 UV-I 0 W/m² 13,6 °C 14,9 °C 0,0 km/h (0 Bft)
10.06.2018 03:08 14,9 °C 92 % 1010,0 hPa 0,0 mm 0,0 km/h (0 Bft) N-NW 330 ° 0 min 0,000 mm 0,0 UV-I 0 W/m² 13,6 °C 14,9 °C 0,0 km/h (0 Bft)
10.06.2018 03:09 14,9 °C 92 % 1010,1 hPa 0,0 mm 0,0 km/h (0 Bft) N-NW 330 ° 0 min 0,000 mm 0,0 UV-I 0 W/m² 13,6 °C 14,9 °C 0,0 km/h (0 Bft)
10.06.2018 03:10 14,9 °C 92 % 1010,0 hPa 0,0 mm 0,0 km/h (0 Bft) N-NW 330 ° 0 min 0,000 mm 0,0 UV-I 0 W/m² 13,6 °C 14,9 °C 0,0 km/h (0 Bft)
10.06.2018 03:11 14,9 °C 92 % 1010,0 hPa 0,0 mm 0,0 km/h (0 Bft) N-NW 330 ° 0 min 0,000 mm 0,0 UV-I 0 W/m² 13,6 °C 14,9 °C 0,0 km/h (0 Bft)
10.06.2018 03:12 14,9 °C 92 % 1010,0 hPa 0,0 mm 0,0 km/h (0 Bft) N-NW 330 ° 0 min 0,000 mm 0,0 UV-I 0 W/m² 13,6 °C 14,9 °C 0,0 km/h (0 Bft)
10.06.2018 03:13 15,0 °C 92 % 1010,0 hPa 0,0 mm 0,0 km/h (0 Bft) N-NW 330 ° 0 min 0,000 mm 0,0 UV-I 0 W/m² 13,7 °C 15,0 °C 0,0 km/h (0 Bft)
10.06.2018 03:14 15,0 °C 92 % 1010,0 hPa 0,0 mm 0,0 km/h (0 Bft) N-NW 330 ° 0 min 0,000 mm 0,0 UV-I 0 W/m² 13,7 °C 15,0 °C 0,0 km/h (0 Bft)
10.06.2018 03:15 15,1 °C 92 % 1009,9 hPa 0,0 mm 0,0 km/h (0 Bft) N-NW 330 ° 0 min 0,000 mm 0,0 UV-I 0 W/m² 13,8 °C 15,1 °C 0,0 km/h (0 Bft)
10.06.2018 03:16 15,1 °C 92 % 1010,0 hPa 0,0 mm 0,0 km/h (0 Bft) N-NW 330 ° 0 min 0,000 mm 0,0 UV-I 0 W/m² 13,8 °C 15,1 °C 0,0 km/h (0 Bft)
10.06.2018 03:17 15,2 °C 92 % 1010,0 hPa 0,0 mm 0,0 km/h (0 Bft) N-NW 330 ° 0 min 0,000 mm 0,0 UV-I 0 W/m² 13,9 °C 15,2 °C 0,0 km/h (0 Bft)
10.06.2018 03:18 15,2 °C 92 % 1010,0 hPa 0,0 mm 0,0 km/h (0 Bft) N-NW 330 ° 0 min 0,000 mm 0,0 UV-I 0 W/m² 13,9 °C 15,2 °C 0,0 km/h (0 Bft)
10.06.2018 03:19 15,2 °C 92 % 1010,0 hPa 0,0 mm 0,0 km/h (0 Bft) N-NW 330 ° 0 min 0,000 mm 0,0 UV-I 0 W/m² 13,9 °C 15,2 °C 0,0 km/h (0 Bft)
10.06.2018 03:20 15,2 °C 92 % 1009,9 hPa 0,0 mm 0,0 km/h (0 Bft) N-NW 330 ° 0 min 0,000 mm 0,0 UV-I 0 W/m² 13,9 °C 15,2 °C 0,0 km/h (0 Bft)
10.06.2018 03:21 15,3 °C 92 % 1010,0 hPa 0,0 mm 0,0 km/h (0 Bft) N-NW 330 ° 0 min 0,000 mm 0,0 UV-I 0 W/m² 14,0 °C 15,3 °C 0,0 km/h (0 Bft)
10.06.2018 03:22 15,3 °C 92 % 1010,0 hPa 0,0 mm 1,1 km/h (1 Bft) W-SW 246 ° 0 min 0,000 mm 0,0 UV-I 0 W/m² 14,0 °C 15,3 °C 3,2 km/h (1 Bft)
10.06.2018 03:23 15,4 °C 92 % 1009,9 hPa 0,0 mm 1,0 km/h (0 Bft) W-SW 246 ° 0 min 0,000 mm 0,0 UV-I 0 W/m² 14,1 °C 15,4 °C 3,2 km/h (1 Bft)
10.06.2018 03:24 15,4 °C 92 % 1009,9 hPa 0,0 mm 0,5 km/h (0 Bft) W-SW 246 ° 0 min 0,000 mm 0,0 UV-I 0 W/m² 14,1 °C 15,4 °C 3,2 km/h (1 Bft)
10.06.2018 03:25 15,3 °C 92 % 1009,9 hPa 0,0 mm 1,9 km/h (1 Bft) S-SO 158 ° 0 min 0,000 mm 0,0 UV-I 0 W/m² 14,0 °C 15,3 °C 4,8 km/h (1 Bft)
10.06.2018 03:26 15,3 °C 92 % 1009,8 hPa 0,0 mm 0,0 km/h (0 Bft) S-SO 158 ° 0 min 0,000 mm 0,0 UV-I 0 W/m² 14,0 °C 15,3 °C 0,0 km/h (0 Bft)
10.06.2018 03:27 15,3 °C 92 % 1009,8 hPa 0,0 mm 0,5 km/h (0 Bft) SO 144 ° 0 min 0,000 mm 0,0 UV-I 0 W/m² 14,0 °C 15,3 °C 1,6 km/h (1 Bft)
10.06.2018 03:28 15,3 °C 92 % 1009,8 hPa 0,0 mm 0,0 km/h (0 Bft) SO 144 ° 0 min 0,000 mm 0,0 UV-I 0 W/m² 14,0 °C 15,3 °C 0,0 km/h (0 Bft)
10.06.2018 03:29 15,2 °C 92 % 1009,8 hPa 0,0 mm 2,5 km/h (1 Bft) O-SO 110 ° 0 min 0,000 mm 0,0 UV-I 0 W/m² 13,9 °C 15,2 °C 4,8 km/h (1 Bft)
10.06.2018 03:30 15,2 °C 91 % 1009,9 hPa 0,0 mm 1,1 km/h (1 Bft) O-SO 110 ° 0 min 0,000 mm 0,0 UV-I 0 W/m² 13,7 °C 15,2 °C 3,2 km/h (1 Bft)
10.06.2018 03:31 15,2 °C 91 % 1009,9 hPa 0,0 mm 0,2 km/h (0 Bft) O-SO 110 ° 0 min 0,000 mm 0,0 UV-I 0 W/m² 13,7 °C 15,2 °C 1,6 km/h (1 Bft)
10.06.2018 03:32 15,1 °C 91 % 1009,9 hPa 0,0 mm 0,0 km/h (0 Bft) O-SO 110 ° 0 min 0,000 mm 0,0 UV-I 0 W/m² 13,6 °C 15,1 °C 0,0 km/h (0 Bft)
10.06.2018 03:33 15,1 °C 91 % 1009,9 hPa 0,0 mm 0,0 km/h (0 Bft) O-SO 110 ° 0 min 0,000 mm 0,0 UV-I 0 W/m² 13,6 °C 15,1 °C 0,0 km/h (0 Bft)
10.06.2018 03:34 15,0 °C 92 % 1009,9 hPa 0,0 mm 0,0 km/h (0 Bft) O-SO 110 ° 0 min 0,000 mm 0,0 UV-I 0 W/m² 13,7 °C 15,0 °C 0,0 km/h (0 Bft)
10.06.2018 03:35 15,0 °C 92 % 1009,9 hPa 0,0 mm 0,0 km/h (0 Bft) O-SO 110 ° 0 min 0,000 mm 0,0 UV-I 0 W/m² 13,7 °C 15,0 °C 0,0 km/h (0 Bft)
10.06.2018 03:36 15,0 °C 92 % 1009,9 hPa 0,0 mm 0,0 km/h (0 Bft) O-SO 110 ° 0 min 0,000 mm 0,0 UV-I 0 W/m² 13,7 °C 15,0 °C 0,0 km/h (0 Bft)
10.06.2018 03:37 15,1 °C 92 % 1009,9 hPa 0,0 mm 0,0 km/h (0 Bft) O-SO 110 ° 0 min 0,000 mm 0,0 UV-I 0 W/m² 13,8 °C 15,1 °C 0,0 km/h (0 Bft)
10.06.2018 03:38 15,1 °C 92 % 1009,9 hPa 0,0 mm 0,0 km/h (0 Bft) O-SO 110 ° 0 min 0,000 mm 0,0 UV-I 0 W/m² 13,8 °C 15,1 °C 0,0 km/h (0 Bft)
10.06.2018 03:39 15,0 °C 92 % 1009,9 hPa 0,0 mm 0,0 km/h (0 Bft) O-SO 110 ° 0 min 0,000 mm 0,0 UV-I 0 W/m² 13,7 °C 15,0 °C 0,0 km/h (0 Bft)
10.06.2018 03:40 15,0 °C 92 % 1009,9 hPa 0,0 mm 0,0 km/h (0 Bft) O-SO 110 ° 0 min 0,000 mm 0,0 UV-I 0 W/m² 13,7 °C 15,0 °C 0,0 km/h (0 Bft)
10.06.2018 03:41 15,0 °C 92 % 1010,0 hPa 0,0 mm 0,0 km/h (0 Bft) O-SO 110 ° 0 min 0,000 mm 0,0 UV-I 0 W/m² 13,7 °C 15,0 °C 0,0 km/h (0 Bft)
10.06.2018 03:42 14,9 °C 92 % 1009,9 hPa 0,0 mm 0,0 km/h (0 Bft) O-SO 110 ° 0 min 0,000 mm 0,0 UV-I 0 W/m² 13,6 °C 14,9 °C 0,0 km/h (0 Bft)
10.06.2018 03:43 14,9 °C 92 % 1009,9 hPa 0,0 mm 0,0 km/h (0 Bft) O-SO 110 ° 0 min 0,000 mm 0,0 UV-I 0 W/m² 13,6 °C 14,9 °C 0,0 km/h (0 Bft)
10.06.2018 03:44 14,9 °C 92 % 1009,9 hPa 0,0 mm 0,0 km/h (0 Bft) O-SO 110 ° 0 min 0,000 mm 0,0 UV-I 0 W/m² 13,6 °C 14,9 °C 0,0 km/h (0 Bft)
10.06.2018 03:45 15,0 °C 92 % 1009,9 hPa 0,0 mm 0,0 km/h (0 Bft) O-SO 110 ° 0 min 0,000 mm 0,0 UV-I 0 W/m² 13,7 °C 15,0 °C 0,0 km/h (0 Bft)
10.06.2018 03:46 15,0 °C 92 % 1009,9 hPa 0,0 mm 0,0 km/h (0 Bft) O-SO 110 ° 0 min 0,000 mm 0,0 UV-I 0 W/m² 13,7 °C 15,0 °C 0,0 km/h (0 Bft)
10.06.2018 03:47 15,0 °C 92 % 1009,9 hPa 0,0 mm 0,0 km/h (0 Bft) O-SO 110 ° 0 min 0,000 mm 0,0 UV-I 0 W/m² 13,7 °C 15,0 °C 0,0 km/h (0 Bft)
10.06.2018 03:48 14,9 °C 92 % 1009,9 hPa 0,0 mm 0,0 km/h (0 Bft) O-SO 110 ° 0 min 0,000 mm 0,0 UV-I 0 W/m² 13,6 °C 14,9 °C 0,0 km/h (0 Bft)
10.06.2018 03:49 14,9 °C 92 % 1009,9 hPa 0,0 mm 0,0 km/h (0 Bft) O-SO 110 ° 0 min 0,000 mm 0,0 UV-I 0 W/m² 13,6 °C 14,9 °C 0,0 km/h (0 Bft)
10.06.2018 03:50 14,9 °C 92 % 1009,8 hPa 0,0 mm 0,0 km/h (0 Bft) O-SO 110 ° 0 min 0,000 mm 0,0 UV-I 0 W/m² 13,6 °C 14,9 °C 0,0 km/h (0 Bft)
10.06.2018 03:51 14,8 °C 92 % 1009,9 hPa 0,0 mm 0,1 km/h (0 Bft) O-SO 110 ° 0 min 0,000 mm 0,0 UV-I 0 W/m² 13,5 °C 14,8 °C 1,6 km/h (1 Bft)
10.06.2018 03:52 14,9 °C 92 % 1009,9 hPa 0,0 mm 0,0 km/h (0 Bft) O-SO 110 ° 0 min 0,000 mm 0,0 UV-I 0 W/m² 13,6 °C 14,9 °C 0,0 km/h (0 Bft)
10.06.2018 03:53 14,9 °C 93 % 1009,9 hPa 0,0 mm 0,0 km/h (0 Bft) O-SO 110 ° 0 min 0,000 mm 0,0 UV-I 0 W/m² 13,8 °C 14,9 °C 0,0 km/h (0 Bft)
10.06.2018 03:54 15,0 °C 93 % 1009,8 hPa 0,0 mm 0,0 km/h (0 Bft) O-SO 110 ° 0 min 0,000 mm 0,0 UV-I 0 W/m² 13,9 °C 15,0 °C 0,0 km/h (0 Bft)
10.06.2018 03:55 15,0 °C 92 % 1009,8 hPa 0,0 mm 0,0 km/h (0 Bft) O-SO 110 ° 0 min 0,000 mm 0,0 UV-I 0 W/m² 13,7 °C 15,0 °C 0,0 km/h (0 Bft)
10.06.2018 03:56 14,9 °C 92 % 1009,9 hPa 0,0 mm 0,0 km/h (0 Bft) O-SO 110 ° 0 min 0,000 mm 0,0 UV-I 0 W/m² 13,6 °C 14,9 °C 0,0 km/h (0 Bft)
10.06.2018 03:57 14,9 °C 92 % 1009,9 hPa 0,0 mm 0,0 km/h (0 Bft) O-SO 110 ° 0 min 0,000 mm 0,0 UV-I 0 W/m² 13,6 °C 14,9 °C 0,0 km/h (0 Bft)
10.06.2018 03:58 14,9 °C 92 % 1009,8 hPa 0,0 mm 0,0 km/h (0 Bft) O-SO 110 ° 0 min 0,000 mm 0,0 UV-I 0 W/m² 13,6 °C 14,9 °C 0,0 km/h (0 Bft)
10.06.2018 03:59 14,9 °C 92 % 1009,8 hPa 0,0 mm 0,0 km/h (0 Bft) O-SO 110 ° 0 min 0,000 mm 0,0 UV-I 0 W/m² 13,6 °C 14,9 °C 0,0 km/h (0 Bft)
10.06.2018 04:00 14,9 °C 92 % 1009,8 hPa 0,0 mm 0,0 km/h (0 Bft) O-SO 110 ° 0 min 0,000 mm 0,0 UV-I 0 W/m² 13,6 °C 14,9 °C 0,0 km/h (0 Bft)
10.06.2018 04:01 14,9 °C 92 % 1009,8 hPa 0,0 mm 0,0 km/h (0 Bft) O-SO 110 ° 0 min 0,000 mm 0,0 UV-I 0 W/m² 13,6 °C 14,9 °C 0,0 km/h (0 Bft)
10.06.2018 04:02 14,9 °C 92 % 1009,7 hPa 0,0 mm 0,0 km/h (0 Bft) O-SO 110 ° 0 min 0,000 mm 0,0 UV-I 0 W/m² 13,6 °C 14,9 °C 0,0 km/h (0 Bft)
10.06.2018 04:03 14,9 °C 92 % 1009,8 hPa 0,0 mm 0,0 km/h (0 Bft) O-SO 110 ° 0 min 0,000 mm 0,0 UV-I 0 W/m² 13,6 °C 14,9 °C 0,0 km/h (0 Bft)
10.06.2018 04:04 14,9 °C 92 % 1009,8 hPa 0,0 mm 0,0 km/h (0 Bft) O-SO 110 ° 0 min 0,000 mm 0,0 UV-I 0 W/m² 13,6 °C 14,9 °C 0,0 km/h (0 Bft)
10.06.2018 04:05 14,9 °C 92 % 1009,7 hPa 0,0 mm 0,0 km/h (0 Bft) O-SO 110 ° 0 min 0,000 mm 0,0 UV-I 0 W/m² 13,6 °C 14,9 °C 0,0 km/h (0 Bft)
10.06.2018 04:06 14,9 °C 92 % 1009,8 hPa 0,0 mm 0,0 km/h (0 Bft) O-SO 110 ° 0 min 0,000 mm 0,0 UV-I 0 W/m² 13,6 °C 14,9 °C 0,0 km/h (0 Bft)
10.06.2018 04:07 14,9 °C 92 % 1009,7 hPa 0,0 mm 0,0 km/h (0 Bft) O-SO 110 ° 0 min 0,000 mm 0,0 UV-I 0 W/m² 13,6 °C 14,9 °C 0,0 km/h (0 Bft)
10.06.2018 04:08 14,9 °C 92 % 1009,7 hPa 0,0 mm 0,0 km/h (0 Bft) O-SO 110 ° 0 min 0,000 mm 0,0 UV-I 0 W/m² 13,6 °C 14,9 °C 0,0 km/h (0 Bft)
10.06.2018 04:09 14,9 °C 92 % 1009,7 hPa 0,0 mm 0,0 km/h (0 Bft) O-SO 110 ° 0 min 0,000 mm 0,0 UV-I 0 W/m² 13,6 °C 14,9 °C 0,0 km/h (0 Bft)
10.06.2018 04:10 14,9 °C 92 % 1009,7 hPa 0,0 mm 0,0 km/h (0 Bft) O-SO 110 ° 0 min 0,000 mm 0,0 UV-I 0 W/m² 13,6 °C 14,9 °C 0,0 km/h (0 Bft)
10.06.2018 04:11 14,9 °C 92 % 1009,7 hPa 0,0 mm 0,0 km/h (0 Bft) O-SO 110 ° 0 min 0,000 mm 0,0 UV-I 0 W/m² 13,6 °C 14,9 °C 0,0 km/h (0 Bft)
10.06.2018 04:12 14,9 °C 92 % 1009,7 hPa 0,0 mm 0,0 km/h (0 Bft) O-SO 110 ° 0 min 0,000 mm 0,0 UV-I 0 W/m² 13,6 °C 14,9 °C 0,0 km/h (0 Bft)
10.06.2018 04:13 14,9 °C 92 % 1009,7 hPa 0,0 mm 0,0 km/h (0 Bft) O-SO 110 ° 0 min 0,000 mm 0,0 UV-I 0 W/m² 13,6 °C 14,9 °C 0,0 km/h (0 Bft)
10.06.2018 04:14 14,9 °C 92 % 1009,7 hPa 0,0 mm 0,0 km/h (0 Bft) O-SO 110 ° 0 min 0,000 mm 0,0 UV-I 0 W/m² 13,6 °C 14,9 °C 0,0 km/h (0 Bft)
10.06.2018 04:15 14,9 °C 92 % 1009,7 hPa 0,0 mm 0,0 km/h (0 Bft) O-SO 110 ° 0 min 0,000 mm 0,0 UV-I 0 W/m² 13,6 °C 14,9 °C 0,0 km/h (0 Bft)
10.06.2018 04:16 14,9 °C 92 % 1009,7 hPa 0,0 mm 0,0 km/h (0 Bft) O-SO 110 ° 0 min 0,000 mm 0,0 UV-I 0 W/m² 13,6 °C 14,9 °C 0,0 km/h (0 Bft)
10.06.2018 04:17 14,9 °C 92 % 1009,8 hPa 0,0 mm 0,0 km/h (0 Bft) O-SO 110 ° 0 min 0,000 mm 0,0 UV-I 0 W/m² 13,6 °C 14,9 °C 0,0 km/h (0 Bft)
10.06.2018 04:18 14,8 °C 92 % 1009,8 hPa 0,0 mm 0,0 km/h (0 Bft) O-SO 110 ° 0 min 0,000 mm 0,0 UV-I 0 W/m² 13,5 °C 14,8 °C 0,0 km/h (0 Bft)
10.06.2018 04:19 14,8 °C 92 % 1009,8 hPa 0,2 mm 0,0 km/h (0 Bft) O-SO 110 ° 0 min 0,000 mm 0,0 UV-I 0 W/m² 13,5 °C 14,8 °C 0,0 km/h (0 Bft)
10.06.2018 04:20 14,7 °C 92 % 1009,8 hPa 0,0 mm 0,0 km/h (0 Bft) O-SO 110 ° 0 min 0,000 mm 0,0 UV-I 0 W/m² 13,4 °C 14,7 °C 0,0 km/h (0 Bft)
10.06.2018 04:21 14,8 °C 92 % 1009,8 hPa 0,0 mm 0,0 km/h (0 Bft) O-SO 110 ° 0 min 0,000 mm 0,0 UV-I 0 W/m² 13,5 °C 14,8 °C 0,0 km/h (0 Bft)
10.06.2018 04:22 14,7 °C 92 % 1009,8 hPa 0,0 mm 0,0 km/h (0 Bft) O-SO 110 ° 0 min 0,000 mm 0,0 UV-I 0 W/m² 13,4 °C 14,7 °C 0,0 km/h (0 Bft)
10.06.2018 04:23 14,7 °C 93 % 1009,8 hPa 0,0 mm 0,0 km/h (0 Bft) O-SO 110 ° 0 min 0,000 mm 0,0 UV-I 0 W/m² 13,6 °C 14,7 °C 0,0 km/h (0 Bft)
10.06.2018 04:24 14,7 °C 93 % 1009,8 hPa 0,0 mm 0,0 km/h (0 Bft) O-SO 110 ° 0 min 0,000 mm 0,0 UV-I 0 W/m² 13,6 °C 14,7 °C 0,0 km/h (0 Bft)
10.06.2018 04:25 14,7 °C 93 % 1009,7 hPa 0,0 mm 0,0 km/h (0 Bft) O-SO 110 ° 0 min 0,000 mm 0,0 UV-I 0 W/m² 13,6 °C 14,7 °C 0,0 km/h (0 Bft)
10.06.2018 04:26 14,7 °C 93 % 1009,7 hPa 0,0 mm 0,0 km/h (0 Bft) O-SO 110 ° 0 min 0,000 mm 0,0 UV-I 0 W/m² 13,6 °C 14,7 °C 0,0 km/h (0 Bft)
10.06.2018 04:27 14,7 °C 93 % 1009,8 hPa 0,0 mm 0,0 km/h (0 Bft) O-SO 110 ° 0 min 0,000 mm 0,0 UV-I 0 W/m² 13,6 °C 14,7 °C 0,0 km/h (0 Bft)
10.06.2018 04:28 14,7 °C 93 % 1009,8 hPa 0,0 mm 0,0 km/h (0 Bft) O-SO 110 ° 0 min 0,000 mm 0,0 UV-I 0 W/m² 13,6 °C 14,7 °C 0,0 km/h (0 Bft)
10.06.2018 04:29 14,7 °C 93 % 1009,8 hPa 0,0 mm 0,0 km/h (0 Bft) O-SO 110 ° 0 min 0,000 mm 0,0 UV-I 0 W/m² 13,6 °C 14,7 °C 0,0 km/h (0 Bft)
10.06.2018 04:30 14,7 °C 93 % 1009,8 hPa 0,0 mm 0,0 km/h (0 Bft) O-SO 110 ° 0 min 0,000 mm 0,0 UV-I 0 W/m² 13,6 °C 14,7 °C 0,0 km/h (0 Bft)
10.06.2018 04:31 14,7 °C 93 % 1009,7 hPa 0,0 mm 0,0 km/h (0 Bft) O-SO 110 ° 0 min 0,000 mm 0,0 UV-I 0 W/m² 13,6 °C 14,7 °C 0,0 km/h (0 Bft)
10.06.2018 04:32 14,6 °C 93 % 1009,7 hPa 0,0 mm 0,0 km/h (0 Bft) O-SO 110 ° 0 min 0,000 mm 0,0 UV-I 0 W/m² 13,5 °C 14,6 °C 0,0 km/h (0 Bft)
10.06.2018 04:33 14,6 °C 92 % 1009,7 hPa 0,0 mm 0,0 km/h (0 Bft) O-SO 110 ° 0 min 0,000 mm 0,0 UV-I 0 W/m² 13,3 °C 14,6 °C 0,0 km/h (0 Bft)
10.06.2018 04:34 14,5 °C 93 % 1009,7 hPa 0,0 mm 0,0 km/h (0 Bft) O-SO 110 ° 0 min 0,000 mm 0,0 UV-I 0 W/m² 13,4 °C 14,5 °C 0,0 km/h (0 Bft)
10.06.2018 04:35 14,4 °C 93 % 1009,8 hPa 0,0 mm 0,0 km/h (0 Bft) O-SO 110 ° 0 min 0,000 mm 0,0 UV-I 0 W/m² 13,3 °C 14,4 °C 0,0 km/h (0 Bft)
10.06.2018 04:36 14,4 °C 93 % 1009,7 hPa 0,0 mm 0,0 km/h (0 Bft) O-SO 110 ° 0 min 0,000 mm 0,0 UV-I 0 W/m² 13,3 °C 14,4 °C 0,0 km/h (0 Bft)
10.06.2018 04:37 14,4 °C 93 % 1009,7 hPa 0,0 mm 0,0 km/h (0 Bft) O-SO 110 ° 0 min 0,000 mm 0,0 UV-I 0 W/m² 13,3 °C 14,4 °C 0,0 km/h (0 Bft)
10.06.2018 04:38 14,4 °C 93 % 1009,7 hPa 0,0 mm 0,0 km/h (0 Bft) O-SO 110 ° 0 min 0,000 mm 0,0 UV-I 0 W/m² 13,3 °C 14,4 °C 0,0 km/h (0 Bft)
10.06.2018 04:39 14,4 °C 93 % 1009,7 hPa 0,0 mm 0,0 km/h (0 Bft) O-SO 110 ° 0 min 0,000 mm 0,0 UV-I 0 W/m² 13,3 °C 14,4 °C 0,0 km/h (0 Bft)
10.06.2018 04:40 14,4 °C 93 % 1009,7 hPa 0,0 mm 0,0 km/h (0 Bft) O-SO 110 ° 0 min 0,000 mm 0,0 UV-I 0 W/m² 13,3 °C 14,4 °C 0,0 km/h (0 Bft)
10.06.2018 04:41 14,3 °C 93 % 1009,6 hPa 0,0 mm 0,0 km/h (0 Bft) O-SO 110 ° 0 min 0,000 mm 0,0 UV-I 0 W/m² 13,2 °C 14,3 °C 0,0 km/h (0 Bft)
10.06.2018 04:42 14,3 °C 93 % 1009,6 hPa 0,0 mm 0,0 km/h (0 Bft) O-SO 110 ° 0 min 0,000 mm 0,0 UV-I 0 W/m² 13,2 °C 14,3 °C 0,0 km/h (0 Bft)
10.06.2018 04:43 14,3 °C 93 % 1009,6 hPa 0,0 mm 0,0 km/h (0 Bft) O-SO 110 ° 0 min 0,000 mm 0,0 UV-I 0 W/m² 13,2 °C 14,3 °C 0,0 km/h (0 Bft)
10.06.2018 04:44 14,3 °C 93 % 1009,6 hPa 0,0 mm 0,0 km/h (0 Bft) O-SO 110 ° 0 min 0,000 mm 0,0 UV-I 0 W/m² 13,2 °C 14,3 °C 0,0 km/h (0 Bft)
10.06.2018 04:45 14,3 °C 93 % 1009,7 hPa 0,0 mm 0,0 km/h (0 Bft) O-SO 110 ° 0 min 0,000 mm 0,0 UV-I 0 W/m² 13,2 °C 14,3 °C 0,0 km/h (0 Bft)
10.06.2018 04:46 14,3 °C 93 % 1009,7 hPa 0,0 mm 0,0 km/h (0 Bft) O-SO 110 ° 0 min 0,000 mm 0,0 UV-I 0 W/m² 13,2 °C 14,3 °C 0,0 km/h (0 Bft)
10.06.2018 04:47 14,3 °C 93 % 1009,7 hPa 0,0 mm 0,0 km/h (0 Bft) O-SO 110 ° 0 min 0,000 mm 0,0 UV-I 0 W/m² 13,2 °C 14,3 °C 0,0 km/h (0 Bft)
10.06.2018 04:48 14,2 °C 93 % 1009,7 hPa 0,0 mm 0,0 km/h (0 Bft) O-SO 110 ° 0 min 0,000 mm 0,0 UV-I 0 W/m² 13,1 °C 14,2 °C 0,0 km/h (0 Bft)
10.06.2018 04:49 14,2 °C 93 % 1009,7 hPa 0,0 mm 0,0 km/h (0 Bft) O-SO 110 ° 0 min 0,000 mm 0,0 UV-I 0 W/m² 13,1 °C 14,2 °C 0,0 km/h (0 Bft)
10.06.2018 04:50 14,2 °C 93 % 1009,7 hPa 0,0 mm 0,0 km/h (0 Bft) O-SO 110 ° 0 min 0,000 mm 0,0 UV-I 0 W/m² 13,1 °C 14,2 °C 0,0 km/h (0 Bft)
10.06.2018 04:51 14,2 °C 93 % 1009,7 hPa 0,0 mm 0,0 km/h (0 Bft) O-SO 110 ° 0 min 0,000 mm 0,0 UV-I 0 W/m² 13,1 °C 14,2 °C 0,0 km/h (0 Bft)
10.06.2018 04:52 14,2 °C 93 % 1009,6 hPa 0,0 mm 0,0 km/h (0 Bft) O-SO 110 ° 0 min 0,000 mm 0,0 UV-I 0 W/m² 13,1 °C 14,2 °C 0,0 km/h (0 Bft)
10.06.2018 04:53 14,2 °C 93 % 1009,6 hPa 0,0 mm 0,0 km/h (0 Bft) O-SO 110 ° 0 min 0,000 mm 0,0 UV-I 0 W/m² 13,1 °C 14,2 °C 0,0 km/h (0 Bft)
10.06.2018 04:54 14,1 °C 93 % 1009,6 hPa 0,0 mm 0,0 km/h (0 Bft) O-SO 110 ° 0 min 0,000 mm 0,0 UV-I 0 W/m² 13,0 °C 14,1 °C 0,0 km/h (0 Bft)
10.06.2018 04:55 14,1 °C 93 % 1009,6 hPa 0,0 mm 0,0 km/h (0 Bft) O-SO 110 ° 0 min 0,000 mm 0,0 UV-I 0 W/m² 13,0 °C 14,1 °C 0,0 km/h (0 Bft)
10.06.2018 04:56 14,1 °C 93 % 1009,6 hPa 0,0 mm 0,0 km/h (0 Bft) O-SO 110 ° 0 min 0,000 mm 0,0 UV-I 0 W/m² 13,0 °C 14,1 °C 0,0 km/h (0 Bft)
10.06.2018 04:57 14,1 °C 94 % 1009,6 hPa 0,0 mm 0,0 km/h (0 Bft) O-SO 110 ° 0 min 0,000 mm 0,0 UV-I 0 W/m² 13,1 °C 14,1 °C 0,0 km/h (0 Bft)
10.06.2018 04:58 14,1 °C 93 % 1009,6 hPa 0,0 mm 0,0 km/h (0 Bft) O-SO 110 ° 0 min 0,000 mm 0,0 UV-I 0 W/m² 13,0 °C 14,1 °C 0,0 km/h (0 Bft)
10.06.2018 04:59 14,1 °C 93 % 1009,6 hPa 0,0 mm 0,0 km/h (0 Bft) O-SO 110 ° 0 min 0,000 mm 0,0 UV-I 0 W/m² 13,0 °C 14,1 °C 0,0 km/h (0 Bft)
10.06.2018 05:00 14,0 °C 93 % 1009,5 hPa 0,0 mm 0,0 km/h (0 Bft) O-SO 110 ° 0 min 0,000 mm 0,0 UV-I 0 W/m² 12,9 °C 14,0 °C 0,0 km/h (0 Bft)
10.06.2018 05:01 14,0 °C 93 % 1009,5 hPa 0,0 mm 0,0 km/h (0 Bft) O-SO 110 ° 0 min 0,000 mm 0,0 UV-I 0 W/m² 12,9 °C 14,0 °C 0,0 km/h (0 Bft)
10.06.2018 05:02 14,0 °C 93 % 1009,6 hPa 0,0 mm 0,0 km/h (0 Bft) O-SO 110 ° 0 min 0,000 mm 0,0 UV-I 0 W/m² 12,9 °C 14,0 °C 0,0 km/h (0 Bft)
10.06.2018 05:03 14,0 °C 93 % 1009,5 hPa 0,0 mm 0,0 km/h (0 Bft) O-SO 110 ° 0 min 0,000 mm 0,0 UV-I 0 W/m² 12,9 °C 14,0 °C 0,0 km/h (0 Bft)
10.06.2018 05:04 14,0 °C 93 % 1009,6 hPa 0,0 mm 0,0 km/h (0 Bft) O-SO 110 ° 0 min 0,000 mm 0,0 UV-I 0 W/m² 12,9 °C 14,0 °C 0,0 km/h (0 Bft)
10.06.2018 05:05 13,9 °C 93 % 1009,6 hPa 0,0 mm 0,0 km/h (0 Bft) O-SO 110 ° 0 min 0,000 mm 0,0 UV-I 0 W/m² 12,8 °C 13,9 °C 0,0 km/h (0 Bft)
10.06.2018 05:06 13,9 °C 93 % 1009,6 hPa 0,0 mm 0,0 km/h (0 Bft) O-SO 110 ° 0 min 0,000 mm 0,0 UV-I 0 W/m² 12,8 °C 13,9 °C 0,0 km/h (0 Bft)
10.06.2018 05:07 13,9 °C 93 % 1009,6 hPa 0,0 mm 0,0 km/h (0 Bft) O-SO 110 ° 0 min 0,000 mm 0,0 UV-I 0 W/m² 12,8 °C 13,9 °C 0,0 km/h (0 Bft)
10.06.2018 05:08 13,9 °C 93 % 1009,7 hPa 0,0 mm 0,0 km/h (0 Bft) O-SO 110 ° 0 min 0,000 mm 0,0 UV-I 0 W/m² 12,8 °C 13,9 °C 0,0 km/h (0 Bft)
10.06.2018 05:09 13,8 °C 94 % 1009,7 hPa 0,0 mm 0,0 km/h (0 Bft) O-SO 110 ° 0 min 0,000 mm 0,0 UV-I 0 W/m² 12,9 °C 13,8 °C 0,0 km/h (0 Bft)
10.06.2018 05:10 13,8 °C 93 % 1009,7 hPa 0,0 mm 0,0 km/h (0 Bft) O-SO 110 ° 0 min 0,000 mm 0,0 UV-I 0 W/m² 12,7 °C 13,8 °C 0,0 km/h (0 Bft)
10.06.2018 05:11 13,8 °C 94 % 1009,7 hPa 0,0 mm 0,0 km/h (0 Bft) O-SO 110 ° 0 min 0,000 mm 0,0 UV-I 0 W/m² 12,9 °C 13,8 °C 0,0 km/h (0 Bft)
10.06.2018 05:12 13,9 °C 94 % 1009,7 hPa 0,0 mm 0,0 km/h (0 Bft) O-SO 110 ° 0 min 0,000 mm 0,0 UV-I 0 W/m² 12,9 °C 13,9 °C 0,0 km/h (0 Bft)
10.06.2018 05:13 13,9 °C 94 % 1009,7 hPa 0,0 mm 0,0 km/h (0 Bft) O-SO 110 ° 0 min 0,000 mm 0,0 UV-I 0 W/m² 12,9 °C 13,9 °C 0,0 km/h (0 Bft)
10.06.2018 05:14 14,0 °C 94 % 1009,6 hPa 0,0 mm 0,2 km/h (0 Bft) O-SO 110 ° 0 min 0,000 mm 0,0 UV-I 0 W/m² 13,0 °C 14,0 °C 1,6 km/h (1 Bft)
10.06.2018 05:15 13,9 °C 94 % 1009,7 hPa 0,0 mm 0,7 km/h (0 Bft) O-SO 110 ° 0 min 0,000 mm 0,0 UV-I 0 W/m² 12,9 °C 13,9 °C 1,6 km/h (1 Bft)
10.06.2018 05:16 13,9 °C 94 % 1009,7 hPa 0,0 mm 0,0 km/h (0 Bft) O-SO 110 ° 0 min 0,000 mm 0,0 UV-I 0 W/m² 12,9 °C 13,9 °C 0,0 km/h (0 Bft)
10.06.2018 05:17 13,9 °C 94 % 1009,6 hPa 0,0 mm 1,7 km/h (1 Bft) O-SO 110 ° 0 min 0,000 mm 0,0 UV-I 0 W/m² 12,9 °C 13,9 °C 4,8 km/h (1 Bft)
10.06.2018 05:18 13,9 °C 94 % 1009,6 hPa 0,0 mm 0,1 km/h (0 Bft) O-SO 110 ° 0 min 0,000 mm 0,0 UV-I 0 W/m² 12,9 °C 13,9 °C 1,6 km/h (1 Bft)
10.06.2018 05:19 13,9 °C 94 % 1009,6 hPa 0,0 mm 0,0 km/h (0 Bft) O-SO 110 ° 0 min 0,000 mm 0,0 UV-I 0 W/m² 12,9 °C 13,9 °C 0,0 km/h (0 Bft)
10.06.2018 05:20 14,0 °C 94 % 1009,6 hPa 0,0 mm 0,0 km/h (0 Bft) O-SO 110 ° 0 min 0,000 mm 0,0 UV-I 0 W/m² 13,0 °C 14,0 °C 0,0 km/h (0 Bft)
10.06.2018 05:21 14,0 °C 94 % 1009,6 hPa 0,0 mm 0,0 km/h (0 Bft) O-SO 110 ° 0 min 0,000 mm 0,0 UV-I 0 W/m² 13,0 °C 14,0 °C 0,0 km/h (0 Bft)
10.06.2018 05:22 13,9 °C 94 % 1009,6 hPa 0,0 mm 0,0 km/h (0 Bft) O-SO 110 ° 0 min 0,000 mm 0,0 UV-I 0 W/m² 12,9 °C 13,9 °C 0,0 km/h (0 Bft)
10.06.2018 05:23 13,9 °C 94 % 1009,7 hPa 0,0 mm 0,0 km/h (0 Bft) O-SO 110 ° 0 min 0,000 mm 0,0 UV-I 5 W/m² 12,9 °C 13,9 °C 0,0 km/h (0 Bft)
10.06.2018 05:24 13,9 °C 94 % 1009,6 hPa 0,0 mm 0,0 km/h (0 Bft) O-SO 110 ° 0 min 0,000 mm 0,0 UV-I 5 W/m² 12,9 °C 13,9 °C 0,0 km/h (0 Bft)
10.06.2018 05:25 13,9 °C 94 % 1009,6 hPa 0,0 mm 0,0 km/h (0 Bft) O-SO 110 ° 0 min 0,000 mm 0,0 UV-I 5 W/m² 12,9 °C 13,9 °C 0,0 km/h (0 Bft)
10.06.2018 05:26 13,9 °C 94 % 1009,6 hPa 0,0 mm 0,0 km/h (0 Bft) O-SO 110 ° 0 min 0,000 mm 0,0 UV-I 5 W/m² 12,9 °C 13,9 °C 0,0 km/h (0 Bft)
10.06.2018 05:27 13,9 °C 94 % 1009,6 hPa 0,0 mm 0,0 km/h (0 Bft) O-SO 110 ° 0 min 0,000 mm 0,0 UV-I 5 W/m² 12,9 °C 13,9 °C 0,0 km/h (0 Bft)
10.06.2018 05:28 13,9 °C 94 % 1009,6 hPa 0,0 mm 0,0 km/h (0 Bft) O-SO 110 ° 0 min 0,000 mm 0,0 UV-I 5 W/m² 12,9 °C 13,9 °C 0,0 km/h (0 Bft)
10.06.2018 05:29 13,9 °C 94 % 1009,6 hPa 0,0 mm 0,0 km/h (0 Bft) O-SO 110 ° 0 min 0,000 mm 0,0 UV-I 5 W/m² 12,9 °C 13,9 °C 0,0 km/h (0 Bft)
10.06.2018 05:30 13,8 °C 94 % 1009,6 hPa 0,0 mm 0,0 km/h (0 Bft) O-SO 110 ° 0 min 0,000 mm 0,0 UV-I 7 W/m² 12,9 °C 13,8 °C 0,0 km/h (0 Bft)
10.06.2018 05:31 13,8 °C 94 % 1009,6 hPa 0,0 mm 0,0 km/h (0 Bft) O-SO 110 ° 0 min 0,000 mm 0,0 UV-I 7 W/m² 12,9 °C 13,8 °C 0,0 km/h (0 Bft)
10.06.2018 05:32 13,7 °C 94 % 1009,7 hPa 0,0 mm 0,0 km/h (0 Bft) O-SO 110 ° 0 min 0,000 mm 0,0 UV-I 7 W/m² 12,8 °C 13,7 °C 0,0 km/h (0 Bft)
10.06.2018 05:33 13,7 °C 94 % 1009,7 hPa 0,0 mm 0,0 km/h (0 Bft) O-SO 110 ° 0 min 0,000 mm 0,0 UV-I 9 W/m² 12,8 °C 13,7 °C 0,0 km/h (0 Bft)
10.06.2018 05:34 13,7 °C 94 % 1009,7 hPa 0,0 mm 0,1 km/h (0 Bft) O-SO 110 ° 0 min 0,000 mm 0,0 UV-I 9 W/m² 12,8 °C 13,7 °C 1,6 km/h (1 Bft)
10.06.2018 05:35 13,7 °C 93 % 1009,7 hPa 0,0 mm 0,0 km/h (0 Bft) O-SO 110 ° 0 min 0,000 mm 0,0 UV-I 11 W/m² 12,6 °C 13,7 °C 0,0 km/h (0 Bft)
10.06.2018 05:36 13,6 °C 94 % 1009,7 hPa 0,0 mm 0,0 km/h (0 Bft) O-SO 110 ° 0 min 0,000 mm 0,0 UV-I 11 W/m² 12,7 °C 13,6 °C 0,0 km/h (0 Bft)
10.06.2018 05:37 13,6 °C 94 % 1009,7 hPa 0,0 mm 0,0 km/h (0 Bft) O-SO 110 ° 0 min 0,000 mm 0,0 UV-I 11 W/m² 12,7 °C 13,6 °C 0,0 km/h (0 Bft)
10.06.2018 05:38 13,7 °C 94 % 1009,7 hPa 0,0 mm 0,0 km/h (0 Bft) O-SO 110 ° 0 min 0,000 mm 0,0 UV-I 11 W/m² 12,8 °C 13,7 °C 0,0 km/h (0 Bft)
10.06.2018 05:39 13,7 °C 94 % 1009,7 hPa 0,0 mm 0,0 km/h (0 Bft) O-SO 110 ° 0 min 0,000 mm 0,0 UV-I 12 W/m² 12,8 °C 13,7 °C 0,0 km/h (0 Bft)
10.06.2018 05:40 13,7 °C 94 % 1009,7 hPa 0,0 mm 0,0 km/h (0 Bft) O-SO 110 ° 0 min 0,000 mm 0,0 UV-I 12 W/m² 12,8 °C 13,7 °C 0,0 km/h (0 Bft)
10.06.2018 05:41 13,8 °C 94 % 1009,7 hPa 0,0 mm 0,0 km/h (0 Bft) O-SO 110 ° 0 min 0,000 mm 0,0 UV-I 14 W/m² 12,9 °C 13,8 °C 0,0 km/h (0 Bft)
10.06.2018 05:42 13,8 °C 94 % 1009,8 hPa 0,0 mm 0,0 km/h (0 Bft) O-SO 110 ° 0 min 0,000 mm 0,0 UV-I 14 W/m² 12,9 °C 13,8 °C 0,0 km/h (0 Bft)
10.06.2018 05:43 13,8 °C 94 % 1009,8 hPa 0,0 mm 0,0 km/h (0 Bft) O-SO 110 ° 0 min 0,000 mm 0,0 UV-I 14 W/m² 12,9 °C 13,8 °C 0,0 km/h (0 Bft)
10.06.2018 05:44 13,8 °C 94 % 1009,8 hPa 0,0 mm 0,0 km/h (0 Bft) O-SO 110 ° 0 min 0,000 mm 0,0 UV-I 16 W/m² 12,9 °C 13,8 °C 0,0 km/h (0 Bft)
10.06.2018 05:45 13,8 °C 94 % 1009,8 hPa 0,0 mm 0,0 km/h (0 Bft) O-SO 110 ° 0 min 0,000 mm 0,0 UV-I 16 W/m² 12,9 °C 13,8 °C 0,0 km/h (0 Bft)
10.06.2018 05:46 13,8 °C 94 % 1009,7 hPa 0,0 mm 0,0 km/h (0 Bft) O-SO 110 ° 0 min 0,000 mm 0,0 UV-I 16 W/m² 12,9 °C 13,8 °C 0,0 km/h (0 Bft)
10.06.2018 05:47 13,8 °C 94 % 1009,8 hPa 0,0 mm 0,0 km/h (0 Bft) O-SO 110 ° 0 min 0,000 mm 0,0 UV-I 18 W/m² 12,9 °C 13,8 °C 0,0 km/h (0 Bft)
10.06.2018 05:48 13,8 °C 94 % 1009,8 hPa 0,0 mm 0,0 km/h (0 Bft) O-SO 110 ° 0 min 0,000 mm 0,0 UV-I 18 W/m² 12,9 °C 13,8 °C 0,0 km/h (0 Bft)
10.06.2018 05:49 13,8 °C 94 % 1009,8 hPa 0,0 mm 0,0 km/h (0 Bft) O-SO 110 ° 0 min 0,000 mm 0,0 UV-I 18 W/m² 12,9 °C 13,8 °C 0,0 km/h (0 Bft)
10.06.2018 05:50 13,8 °C 94 % 1009,7 hPa 0,0 mm 0,0 km/h (0 Bft) O-SO 110 ° 0 min 0,000 mm 0,0 UV-I 19 W/m² 12,9 °C 13,8 °C 0,0 km/h (0 Bft)
10.06.2018 05:51 13,8 °C 94 % 1009,7 hPa 0,0 mm 0,0 km/h (0 Bft) O-SO 110 ° 0 min 0,000 mm 0,0 UV-I 19 W/m² 12,9 °C 13,8 °C 0,0 km/h (0 Bft)
10.06.2018 05:52 13,8 °C 94 % 1009,8 hPa 0,0 mm 0,0 km/h (0 Bft) O-SO 110 ° 0 min 0,000 mm 0,0 UV-I 21 W/m² 12,9 °C 13,8 °C 0,0 km/h (0 Bft)
10.06.2018 05:53 13,9 °C 94 % 1009,7 hPa 0,0 mm 0,0 km/h (0 Bft) O-SO 110 ° 0 min 0,000 mm 0,0 UV-I 21 W/m² 12,9 °C 13,9 °C 0,0 km/h (0 Bft)
10.06.2018 05:54 13,8 °C 94 % 1009,7 hPa 0,0 mm 1,2 km/h (1 Bft) O-SO 110 ° 0 min 0,000 mm 0,0 UV-I 21 W/m² 12,9 °C 13,8 °C 3,2 km/h (1 Bft)
10.06.2018 05:55 13,8 °C 94 % 1009,8 hPa 0,0 mm 1,2 km/h (1 Bft) O-SO 110 ° 0 min 0,000 mm 0,0 UV-I 21 W/m² 12,9 °C 13,8 °C 3,2 km/h (1 Bft)
10.06.2018 05:56 13,8 °C 94 % 1009,8 hPa 0,0 mm 1,5 km/h (1 Bft) O-SO 110 ° 0 min 0,000 mm 0,0 UV-I 23 W/m² 12,9 °C 13,8 °C 1,6 km/h (1 Bft)
10.06.2018 05:57 13,8 °C 94 % 1009,8 hPa 0,0 mm 0,8 km/h (0 Bft) O-SO 110 ° 0 min 0,000 mm 0,0 UV-I 21 W/m² 12,9 °C 13,8 °C 1,6 km/h (1 Bft)
10.06.2018 05:58 13,8 °C 94 % 1009,8 hPa 0,0 mm 0,6 km/h (0 Bft) O-SO 110 ° 0 min 0,000 mm 0,0 UV-I 21 W/m² 12,9 °C 13,8 °C 1,6 km/h (1 Bft)
10.06.2018 05:59 13,8 °C 94 % 1009,8 hPa 0,0 mm 0,0 km/h (0 Bft) O-SO 110 ° 0 min 0,000 mm 0,0 UV-I 25 W/m² 12,9 °C 13,8 °C 0,0 km/h (0 Bft)
10.06.2018 06:00 13,9 °C 94 % 1009,8 hPa 0,0 mm 0,0 km/h (0 Bft) O-SO 110 ° 0 min 0,000 mm 0,0 UV-I 26 W/m² 12,9 °C 13,9 °C 0,0 km/h (0 Bft)
10.06.2018 06:01 13,8 °C 94 % 1009,7 hPa 0,0 mm 0,0 km/h (0 Bft) O-SO 110 ° 0 min 0,000 mm 0,0 UV-I 28 W/m² 12,9 °C 13,8 °C 0,0 km/h (0 Bft)
10.06.2018 06:02 13,8 °C 94 % 1009,7 hPa 0,0 mm 0,0 km/h (0 Bft) O-SO 110 ° 0 min 0,000 mm 0,0 UV-I 33 W/m² 12,9 °C 13,8 °C 0,0 km/h (0 Bft)
10.06.2018 06:03 13,8 °C 94 % 1009,7 hPa 0,0 mm 0,0 km/h (0 Bft) O-SO 110 ° 0 min 0,000 mm 0,0 UV-I 35 W/m² 12,9 °C 13,8 °C 0,0 km/h (0 Bft)
10.06.2018 06:04 13,8 °C 94 % 1009,7 hPa 0,0 mm 0,0 km/h (0 Bft) O-SO 110 ° 0 min 0,000 mm 0,0 UV-I 37 W/m² 12,9 °C 13,8 °C 0,0 km/h (0 Bft)
10.06.2018 06:05 13,8 °C 94 % 1009,6 hPa 0,0 mm 0,0 km/h (0 Bft) O-SO 110 ° 0 min 0,000 mm 0,0 UV-I 39 W/m² 12,9 °C 13,8 °C 0,0 km/h (0 Bft)
10.06.2018 06:06 13,8 °C 94 % 1009,6 hPa 0,0 mm 0,0 km/h (0 Bft) O-SO 110 ° 0 min 0,000 mm 0,0 UV-I 39 W/m² 12,9 °C 13,8 °C 0,0 km/h (0 Bft)
10.06.2018 06:07 13,8 °C 94 % 1009,6 hPa 0,0 mm 0,0 km/h (0 Bft) O-SO 110 ° 0 min 0,000 mm 0,0 UV-I 40 W/m² 12,9 °C 13,8 °C 0,0 km/h (0 Bft)
10.06.2018 06:08 13,8 °C 94 % 1009,7 hPa 0,0 mm 0,0 km/h (0 Bft) O-SO 110 ° 0 min 0,000 mm 0,0 UV-I 40 W/m² 12,9 °C 13,8 °C 0,0 km/h (0 Bft)
10.06.2018 06:09 13,8 °C 94 % 1009,6 hPa 0,0 mm 0,0 km/h (0 Bft) O-SO 110 ° 0 min 0,000 mm 0,0 UV-I 42 W/m² 12,9 °C 13,8 °C 0,0 km/h (0 Bft)
10.06.2018 06:10 13,8 °C 94 % 1009,6 hPa 0,0 mm 0,0 km/h (0 Bft) O-SO 110 ° 0 min 0,000 mm 0,0 UV-I 46 W/m² 12,9 °C 13,8 °C 0,0 km/h (0 Bft)
10.06.2018 06:11 13,8 °C 94 % 1009,6 hPa 0,0 mm 0,0 km/h (0 Bft) O-SO 110 ° 0 min 0,000 mm 0,0 UV-I 47 W/m² 12,9 °C 13,8 °C 0,0 km/h (0 Bft)
10.06.2018 06:12 13,8 °C 94 % 1009,6 hPa 0,0 mm 0,0 km/h (0 Bft) O-SO 110 ° 0 min 0,000 mm 0,0 UV-I 47 W/m² 12,9 °C 13,8 °C 0,0 km/h (0 Bft)
10.06.2018 06:13 13,8 °C 94 % 1009,6 hPa 0,0 mm 0,0 km/h (0 Bft) O-SO 110 ° 0 min 0,000 mm 0,0 UV-I 44 W/m² 12,9 °C 13,8 °C 0,0 km/h (0 Bft)
10.06.2018 06:14 13,9 °C 94 % 1009,6 hPa 0,0 mm 0,0 km/h (0 Bft) O-SO 110 ° 0 min 0,000 mm 0,0 UV-I 39 W/m² 12,9 °C 13,9 °C 0,0 km/h (0 Bft)
10.06.2018 06:15 13,9 °C 94 % 1009,6 hPa 0,0 mm 0,0 km/h (0 Bft) O-SO 110 ° 0 min 0,000 mm 0,0 UV-I 39 W/m² 12,9 °C 13,9 °C 0,0 km/h (0 Bft)
10.06.2018 06:16 13,9 °C 94 % 1009,6 hPa 0,0 mm 0,0 km/h (0 Bft) O-SO 110 ° 0 min 0,000 mm 0,0 UV-I 51 W/m² 12,9 °C 13,9 °C 0,0 km/h (0 Bft)
10.06.2018 06:17 13,9 °C 94 % 1009,7 hPa 0,0 mm 0,0 km/h (0 Bft) O-SO 110 ° 0 min 0,000 mm 0,0 UV-I 60 W/m² 12,9 °C 13,9 °C 0,0 km/h (0 Bft)
10.06.2018 06:18 13,9 °C 94 % 1009,7 hPa 0,0 mm 0,0 km/h (0 Bft) O-SO 110 ° 0 min 0,000 mm 0,0 UV-I 62 W/m² 12,9 °C 13,9 °C 0,0 km/h (0 Bft)
10.06.2018 06:19 14,0 °C 94 % 1009,6 hPa 0,0 mm 0,0 km/h (0 Bft) O-SO 110 ° 0 min 0,000 mm 0,0 UV-I 63 W/m² 13,0 °C 14,0 °C 0,0 km/h (0 Bft)
10.06.2018 06:20 14,1 °C 94 % 1009,7 hPa 0,0 mm 0,0 km/h (0 Bft) O-SO 110 ° 0 min 0,000 mm 0,0 UV-I 65 W/m² 13,1 °C 14,1 °C 0,0 km/h (0 Bft)
10.06.2018 06:21 14,1 °C 94 % 1009,6 hPa 0,0 mm 0,0 km/h (0 Bft) O-SO 110 ° 0 min 0,000 mm 0,0 UV-I 67 W/m² 13,1 °C 14,1 °C 0,0 km/h (0 Bft)
10.06.2018 06:22 14,1 °C 94 % 1009,6 hPa 0,0 mm 0,0 km/h (0 Bft) O-SO 110 ° 0 min 0,000 mm 0,0 UV-I 70 W/m² 13,1 °C 14,1 °C 0,0 km/h (0 Bft)
10.06.2018 06:23 14,2 °C 94 % 1009,7 hPa 0,0 mm 0,0 km/h (0 Bft) O-SO 110 ° 0 min 0,000 mm 0,0 UV-I 72 W/m² 13,2 °C 14,2 °C 0,0 km/h (0 Bft)
10.06.2018 06:24 14,2 °C 94 % 1009,7 hPa 0,0 mm 0,0 km/h (0 Bft) O-SO 110 ° 0 min 0,000 mm 0,0 UV-I 74 W/m² 13,2 °C 14,2 °C 0,0 km/h (0 Bft)
10.06.2018 06:25 14,3 °C 94 % 1009,7 hPa 0,0 mm 0,0 km/h (0 Bft) O-SO 110 ° 0 min 0,000 mm 0,0 UV-I 76 W/m² 13,3 °C 14,3 °C 0,0 km/h (0 Bft)
10.06.2018 06:26 14,3 °C 94 % 1009,7 hPa 0,0 mm 0,0 km/h (0 Bft) O-SO 110 ° 0 min 0,000 mm 0,0 UV-I 77 W/m² 13,3 °C 14,3 °C 0,0 km/h (0 Bft)
10.06.2018 06:27 14,4 °C 94 % 1009,7 hPa 0,0 mm 0,0 km/h (0 Bft) O-SO 110 ° 0 min 0,000 mm 0,0 UV-I 81 W/m² 13,4 °C 14,4 °C 0,0 km/h (0 Bft)
10.06.2018 06:28 14,4 °C 94 % 1009,6 hPa 0,0 mm 0,0 km/h (0 Bft) O-SO 110 ° 0 min 0,000 mm 0,0 UV-I 83 W/m² 13,4 °C 14,4 °C 0,0 km/h (0 Bft)
10.06.2018 06:29 14,5 °C 94 % 1009,7 hPa 0,0 mm 0,0 km/h (0 Bft) O-SO 110 ° 0 min 0,000 mm 0,0 UV-I 83 W/m² 13,5 °C 14,5 °C 0,0 km/h (0 Bft)
10.06.2018 06:30 14,6 °C 94 % 1009,7 hPa 0,0 mm 0,0 km/h (0 Bft) O-SO 110 ° 0 min 0,000 mm 0,0 UV-I 84 W/m² 13,6 °C 14,6 °C 0,0 km/h (0 Bft)
10.06.2018 06:31 14,7 °C 94 % 1009,7 hPa 0,0 mm 0,0 km/h (0 Bft) O-SO 110 ° 0 min 0,000 mm 0,0 UV-I 84 W/m² 13,7 °C 14,7 °C 0,0 km/h (0 Bft)
10.06.2018 06:32 14,7 °C 94 % 1009,7 hPa 0,0 mm 0,0 km/h (0 Bft) O-SO 110 ° 0 min 0,000 mm 0,0 UV-I 88 W/m² 13,7 °C 14,7 °C 0,0 km/h (0 Bft)
10.06.2018 06:33 14,8 °C 94 % 1009,7 hPa 0,0 mm 0,0 km/h (0 Bft) O-SO 110 ° 0 min 0,000 mm 0,0 UV-I 93 W/m² 13,8 °C 14,8 °C 0,0 km/h (0 Bft)
10.06.2018 06:34 14,9 °C 94 % 1009,7 hPa 0,0 mm 0,0 km/h (0 Bft) O-SO 110 ° 0 min 0,000 mm 0,0 UV-I 95 W/m² 13,9 °C 14,9 °C 0,0 km/h (0 Bft)
10.06.2018 06:35 15,0 °C 94 % 1009,7 hPa 0,0 mm 0,0 km/h (0 Bft) O-SO 110 ° 0 min 0,000 mm 0,0 UV-I 97 W/m² 14,0 °C 15,0 °C 0,0 km/h (0 Bft)
10.06.2018 06:36 15,1 °C 93 % 1009,7 hPa 0,0 mm 0,0 km/h (0 Bft) O-SO 110 ° 0 min 0,000 mm 0,0 UV-I 98 W/m² 14,0 °C 15,1 °C 0,0 km/h (0 Bft)
10.06.2018 06:37 15,1 °C 93 % 1009,7 hPa 0,0 mm 0,0 km/h (0 Bft) O-SO 110 ° 0 min 0,000 mm 0,0 UV-I 100 W/m² 14,0 °C 15,1 °C 0,0 km/h (0 Bft)
10.06.2018 06:38 15,1 °C 93 % 1009,6 hPa 0,0 mm 0,0 km/h (0 Bft) O-SO 110 ° 0 min 0,000 mm 0,0 UV-I 102 W/m² 14,0 °C 15,1 °C 0,0 km/h (0 Bft)
10.06.2018 06:39 15,0 °C 93 % 1009,7 hPa 0,0 mm 0,0 km/h (0 Bft) O-SO 110 ° 0 min 0,000 mm 0,5 UV-I 104 W/m² 13,9 °C 15,0 °C 0,0 km/h (0 Bft)
10.06.2018 06:40 15,1 °C 93 % 1009,7 hPa 0,0 mm 0,1 km/h (0 Bft) O-SO 110 ° 0 min 0,000 mm 0,5 UV-I 105 W/m² 14,0 °C 15,1 °C 1,6 km/h (1 Bft)
10.06.2018 06:41 15,1 °C 93 % 1009,7 hPa 0,0 mm 0,1 km/h (0 Bft) O-SO 110 ° 0 min 0,000 mm 0,5 UV-I 105 W/m² 14,0 °C 15,1 °C 1,6 km/h (1 Bft)
10.06.2018 06:42 15,1 °C 93 % 1009,7 hPa 0,0 mm 0,0 km/h (0 Bft) O-SO 110 ° 0 min 0,000 mm 0,5 UV-I 107 W/m² 14,0 °C 15,1 °C 0,0 km/h (0 Bft)
10.06.2018 06:43 15,1 °C 93 % 1009,7 hPa 0,0 mm 0,0 km/h (0 Bft) O-SO 110 ° 0 min 0,000 mm 0,5 UV-I 107 W/m² 14,0 °C 15,1 °C 0,0 km/h (0 Bft)
10.06.2018 06:44 15,1 °C 93 % 1009,6 hPa 0,0 mm 0,0 km/h (0 Bft) O-SO 110 ° 0 min 0,000 mm 0,5 UV-I 109 W/m² 14,0 °C 15,1 °C 0,0 km/h (0 Bft)
10.06.2018 06:45 15,1 °C 93 % 1009,6 hPa 0,0 mm 0,0 km/h (0 Bft) O-SO 110 ° 0 min 0,000 mm 0,5 UV-I 113 W/m² 14,0 °C 15,1 °C 0,0 km/h (0 Bft)
10.06.2018 06:46 15,1 °C 93 % 1009,7 hPa 0,0 mm 0,0 km/h (0 Bft) O-SO 110 ° 0 min 0,000 mm 0,5 UV-I 113 W/m² 14,0 °C 15,1 °C 0,0 km/h (0 Bft)
10.06.2018 06:47 15,1 °C 93 % 1009,7 hPa 0,0 mm 0,0 km/h (0 Bft) O-SO 110 ° 0 min 0,000 mm 0,5 UV-I 114 W/m² 14,0 °C 15,1 °C 0,0 km/h (0 Bft)
10.06.2018 06:48 15,1 °C 93 % 1009,7 hPa 0,0 mm 0,0 km/h (0 Bft) O-SO 110 ° 0 min 0,000 mm 0,5 UV-I 118 W/m² 14,0 °C 15,1 °C 0,0 km/h (0 Bft)
10.06.2018 06:49 15,1 °C 93 % 1009,7 hPa 0,0 mm 0,0 km/h (0 Bft) O-SO 110 ° 0 min 0,000 mm 0,6 UV-I 120 W/m² 14,0 °C 15,1 °C 0,0 km/h (0 Bft)
10.06.2018 06:50 15,2 °C 93 % 1009,7 hPa 0,0 mm 0,0 km/h (0 Bft) O-SO 110 ° 0 min 0,000 mm 0,6 UV-I 121 W/m² 14,1 °C 15,2 °C 0,0 km/h (0 Bft)
10.06.2018 06:51 15,2 °C 93 % 1009,7 hPa 0,0 mm 0,0 km/h (0 Bft) O-SO 110 ° 0 min 0,000 mm 0,6 UV-I 128 W/m² 14,1 °C 15,2 °C 0,0 km/h (0 Bft)
10.06.2018 06:52 15,4 °C 92 % 1009,7 hPa 0,0 mm 0,0 km/h (0 Bft) O-SO 110 ° 0 min 0,000 mm 0,6 UV-I 130 W/m² 14,1 °C 15,4 °C 0,0 km/h (0 Bft)
10.06.2018 06:53 15,4 °C 92 % 1009,8 hPa 0,0 mm 0,0 km/h (0 Bft) O-SO 110 ° 0 min 0,000 mm 0,6 UV-I 132 W/m² 14,1 °C 15,4 °C 0,0 km/h (0 Bft)
10.06.2018 06:54 15,6 °C 92 % 1009,8 hPa 0,0 mm 0,0 km/h (0 Bft) O-SO 110 ° 0 min 0,000 mm 0,6 UV-I 135 W/m² 14,3 °C 15,6 °C 0,0 km/h (0 Bft)
10.06.2018 06:55 15,7 °C 92 % 1009,8 hPa 0,0 mm 0,0 km/h (0 Bft) O-SO 110 ° 0 min 0,000 mm 0,6 UV-I 137 W/m² 14,4 °C 15,7 °C 0,0 km/h (0 Bft)
10.06.2018 06:56 15,7 °C 92 % 1009,8 hPa 0,0 mm 0,0 km/h (0 Bft) O-SO 110 ° 0 min 0,000 mm 0,6 UV-I 139 W/m² 14,4 °C 15,7 °C 0,0 km/h (0 Bft)
10.06.2018 06:57 15,7 °C 92 % 1009,8 hPa 0,0 mm 0,0 km/h (0 Bft) O-SO 110 ° 0 min 0,000 mm 0,7 UV-I 144 W/m² 14,4 °C 15,7 °C 0,0 km/h (0 Bft)
10.06.2018 06:58 15,8 °C 92 % 1009,7 hPa 0,0 mm 0,0 km/h (0 Bft) O-SO 110 ° 0 min 0,000 mm 0,7 UV-I 146 W/m² 14,5 °C 15,8 °C 0,0 km/h (0 Bft)
10.06.2018 06:59 15,9 °C 92 % 1009,7 hPa 0,0 mm 0,0 km/h (0 Bft) O-SO 110 ° 0 min 0,000 mm 0,7 UV-I 149 W/m² 14,6 °C 15,9 °C 0,0 km/h (0 Bft)
10.06.2018 07:00 15,9 °C 92 % 1009,7 hPa 0,0 mm 0,0 km/h (0 Bft) O-SO 110 ° 0 min 0,051 mm 0,7 UV-I 153 W/m² 14,6 °C 15,9 °C 0,0 km/h (0 Bft)
10.06.2018 07:01 15,9 °C 92 % 1009,8 hPa 0,0 mm 0,0 km/h (0 Bft) O-SO 110 ° 0 min 0,000 mm 0,7 UV-I 155 W/m² 14,6 °C 15,9 °C 0,0 km/h (0 Bft)
10.06.2018 07:02 15,9 °C 91 % 1009,7 hPa 0,0 mm 0,0 km/h (0 Bft) O-SO 110 ° 0 min 0,000 mm 0,7 UV-I 158 W/m² 14,4 °C 15,9 °C 0,0 km/h (0 Bft)
10.06.2018 07:03 16,0 °C 92 % 1009,7 hPa 0,0 mm 0,0 km/h (0 Bft) O-SO 110 ° 0 min 0,000 mm 0,8 UV-I 162 W/m² 14,7 °C 16,0 °C 0,0 km/h (0 Bft)
10.06.2018 07:04 15,9 °C 91 % 1009,7 hPa 0,0 mm 0,0 km/h (0 Bft) O-SO 110 ° 0 min 0,000 mm 0,8 UV-I 165 W/m² 14,4 °C 15,9 °C 0,0 km/h (0 Bft)
10.06.2018 07:05 15,9 °C 91 % 1009,7 hPa 0,0 mm 0,0 km/h (0 Bft) O-SO 110 ° 0 min 0,000 mm 0,8 UV-I 167 W/m² 14,4 °C 15,9 °C 0,0 km/h (0 Bft)
10.06.2018 07:06 15,9 °C 91 % 1009,7 hPa 0,0 mm 0,0 km/h (0 Bft) O-SO 110 ° 0 min 0,000 mm 0,8 UV-I 169 W/m² 14,4 °C 15,9 °C 0,0 km/h (0 Bft)
10.06.2018 07:07 16,1 °C 91 % 1009,7 hPa 0,0 mm 0,0 km/h (0 Bft) O-SO 110 ° 0 min 0,000 mm 0,8 UV-I 171 W/m² 14,6 °C 16,1 °C 0,0 km/h (0 Bft)
10.06.2018 07:08 16,1 °C 91 % 1009,7 hPa 0,0 mm 0,1 km/h (0 Bft) O-SO 110 ° 0 min 0,000 mm 0,8 UV-I 176 W/m² 14,6 °C 16,1 °C 1,6 km/h (1 Bft)
10.06.2018 07:09 16,1 °C 91 % 1009,7 hPa 0,0 mm 0,0 km/h (0 Bft) O-SO 110 ° 0 min 0,000 mm 0,8 UV-I 178 W/m² 14,6 °C 16,1 °C 0,0 km/h (0 Bft)
10.06.2018 07:10 16,2 °C 91 % 1009,7 hPa 0,0 mm 0,0 km/h (0 Bft) O-SO 110 ° 0 min 0,000 mm 0,9 UV-I 181 W/m² 14,7 °C 16,2 °C 0,0 km/h (0 Bft)
10.06.2018 07:11 16,2 °C 91 % 1009,7 hPa 0,0 mm 0,0 km/h (0 Bft) O-SO 110 ° 0 min 0,000 mm 0,9 UV-I 185 W/m² 14,7 °C 16,2 °C 0,0 km/h (0 Bft)
10.06.2018 07:12 16,3 °C 91 % 1009,7 hPa 0,0 mm 0,5 km/h (0 Bft) O-SO 102 ° 0 min 0,000 mm 0,9 UV-I 188 W/m² 14,8 °C 16,3 °C 1,6 km/h (1 Bft)
10.06.2018 07:13 16,3 °C 91 % 1009,7 hPa 0,0 mm 0,0 km/h (0 Bft) O-SO 102 ° 0 min 0,000 mm 0,9 UV-I 190 W/m² 14,8 °C 16,3 °C 0,0 km/h (0 Bft)
10.06.2018 07:14 16,4 °C 91 % 1009,7 hPa 0,0 mm 2,1 km/h (1 Bft) W 271 ° 0 min 0,000 mm 0,9 UV-I 195 W/m² 14,9 °C 16,4 °C 4,8 km/h (1 Bft)
10.06.2018 07:15 16,4 °C 91 % 1009,7 hPa 0,0 mm 1,5 km/h (1 Bft) W 265 ° 0 min 0,000 mm 0,9 UV-I 199 W/m² 14,9 °C 16,4 °C 4,8 km/h (1 Bft)
10.06.2018 07:16 16,6 °C 90 % 1009,7 hPa 0,0 mm 0,7 km/h (0 Bft) W 265 ° 0 min 0,000 mm 0,9 UV-I 202 W/m² 15,0 °C 16,6 °C 3,2 km/h (1 Bft)
10.06.2018 07:17 16,6 °C 90 % 1009,7 hPa 0,0 mm 0,0 km/h (0 Bft) W 265 ° 0 min 0,000 mm 1,0 UV-I 204 W/m² 15,0 °C 16,6 °C 0,0 km/h (0 Bft)
10.06.2018 07:18 16,6 °C 90 % 1009,6 hPa 0,0 mm 0,0 km/h (0 Bft) W 265 ° 0 min 0,000 mm 1,0 UV-I 209 W/m² 15,0 °C 16,6 °C 0,0 km/h (0 Bft)
10.06.2018 07:19 16,5 °C 90 % 1009,6 hPa 0,0 mm 0,0 km/h (0 Bft) W 265 ° 0 min 0,000 mm 1,0 UV-I 211 W/m² 14,9 °C 16,5 °C 0,0 km/h (0 Bft)
10.06.2018 07:20 16,6 °C 90 % 1009,6 hPa 0,0 mm 0,0 km/h (0 Bft) W 265 ° 0 min 0,000 mm 1,0 UV-I 216 W/m² 15,0 °C 16,6 °C 0,0 km/h (0 Bft)
10.06.2018 07:21 16,6 °C 90 % 1009,6 hPa 0,0 mm 0,0 km/h (0 Bft) W 265 ° 0 min 0,000 mm 1,0 UV-I 218 W/m² 15,0 °C 16,6 °C 0,0 km/h (0 Bft)
10.06.2018 07:22 16,7 °C 90 % 1009,6 hPa 0,0 mm 0,0 km/h (0 Bft) W 265 ° 0 min 0,000 mm 1,0 UV-I 220 W/m² 15,0 °C 16,7 °C 0,0 km/h (0 Bft)
10.06.2018 07:23 16,8 °C 91 % 1009,5 hPa 0,0 mm 0,0 km/h (0 Bft) W 265 ° 0 min 0,000 mm 1,0 UV-I 223 W/m² 15,3 °C 16,8 °C 0,0 km/h (0 Bft)
10.06.2018 07:24 16,9 °C 90 % 1009,6 hPa 0,0 mm 0,0 km/h (0 Bft) W 265 ° 0 min 0,000 mm 1,1 UV-I 225 W/m² 15,2 °C 16,9 °C 0,0 km/h (0 Bft)
10.06.2018 07:25 16,9 °C 89 % 1009,6 hPa 0,0 mm 0,0 km/h (0 Bft) W 265 ° 0 min 0,000 mm 1,1 UV-I 227 W/m² 15,1 °C 16,9 °C 0,0 km/h (0 Bft)
10.06.2018 07:26 16,9 °C 89 % 1009,6 hPa 0,0 mm 0,0 km/h (0 Bft) W 265 ° 0 min 0,000 mm 1,1 UV-I 230 W/m² 15,1 °C 16,9 °C 0,0 km/h (0 Bft)
10.06.2018 07:27 16,9 °C 89 % 1009,6 hPa 0,0 mm 0,0 km/h (0 Bft) W 265 ° 0 min 0,000 mm 1,1 UV-I 234 W/m² 15,1 °C 16,9 °C 0,0 km/h (0 Bft)
10.06.2018 07:28 16,9 °C 89 % 1009,6 hPa 0,0 mm 0,0 km/h (0 Bft) W 265 ° 0 min 0,000 mm 1,1 UV-I 237 W/m² 15,1 °C 16,9 °C 0,0 km/h (0 Bft)
10.06.2018 07:29 16,9 °C 89 % 1009,6 hPa 0,0 mm 0,0 km/h (0 Bft) W 265 ° 0 min 0,000 mm 1,1 UV-I 241 W/m² 15,1 °C 16,9 °C 0,0 km/h (0 Bft)
10.06.2018 07:30 17,0 °C 88 % 1009,6 hPa 0,0 mm 0,0 km/h (0 Bft) W 265 ° 0 min 0,000 mm 1,2 UV-I 243 W/m² 15,0 °C 17,0 °C 0,0 km/h (0 Bft)
10.06.2018 07:31 17,1 °C 88 % 1009,6 hPa 0,0 mm 0,0 km/h (0 Bft) W 265 ° 0 min 0,000 mm 1,2 UV-I 244 W/m² 15,1 °C 17,1 °C 0,0 km/h (0 Bft)
10.06.2018 07:32 17,1 °C 88 % 1009,6 hPa 0,0 mm 0,1 km/h (0 Bft) W 265 ° 0 min 0,000 mm 1,2 UV-I 250 W/m² 15,1 °C 17,1 °C 1,6 km/h (1 Bft)
10.06.2018 07:33 17,1 °C 89 % 1009,7 hPa 0,0 mm 0,0 km/h (0 Bft) W 265 ° 0 min 0,000 mm 1,2 UV-I 251 W/m² 15,3 °C 17,1 °C 0,0 km/h (0 Bft)
10.06.2018 07:34 17,1 °C 89 % 1009,6 hPa 0,0 mm 0,0 km/h (0 Bft) W 265 ° 0 min 0,000 mm 1,2 UV-I 255 W/m² 15,3 °C 17,1 °C 0,0 km/h (0 Bft)
10.06.2018 07:35 17,1 °C 88 % 1009,6 hPa 0,0 mm 0,0 km/h (0 Bft) W 265 ° 0 min 0,000 mm 1,3 UV-I 257 W/m² 15,1 °C 17,1 °C 0,0 km/h (0 Bft)
10.06.2018 07:36 17,1 °C 88 % 1009,6 hPa 0,0 mm 0,0 km/h (0 Bft) W 265 ° 0 min 0,000 mm 1,3 UV-I 260 W/m² 15,1 °C 17,1 °C 0,0 km/h (0 Bft)
10.06.2018 07:37 17,1 °C 88 % 1009,6 hPa 0,0 mm 0,0 km/h (0 Bft) W 265 ° 0 min 0,000 mm 1,3 UV-I 264 W/m² 15,1 °C 17,1 °C 0,0 km/h (0 Bft)
10.06.2018 07:38 17,2 °C 88 % 1009,6 hPa 0,0 mm 0,0 km/h (0 Bft) W 265 ° 0 min 0,000 mm 1,3 UV-I 267 W/m² 15,2 °C 17,2 °C 0,0 km/h (0 Bft)
10.06.2018 07:39 17,3 °C 88 % 1009,6 hPa 0,0 mm 0,0 km/h (0 Bft) W 265 ° 0 min 0,000 mm 1,3 UV-I 271 W/m² 15,3 °C 17,3 °C 0,0 km/h (0 Bft)
10.06.2018 07:40 17,4 °C 88 % 1009,6 hPa 0,0 mm 0,0 km/h (0 Bft) W 265 ° 0 min 0,000 mm 1,3 UV-I 272 W/m² 15,4 °C 17,4 °C 0,0 km/h (0 Bft)
10.06.2018 07:41 17,5 °C 87 % 1009,6 hPa 0,0 mm 0,0 km/h (0 Bft) W 265 ° 0 min 0,000 mm 1,3 UV-I 276 W/m² 15,3 °C 17,5 °C 0,0 km/h (0 Bft)
10.06.2018 07:42 17,4 °C 87 % 1009,6 hPa 0,0 mm 0,0 km/h (0 Bft) W 265 ° 0 min 0,000 mm 1,4 UV-I 278 W/m² 15,2 °C 17,4 °C 0,0 km/h (0 Bft)
10.06.2018 07:43 17,4 °C 87 % 1009,6 hPa 0,0 mm 0,0 km/h (0 Bft) W 265 ° 0 min 0,000 mm 1,4 UV-I 283 W/m² 15,2 °C 17,4 °C 0,0 km/h (0 Bft)
10.06.2018 07:44 17,5 °C 87 % 1009,6 hPa 0,0 mm 0,0 km/h (0 Bft) W 265 ° 0 min 0,000 mm 1,4 UV-I 287 W/m² 15,3 °C 17,5 °C 0,0 km/h (0 Bft)
10.06.2018 07:45 17,6 °C 87 % 1009,5 hPa 0,0 mm 0,0 km/h (0 Bft) W 265 ° 0 min 0,000 mm 1,4 UV-I 288 W/m² 15,4 °C 17,6 °C 0,0 km/h (0 Bft)
10.06.2018 07:46 17,7 °C 88 % 1009,6 hPa 0,0 mm 0,0 km/h (0 Bft) W 265 ° 0 min 0,000 mm 1,4 UV-I 290 W/m² 15,7 °C 17,7 °C 0,0 km/h (0 Bft)
10.06.2018 07:47 17,8 °C 86 % 1009,6 hPa 0,0 mm 0,0 km/h (0 Bft) W 265 ° 0 min 0,000 mm 1,5 UV-I 294 W/m² 15,4 °C 17,8 °C 0,0 km/h (0 Bft)
10.06.2018 07:48 17,8 °C 87 % 1009,6 hPa 0,0 mm 0,0 km/h (0 Bft) W 265 ° 0 min 0,000 mm 1,5 UV-I 295 W/m² 15,6 °C 17,8 °C 0,0 km/h (0 Bft)
10.06.2018 07:49 17,8 °C 86 % 1009,6 hPa 0,0 mm 0,0 km/h (0 Bft) W 265 ° 0 min 0,000 mm 1,5 UV-I 299 W/m² 15,4 °C 17,8 °C 0,0 km/h (0 Bft)
10.06.2018 07:50 17,8 °C 87 % 1009,6 hPa 0,0 mm 0,0 km/h (0 Bft) W 265 ° 0 min 0,000 mm 1,5 UV-I 306 W/m² 15,6 °C 17,8 °C 0,0 km/h (0 Bft)
10.06.2018 07:51 17,8 °C 87 % 1009,5 hPa 0,0 mm 0,0 km/h (0 Bft) W 265 ° 0 min 0,000 mm 1,6 UV-I 308 W/m² 15,6 °C 17,8 °C 0,0 km/h (0 Bft)
10.06.2018 07:52 17,9 °C 86 % 1009,6 hPa 0,0 mm 0,0 km/h (0 Bft) W 265 ° 0 min 0,000 mm 1,6 UV-I 311 W/m² 15,5 °C 17,9 °C 0,0 km/h (0 Bft)
10.06.2018 07:53 18,1 °C 86 % 1009,6 hPa 0,0 mm 0,0 km/h (0 Bft) W 265 ° 0 min 0,000 mm 1,6 UV-I 315 W/m² 15,7 °C 18,1 °C 0,0 km/h (0 Bft)
10.06.2018 07:54 18,2 °C 87 % 1009,6 hPa 0,0 mm 0,0 km/h (0 Bft) W 265 ° 0 min 0,000 mm 1,6 UV-I 316 W/m² 16,0 °C 18,2 °C 0,0 km/h (0 Bft)
10.06.2018 07:55 18,2 °C 85 % 1009,6 hPa 0,0 mm 0,0 km/h (0 Bft) W 265 ° 0 min 0,000 mm 1,6 UV-I 320 W/m² 15,6 °C 18,2 °C 0,0 km/h (0 Bft)
10.06.2018 07:56 18,4 °C 87 % 1009,7 hPa 0,0 mm 0,1 km/h (0 Bft) W 265 ° 0 min 0,000 mm 1,7 UV-I 322 W/m² 16,2 °C 18,4 °C 1,6 km/h (1 Bft)
10.06.2018 07:57 18,4 °C 85 % 1009,7 hPa 0,0 mm 0,6 km/h (0 Bft) W 265 ° 0 min 0,000 mm 1,7 UV-I 323 W/m² 15,8 °C 18,4 °C 1,6 km/h (1 Bft)
10.06.2018 07:58 18,4 °C 84 % 1009,7 hPa 0,0 mm 0,0 km/h (0 Bft) W 265 ° 0 min 0,000 mm 1,7 UV-I 327 W/m² 15,6 °C 18,4 °C 0,0 km/h (0 Bft)
10.06.2018 07:59 18,4 °C 85 % 1009,7 hPa 0,0 mm 0,6 km/h (0 Bft) W 265 ° 0 min 0,000 mm 1,7 UV-I 329 W/m² 15,8 °C 18,4 °C 3,2 km/h (1 Bft)
10.06.2018 08:00 18,6 °C 85 % 1009,7 hPa 0,0 mm 3,0 km/h (1 Bft) W 265 ° 0 min 0,127 mm 1,7 UV-I 330 W/m² 16,0 °C 18,6 °C 4,8 km/h (1 Bft)
10.06.2018 08:01 18,7 °C 83 % 1009,7 hPa 0,0 mm 2,2 km/h (1 Bft) W 265 ° 0 min 0,000 mm 1,7 UV-I 336 W/m² 15,8 °C 18,7 °C 4,8 km/h (1 Bft)
10.06.2018 08:02 18,8 °C 82 % 1009,6 hPa 0,0 mm 1,7 km/h (1 Bft) W-SW 252 ° 0 min 0,000 mm 1,8 UV-I 338 W/m² 15,7 °C 18,8 °C 3,2 km/h (1 Bft)
10.06.2018 08:03 19,0 °C 82 % 1009,7 hPa 0,0 mm 1,6 km/h (1 Bft) W-SW 253 ° 0 min 0,000 mm 1,8 UV-I 339 W/m² 15,9 °C 19,0 °C 3,2 km/h (1 Bft)
10.06.2018 08:04 19,1 °C 82 % 1009,7 hPa 0,0 mm 1,5 km/h (1 Bft) W-SW 253 ° 0 min 0,000 mm 1,8 UV-I 343 W/m² 16,0 °C 19,1 °C 3,2 km/h (1 Bft)
10.06.2018 08:05 19,0 °C 82 % 1009,7 hPa 0,0 mm 0,0 km/h (0 Bft) W-SW 253 ° 0 min 0,000 mm 1,8 UV-I 345 W/m² 15,9 °C 19,0 °C 0,0 km/h (0 Bft)
10.06.2018 08:06 18,8 °C 84 % 1009,7 hPa 0,0 mm 0,0 km/h (0 Bft) W-SW 253 ° 0 min 0,000 mm 1,8 UV-I 346 W/m² 16,0 °C 18,8 °C 0,0 km/h (0 Bft)
10.06.2018 08:07 18,8 °C 83 % 1009,7 hPa 0,0 mm 0,3 km/h (0 Bft) W-SW 253 ° 0 min 0,000 mm 1,9 UV-I 350 W/m² 15,8 °C 18,8 °C 1,6 km/h (1 Bft)
10.06.2018 08:08 18,9 °C 85 % 1009,6 hPa 0,0 mm 0,3 km/h (0 Bft) W-SW 253 ° 0 min 0,000 mm 1,9 UV-I 352 W/m² 16,3 °C 18,9 °C 1,6 km/h (1 Bft)
10.06.2018 08:09 18,8 °C 84 % 1009,6 hPa 0,0 mm 1,5 km/h (1 Bft) W-SW 253 ° 0 min 0,000 mm 1,9 UV-I 353 W/m² 16,0 °C 18,8 °C 3,2 km/h (1 Bft)
10.06.2018 08:10 18,7 °C 84 % 1009,6 hPa 0,0 mm 0,0 km/h (0 Bft) W-SW 253 ° 0 min 0,000 mm 1,9 UV-I 355 W/m² 15,9 °C 18,7 °C 0,0 km/h (0 Bft)
10.06.2018 08:11 18,7 °C 86 % 1009,6 hPa 0,0 mm 0,0 km/h (0 Bft) W-SW 253 ° 0 min 0,000 mm 1,9 UV-I 359 W/m² 16,3 °C 18,7 °C 0,0 km/h (0 Bft)
10.06.2018 08:12 18,9 °C 85 % 1009,7 hPa 0,0 mm 0,1 km/h (0 Bft) W-SW 253 ° 0 min 0,000 mm 2,0 UV-I 360 W/m² 16,3 °C 18,9 °C 1,6 km/h (1 Bft)
10.06.2018 08:13 18,9 °C 85 % 1009,7 hPa 0,0 mm 0,0 km/h (0 Bft) W-SW 253 ° 0 min 0,000 mm 2,0 UV-I 367 W/m² 16,3 °C 18,9 °C 0,0 km/h (0 Bft)
10.06.2018 08:14 19,1 °C 87 % 1009,7 hPa 0,0 mm 0,0 km/h (0 Bft) W-SW 253 ° 0 min 0,000 mm 2,0 UV-I 371 W/m² 16,9 °C 19,1 °C 0,0 km/h (0 Bft)
10.06.2018 08:15 19,1 °C 84 % 1009,7 hPa 0,0 mm 0,0 km/h (0 Bft) W-SW 253 ° 0 min 0,000 mm 2,1 UV-I 376 W/m² 16,3 °C 19,1 °C 0,0 km/h (0 Bft)
10.06.2018 08:16 19,1 °C 81 % 1009,7 hPa 0,0 mm 0,0 km/h (0 Bft) W-SW 253 ° 0 min 0,000 mm 2,1 UV-I 378 W/m² 15,8 °C 19,1 °C 0,0 km/h (0 Bft)
10.06.2018 08:17 19,1 °C 80 % 1009,7 hPa 0,0 mm 0,0 km/h (0 Bft) W-SW 253 ° 0 min 0,000 mm 2,1 UV-I 380 W/m² 15,6 °C 19,1 °C 0,0 km/h (0 Bft)
10.06.2018 08:18 19,1 °C 82 % 1009,7 hPa 0,0 mm 0,0 km/h (0 Bft) W-SW 253 ° 0 min 0,000 mm 2,1 UV-I 383 W/m² 16,0 °C 19,1 °C 0,0 km/h (0 Bft)
10.06.2018 08:19 19,2 °C 83 % 1009,7 hPa 0,0 mm 0,0 km/h (0 Bft) W-SW 253 ° 0 min 0,000 mm 2,1 UV-I 387 W/m² 16,2 °C 19,2 °C 0,0 km/h (0 Bft)
10.06.2018 08:20 19,2 °C 82 % 1009,8 hPa 0,0 mm 0,0 km/h (0 Bft) W-SW 253 ° 0 min 0,000 mm 2,2 UV-I 390 W/m² 16,0 °C 19,2 °C 0,0 km/h (0 Bft)
10.06.2018 08:21 19,2 °C 82 % 1009,7 hPa 0,0 mm 0,0 km/h (0 Bft) W-SW 253 ° 0 min 0,000 mm 2,2 UV-I 392 W/m² 16,0 °C 19,2 °C 0,0 km/h (0 Bft)
10.06.2018 08:22 19,2 °C 83 % 1009,7 hPa 0,0 mm 0,0 km/h (0 Bft) W-SW 253 ° 0 min 0,000 mm 2,2 UV-I 394 W/m² 16,2 °C 19,2 °C 0,0 km/h (0 Bft)
10.06.2018 08:23 19,2 °C 84 % 1009,7 hPa 0,0 mm 0,0 km/h (0 Bft) W-SW 253 ° 0 min 0,000 mm 2,2 UV-I 396 W/m² 16,4 °C 19,2 °C 0,0 km/h (0 Bft)
10.06.2018 08:24 19,3 °C 84 % 1009,7 hPa 0,0 mm 0,1 km/h (0 Bft) W-SW 253 ° 0 min 0,000 mm 2,2 UV-I 399 W/m² 16,5 °C 19,3 °C 1,6 km/h (1 Bft)
10.06.2018 08:25 19,4 °C 81 % 1009,7 hPa 0,0 mm 0,0 km/h (0 Bft) W-SW 253 ° 0 min 0,000 mm 2,2 UV-I 406 W/m² 16,1 °C 19,4 °C 0,0 km/h (0 Bft)
10.06.2018 08:26 19,4 °C 81 % 1009,7 hPa 0,0 mm 0,0 km/h (0 Bft) W-SW 253 ° 0 min 0,000 mm 2,3 UV-I 408 W/m² 16,1 °C 19,4 °C 0,0 km/h (0 Bft)
10.06.2018 08:27 19,5 °C 82 % 1009,7 hPa 0,0 mm 0,0 km/h (0 Bft) W-SW 253 ° 0 min 0,000 mm 2,3 UV-I 410 W/m² 16,3 °C 19,5 °C 0,0 km/h (0 Bft)
10.06.2018 08:28 19,6 °C 83 % 1009,7 hPa 0,0 mm 0,0 km/h (0 Bft) W-SW 253 ° 0 min 0,000 mm 2,3 UV-I 411 W/m² 16,6 °C 19,6 °C 0,0 km/h (0 Bft)
10.06.2018 08:29 19,6 °C 81 % 1009,7 hPa 0,0 mm 0,0 km/h (0 Bft) W-SW 253 ° 0 min 0,000 mm 2,3 UV-I 413 W/m² 16,2 °C 19,6 °C 0,0 km/h (0 Bft)
10.06.2018 08:30 19,7 °C 79 % 1009,7 hPa 0,0 mm 0,3 km/h (0 Bft) W-SW 253 ° 0 min 0,000 mm 2,4 UV-I 418 W/m² 16,0 °C 19,7 °C 1,6 km/h (1 Bft)
10.06.2018 08:31 19,7 °C 79 % 1009,7 hPa 0,0 mm 0,0 km/h (0 Bft) W-SW 253 ° 0 min 0,000 mm 2,4 UV-I 422 W/m² 16,0 °C 19,7 °C 0,0 km/h (0 Bft)
10.06.2018 08:32 19,7 °C 79 % 1009,7 hPa 0,0 mm 0,2 km/h (0 Bft) W-SW 253 ° 0 min 0,000 mm 2,4 UV-I 424 W/m² 16,0 °C 19,7 °C 1,6 km/h (1 Bft)
10.06.2018 08:33 19,6 °C 80 % 1009,7 hPa 0,0 mm 0,0 km/h (0 Bft) W-SW 253 ° 0 min 0,000 mm 2,4 UV-I 427 W/m² 16,1 °C 19,6 °C 0,0 km/h (0 Bft)
10.06.2018 08:34 19,6 °C 81 % 1009,7 hPa 0,0 mm 0,0 km/h (0 Bft) W-SW 253 ° 0 min 0,000 mm 2,5 UV-I 429 W/m² 16,2 °C 19,6 °C 0,0 km/h (0 Bft)
10.06.2018 08:35 19,7 °C 79 % 1009,7 hPa 0,0 mm 0,0 km/h (0 Bft) W-SW 253 ° 0 min 0,000 mm 2,5 UV-I 432 W/m² 16,0 °C 19,7 °C 0,0 km/h (0 Bft)
10.06.2018 08:36 19,6 °C 79 % 1009,7 hPa 0,0 mm 0,0 km/h (0 Bft) W-SW 253 ° 0 min 0,000 mm 2,5 UV-I 438 W/m² 15,9 °C 19,6 °C 0,0 km/h (0 Bft)
10.06.2018 08:37 19,6 °C 81 % 1009,7 hPa 0,0 mm 0,0 km/h (0 Bft) W-SW 253 ° 0 min 0,000 mm 2,6 UV-I 441 W/m² 16,2 °C 19,6 °C 0,0 km/h (0 Bft)
10.06.2018 08:38 19,6 °C 80 % 1009,7 hPa 0,0 mm 0,0 km/h (0 Bft) W-SW 253 ° 0 min 0,000 mm 2,6 UV-I 443 W/m² 16,1 °C 19,6 °C 0,0 km/h (0 Bft)
10.06.2018 08:39 19,7 °C 80 % 1009,7 hPa 0,0 mm 0,0 km/h (0 Bft) W-SW 253 ° 0 min 0,000 mm 2,6 UV-I 445 W/m² 16,1 °C 19,7 °C 0,0 km/h (0 Bft)
10.06.2018 08:40 19,8 °C 79 % 1009,7 hPa 0,0 mm 0,0 km/h (0 Bft) W-SW 253 ° 0 min 0,000 mm 2,6 UV-I 446 W/m² 16,0 °C 19,8 °C 0,0 km/h (0 Bft)
10.06.2018 08:41 19,8 °C 79 % 1009,8 hPa 0,0 mm 0,0 km/h (0 Bft) W-SW 253 ° 0 min 0,000 mm 2,6 UV-I 448 W/m² 16,0 °C 19,8 °C 0,0 km/h (0 Bft)
10.06.2018 08:42 19,8 °C 79 % 1009,7 hPa 0,0 mm 0,0 km/h (0 Bft) W-SW 253 ° 0 min 0,000 mm 2,6 UV-I 454 W/m² 16,0 °C 19,8 °C 0,0 km/h (0 Bft)
10.06.2018 08:43 19,8 °C 79 % 1009,7 hPa 0,0 mm 0,0 km/h (0 Bft) W-SW 253 ° 0 min 0,000 mm 2,7 UV-I 455 W/m² 16,0 °C 19,8 °C 0,0 km/h (0 Bft)
10.06.2018 08:44 19,9 °C 77 % 1009,7 hPa 0,0 mm 0,0 km/h (0 Bft) W-SW 253 ° 0 min 0,000 mm 2,7 UV-I 457 W/m² 15,7 °C 19,9 °C 0,0 km/h (0 Bft)
10.06.2018 08:45 20,1 °C 77 % 1009,7 hPa 0,0 mm 1,3 km/h (1 Bft) W-SW 253 ° 0 min 0,000 mm 2,7 UV-I 459 W/m² 15,9 °C 20,1 °C 3,2 km/h (1 Bft)
10.06.2018 08:46 20,2 °C 76 % 1009,7 hPa 0,0 mm 1,3 km/h (1 Bft) W-SW 253 ° 0 min 0,000 mm 2,7 UV-I 461 W/m² 15,8 °C 20,2 °C 3,2 km/h (1 Bft)
10.06.2018 08:47 20,4 °C 75 % 1009,7 hPa 0,0 mm 1,6 km/h (1 Bft) W-SW 253 ° 0 min 0,000 mm 2,8 UV-I 464 W/m² 15,8 °C 20,4 °C 3,2 km/h (1 Bft)
10.06.2018 08:48 20,6 °C 75 % 1009,7 hPa 0,0 mm 0,9 km/h (0 Bft) W-SW 253 ° 0 min 0,000 mm 2,8 UV-I 471 W/m² 16,0 °C 20,6 °C 1,6 km/h (1 Bft)
10.06.2018 08:49 20,6 °C 73 % 1009,7 hPa 0,0 mm 0,1 km/h (0 Bft) W-SW 253 ° 0 min 0,000 mm 2,8 UV-I 473 W/m² 15,6 °C 20,6 °C 1,6 km/h (1 Bft)
10.06.2018 08:50 20,7 °C 73 % 1009,7 hPa 0,0 mm 0,1 km/h (0 Bft) W-SW 253 ° 0 min 0,000 mm 2,9 UV-I 476 W/m² 15,7 °C 20,7 °C 1,6 km/h (1 Bft)
10.06.2018 08:51 20,8 °C 76 % 1009,7 hPa 0,0 mm 0,1 km/h (0 Bft) W-SW 253 ° 0 min 0,000 mm 2,9 UV-I 476 W/m² 16,4 °C 20,8 °C 1,6 km/h (1 Bft)
10.06.2018 08:52 20,8 °C 73 % 1009,7 hPa 0,0 mm 0,7 km/h (0 Bft) W-SW 253 ° 0 min 0,000 mm 2,9 UV-I 478 W/m² 15,8 °C 20,8 °C 1,6 km/h (1 Bft)
10.06.2018 08:53 20,8 °C 75 % 1009,7 hPa 0,0 mm 1,2 km/h (1 Bft) W-SW 254 ° 0 min 0,000 mm 2,9 UV-I 482 W/m² 16,2 °C 20,8 °C 3,2 km/h (1 Bft)
10.06.2018 08:54 20,8 °C 77 % 1009,7 hPa 0,0 mm 0,0 km/h (0 Bft) W-SW 254 ° 0 min 0,000 mm 2,9 UV-I 487 W/m² 16,6 °C 20,8 °C 0,0 km/h (0 Bft)
10.06.2018 08:55 20,7 °C 77 % 1009,7 hPa 0,0 mm 0,1 km/h (0 Bft) W-SW 254 ° 0 min 0,000 mm 3,0 UV-I 490 W/m² 16,5 °C 20,7 °C 1,6 km/h (1 Bft)
10.06.2018 08:56 20,7 °C 76 % 1009,7 hPa 0,0 mm 0,0 km/h (0 Bft) W-SW 254 ° 0 min 0,000 mm 3,0 UV-I 492 W/m² 16,3 °C 20,7 °C 0,0 km/h (0 Bft)
10.06.2018 08:57 20,6 °C 75 % 1009,8 hPa 0,0 mm 0,0 km/h (0 Bft) W-SW 254 ° 0 min 0,000 mm 3,0 UV-I 494 W/m² 16,0 °C 20,6 °C 0,0 km/h (0 Bft)
10.06.2018 08:58 20,4 °C 75 % 1009,8 hPa 0,0 mm 0,1 km/h (0 Bft) W-SW 254 ° 0 min 0,000 mm 3,1 UV-I 497 W/m² 15,8 °C 20,4 °C 1,6 km/h (1 Bft)
10.06.2018 08:59 20,4 °C 76 % 1009,7 hPa 0,0 mm 0,0 km/h (0 Bft) W-SW 254 ° 0 min 0,000 mm 3,1 UV-I 499 W/m² 16,0 °C 20,4 °C 0,0 km/h (0 Bft)
10.06.2018 09:00 20,4 °C 78 % 1009,7 hPa 0,0 mm 0,1 km/h (0 Bft) W-SW 254 ° 0 min 0,000 mm 3,1 UV-I 504 W/m² 16,4 °C 20,4 °C 1,6 km/h (1 Bft)
10.06.2018 09:01 20,5 °C 79 % 1009,7 hPa 0,0 mm 0,8 km/h (0 Bft) W-SW 254 ° 0 min 0,228 mm 3,1 UV-I 506 W/m² 16,7 °C 20,5 °C 1,6 km/h (1 Bft)
10.06.2018 09:02 20,5 °C 76 % 1009,7 hPa 0,0 mm 0,7 km/h (0 Bft) W-SW 254 ° 0 min 0,000 mm 3,1 UV-I 510 W/m² 16,1 °C 20,5 °C 1,6 km/h (1 Bft)
10.06.2018 09:03 20,4 °C 77 % 1009,7 hPa 0,0 mm 1,4 km/h (1 Bft) W-SW 254 ° 0 min 0,000 mm 3,2 UV-I 513 W/m² 16,2 °C 20,4 °C 1,6 km/h (1 Bft)
10.06.2018 09:04 20,4 °C 76 % 1009,7 hPa 0,0 mm 0,5 km/h (0 Bft) W-SW 254 ° 0 min 0,000 mm 3,2 UV-I 515 W/m² 16,0 °C 20,4 °C 1,6 km/h (1 Bft)
10.06.2018 09:05 20,4 °C 78 % 1009,8 hPa 0,0 mm 2,5 km/h (1 Bft) W-NW 299 ° 0 min 0,000 mm 3,2 UV-I 520 W/m² 16,4 °C 20,4 °C 3,2 km/h (1 Bft)
10.06.2018 09:06 20,6 °C 78 % 1009,8 hPa 0,0 mm 1,5 km/h (1 Bft) W-NW 299 ° 0 min 0,000 mm 3,2 UV-I 522 W/m² 16,6 °C 20,6 °C 1,6 km/h (1 Bft)
10.06.2018 09:07 20,8 °C 78 % 1009,8 hPa 0,0 mm 0,9 km/h (0 Bft) W-NW 299 ° 0 min 0,000 mm 3,3 UV-I 524 W/m² 16,8 °C 20,8 °C 1,6 km/h (1 Bft)
10.06.2018 09:08 21,1 °C 73 % 1009,8 hPa 0,0 mm 1,0 km/h (0 Bft) W-NW 299 ° 0 min 0,000 mm 3,3 UV-I 526 W/m² 16,1 °C 21,1 °C 3,2 km/h (1 Bft)
10.06.2018 09:09 21,2 °C 77 % 1009,7 hPa 0,0 mm 1,0 km/h (0 Bft) W-NW 299 ° 0 min 0,000 mm 3,3 UV-I 527 W/m² 17,0 °C 21,2 °C 3,2 km/h (1 Bft)
10.06.2018 09:10 21,4 °C 74 % 1009,7 hPa 0,0 mm 0,9 km/h (0 Bft) W-NW 299 ° 0 min 0,000 mm 3,4 UV-I 529 W/m² 16,6 °C 21,4 °C 3,2 km/h (1 Bft)
10.06.2018 09:11 21,4 °C 73 % 1009,7 hPa 0,0 mm 2,7 km/h (1 Bft) W-NW 299 ° 0 min 0,000 mm 3,4 UV-I 534 W/m² 16,4 °C 21,4 °C 4,8 km/h (1 Bft)
10.06.2018 09:12 21,6 °C 73 % 1009,7 hPa 0,0 mm 0,4 km/h (0 Bft) W-NW 299 ° 0 min 0,000 mm 3,4 UV-I 536 W/m² 16,5 °C 21,6 °C 1,6 km/h (1 Bft)
10.06.2018 09:13 21,6 °C 72 % 1009,7 hPa 0,0 mm 4,1 km/h (1 Bft) NW 309 ° 0 min 0,000 mm 3,5 UV-I 540 W/m² 16,3 °C 21,6 °C 6,4 km/h (2 Bft)
10.06.2018 09:14 21,6 °C 74 % 1009,7 hPa 0,0 mm 4,3 km/h (1 Bft) N 355 ° 0 min 0,000 mm 3,5 UV-I 541 W/m² 16,8 °C 21,6 °C 4,8 km/h (1 Bft)
10.06.2018 09:15 21,6 °C 73 % 1009,8 hPa 0,0 mm 3,6 km/h (1 Bft) N 360 ° 0 min 0,000 mm 3,5 UV-I 543 W/m² 16,5 °C 21,6 °C 4,8 km/h (1 Bft)
10.06.2018 09:16 21,6 °C 73 % 1009,8 hPa 0,0 mm 1,7 km/h (1 Bft) NO 46 ° 0 min 0,000 mm 3,5 UV-I 543 W/m² 16,5 °C 21,6 °C 3,2 km/h (1 Bft)
10.06.2018 09:17 21,6 °C 73 % 1009,7 hPa 0,0 mm 1,0 km/h (0 Bft) NO 46 ° 0 min 0,000 mm 3,5 UV-I 547 W/m² 16,5 °C 21,6 °C 3,2 km/h (1 Bft)
10.06.2018 09:18 21,7 °C 74 % 1009,7 hPa 0,0 mm 1,0 km/h (0 Bft) NO 46 ° 0 min 0,000 mm 3,6 UV-I 550 W/m² 16,9 °C 21,7 °C 1,6 km/h (1 Bft)
10.06.2018 09:19 21,8 °C 73 % 1009,7 hPa 0,0 mm 1,6 km/h (1 Bft) N-NO 23 ° 0 min 0,000 mm 3,6 UV-I 555 W/m² 16,7 °C 21,8 °C 4,8 km/h (1 Bft)
10.06.2018 09:20 21,9 °C 75 % 1009,7 hPa 0,0 mm 4,5 km/h (1 Bft) NW 326 ° 0 min 0,000 mm 3,6 UV-I 559 W/m² 17,3 °C 21,9 °C 6,4 km/h (2 Bft)
10.06.2018 09:21 22,1 °C 73 % 1009,7 hPa 0,0 mm 3,2 km/h (1 Bft) NW 326 ° 0 min 0,000 mm 3,6 UV-I 561 W/m² 17,0 °C 22,1 °C 4,8 km/h (1 Bft)
10.06.2018 09:22 22,1 °C 73 % 1009,7 hPa 0,0 mm 0,5 km/h (0 Bft) NW 326 ° 0 min 0,000 mm 3,7 UV-I 564 W/m² 17,0 °C 22,1 °C 1,6 km/h (1 Bft)
10.06.2018 09:23 22,0 °C 72 % 1009,7 hPa 0,0 mm 1,6 km/h (1 Bft) NW 326 ° 0 min 0,000 mm 3,7 UV-I 568 W/m² 16,7 °C 22,0 °C 4,8 km/h (1 Bft)
10.06.2018 09:24 21,9 °C 71 % 1009,7 hPa 0,0 mm 1,0 km/h (0 Bft) NW 326 ° 0 min 0,000 mm 3,7 UV-I 568 W/m² 16,4 °C 21,9 °C 3,2 km/h (1 Bft)
10.06.2018 09:25 21,8 °C 71 % 1009,7 hPa 0,0 mm 3,7 km/h (1 Bft) N-NW 327 ° 0 min 0,000 mm 3,7 UV-I 570 W/m² 16,3 °C 21,8 °C 6,4 km/h (2 Bft)
10.06.2018 09:26 21,8 °C 72 % 1009,7 hPa 0,0 mm 2,9 km/h (1 Bft) N-NW 327 ° 0 min 0,000 mm 3,8 UV-I 573 W/m² 16,5 °C 21,8 °C 6,4 km/h (2 Bft)
10.06.2018 09:27 21,8 °C 73 % 1009,7 hPa 0,0 mm 0,7 km/h (0 Bft) N-NW 327 ° 0 min 0,000 mm 3,8 UV-I 575 W/m² 16,7 °C 21,8 °C 3,2 km/h (1 Bft)
10.06.2018 09:28 21,8 °C 70 % 1009,7 hPa 0,0 mm 0,9 km/h (0 Bft) N-NW 327 ° 0 min 0,000 mm 3,8 UV-I 578 W/m² 16,1 °C 21,8 °C 3,2 km/h (1 Bft)
10.06.2018 09:29 21,8 °C 70 % 1009,7 hPa 0,0 mm 2,5 km/h (1 Bft) N-NW 327 ° 0 min 0,000 mm 3,8 UV-I 582 W/m² 16,1 °C 21,8 °C 4,8 km/h (1 Bft)
10.06.2018 09:30 21,7 °C 71 % 1009,7 hPa 0,0 mm 1,9 km/h (1 Bft) NW 317 ° 0 min 0,000 mm 3,9 UV-I 584 W/m² 16,2 °C 21,7 °C 4,8 km/h (1 Bft)
10.06.2018 09:31 21,6 °C 70 % 1009,7 hPa 0,0 mm 0,3 km/h (0 Bft) NW 317 ° 0 min 0,000 mm 3,9 UV-I 585 W/m² 15,9 °C 21,6 °C 1,6 km/h (1 Bft)
10.06.2018 09:32 21,5 °C 69 % 1009,7 hPa 0,0 mm 0,5 km/h (0 Bft) N-NW 347 ° 0 min 0,000 mm 3,9 UV-I 589 W/m² 15,6 °C 21,5 °C 4,8 km/h (1 Bft)
10.06.2018 09:33 21,6 °C 72 % 1009,7 hPa 0,0 mm 2,9 km/h (1 Bft) N-NO 16 ° 0 min 0,000 mm 3,9 UV-I 591 W/m² 16,3 °C 21,6 °C 4,8 km/h (1 Bft)
10.06.2018 09:34 21,6 °C 73 % 1009,7 hPa 0,0 mm 2,7 km/h (1 Bft) NO 48 ° 0 min 0,000 mm 4,0 UV-I 594 W/m² 16,5 °C 21,6 °C 4,8 km/h (1 Bft)
10.06.2018 09:35 21,6 °C 72 % 1009,7 hPa 0,0 mm 2,1 km/h (1 Bft) NO 47 ° 1 min 0,000 mm 4,0 UV-I 603 W/m² 16,3 °C 21,6 °C 3,2 km/h (1 Bft)
10.06.2018 09:36 21,6 °C 72 % 1009,7 hPa 0,0 mm 1,9 km/h (1 Bft) NO 47 ° 1 min 0,000 mm 4,0 UV-I 608 W/m² 16,3 °C 21,6 °C 3,2 km/h (1 Bft)
10.06.2018 09:37 21,5 °C 74 % 1009,7 hPa 0,0 mm 1,8 km/h (1 Bft) NO 47 ° 1 min 0,000 mm 4,1 UV-I 617 W/m² 16,7 °C 21,5 °C 4,8 km/h (1 Bft)
10.06.2018 09:38 21,4 °C 75 % 1009,7 hPa 0,0 mm 4,0 km/h (1 Bft) NO 47 ° 1 min 0,000 mm 4,1 UV-I 631 W/m² 16,8 °C 21,4 °C 6,4 km/h (2 Bft)
10.06.2018 09:39 21,6 °C 73 % 1009,7 hPa 0,0 mm 6,4 km/h (2 Bft) N-NO 22 ° 1 min 0,000 mm 4,2 UV-I 656 W/m² 16,5 °C 21,6 °C 11,3 km/h (2 Bft)
10.06.2018 09:40 21,8 °C 76 % 1009,7 hPa 0,0 mm 3,2 km/h (1 Bft) N-NO 22 ° 1 min 0,000 mm 4,3 UV-I 691 W/m² 17,4 °C 21,8 °C 4,8 km/h (1 Bft)
10.06.2018 09:41 21,9 °C 72 % 1009,7 hPa 0,0 mm 4,8 km/h (1 Bft) NW 315 ° 1 min 0,000 mm 4,4 UV-I 733 W/m² 16,6 °C 21,9 °C 8,0 km/h (2 Bft)
10.06.2018 09:42 22,2 °C 72 % 1009,7 hPa 0,0 mm 3,2 km/h (1 Bft) N-NW 337 ° 1 min 0,000 mm 4,2 UV-I 733 W/m² 16,9 °C 22,2 °C 6,4 km/h (2 Bft)
10.06.2018 09:43 22,3 °C 72 % 1009,6 hPa 0,0 mm 0,0 km/h (0 Bft) N-NW 337 ° 1 min 0,000 mm 4,2 UV-I 733 W/m² 17,0 °C 22,3 °C 1,6 km/h (1 Bft)
10.06.2018 09:44 22,6 °C 74 % 1009,6 hPa 0,0 mm 1,6 km/h (1 Bft) N-NW 337 ° 1 min 0,000 mm 4,0 UV-I 733 W/m² 17,7 °C 22,6 °C 3,2 km/h (1 Bft)
10.06.2018 09:45 22,6 °C 72 % 1009,6 hPa 0,0 mm 3,2 km/h (1 Bft) N-NW 337 ° 1 min 0,000 mm 4,6 UV-I 733 W/m² 17,3 °C 22,6 °C 4,8 km/h (1 Bft)
10.06.2018 09:46 22,6 °C 70 % 1009,7 hPa 0,0 mm 3,2 km/h (1 Bft) NW 315 ° 1 min 0,000 mm 4,6 UV-I 733 W/m² 16,8 °C 22,6 °C 4,8 km/h (1 Bft)
10.06.2018 09:47 22,6 °C 69 % 1009,7 hPa 0,0 mm 1,6 km/h (1 Bft) NW 315 ° 1 min 0,000 mm 4,7 UV-I 770 W/m² 16,6 °C 22,6 °C 3,2 km/h (1 Bft)
10.06.2018 09:48 22,4 °C 70 % 1009,7 hPa 0,0 mm 3,2 km/h (1 Bft) NW 315 ° 1 min 0,000 mm 4,7 UV-I 735 W/m² 16,7 °C 22,4 °C 4,8 km/h (1 Bft)
10.06.2018 09:49 22,4 °C 71 % 1009,6 hPa 0,0 mm 3,2 km/h (1 Bft) NW 315 ° 1 min 0,000 mm 3,3 UV-I 656 W/m² 16,9 °C 22,4 °C 4,8 km/h (1 Bft)
10.06.2018 09:50 22,4 °C 70 % 1009,7 hPa 0,0 mm 1,6 km/h (1 Bft) NW 315 ° 1 min 0,000 mm 4,7 UV-I 656 W/m² 16,7 °C 22,4 °C 3,2 km/h (1 Bft)
10.06.2018 09:51 22,6 °C 72 % 1009,7 hPa 0,0 mm 6,4 km/h (2 Bft) W-NW 292 ° 1 min 0,000 mm 4,7 UV-I 747 W/m² 17,3 °C 22,6 °C 12,9 km/h (3 Bft)
10.06.2018 09:52 22,6 °C 69 % 1009,7 hPa 0,0 mm 8,0 km/h (2 Bft) NW 315 ° 1 min 0,000 mm 4,6 UV-I 729 W/m² 16,6 °C 22,6 °C 12,9 km/h (3 Bft)
10.06.2018 09:53 22,7 °C 73 % 1009,7 hPa 0,0 mm 6,4 km/h (2 Bft) W-SW 247 ° 1 min 0,000 mm 4,6 UV-I 705 W/m² 17,6 °C 22,7 °C 14,5 km/h (3 Bft)
10.06.2018 09:54 22,7 °C 70 % 1009,7 hPa 0,0 mm 6,4 km/h (2 Bft) W-NW 292 ° 1 min 0,000 mm 4,5 UV-I 693 W/m² 16,9 °C 22,7 °C 14,5 km/h (3 Bft)
10.06.2018 09:55 22,7 °C 68 % 1009,7 hPa 0,0 mm 6,4 km/h (2 Bft) W 270 ° 1 min 0,000 mm 4,1 UV-I 687 W/m² 16,5 °C 22,7 °C 11,3 km/h (2 Bft)
10.06.2018 09:56 22,6 °C 69 % 1009,7 hPa 0,0 mm 8,0 km/h (2 Bft) W 270 ° 1 min 0,000 mm 4,5 UV-I 684 W/m² 16,6 °C 22,6 °C 11,3 km/h (2 Bft)
10.06.2018 09:57 22,6 °C 69 % 1009,7 hPa 0,0 mm 4,8 km/h (1 Bft) W 270 ° 1 min 0,000 mm 3,8 UV-I 671 W/m² 16,6 °C 22,6 °C 6,4 km/h (2 Bft)
10.06.2018 09:58 22,6 °C 71 % 1009,7 hPa 0,0 mm 3,2 km/h (1 Bft) W-NW 292 ° 1 min 0,000 mm 4,0 UV-I 671 W/m² 17,1 °C 22,6 °C 6,4 km/h (2 Bft)
10.06.2018 09:59 22,6 °C 71 % 1009,7 hPa 0,0 mm 3,2 km/h (1 Bft) W-NW 292 ° 1 min 0,000 mm 4,6 UV-I 675 W/m² 17,1 °C 22,6 °C 8,0 km/h (2 Bft)
10.06.2018 10:00 22,6 °C 70 % 1009,7 hPa 0,0 mm 6,4 km/h (2 Bft) W-NW 292 ° 1 min 0,356 mm 4,6 UV-I 679 W/m² 16,8 °C 22,6 °C 11,3 km/h (2 Bft)
10.06.2018 10:01 22,7 °C 70 % 1009,7 hPa 0,0 mm 4,8 km/h (1 Bft) NW 315 ° 1 min 0,000 mm 4,6 UV-I 668 W/m² 16,9 °C 22,7 °C 6,4 km/h (2 Bft)
10.06.2018 10:02 22,6 °C 67 % 1009,7 hPa 0,0 mm 4,8 km/h (1 Bft) W-NW 292 ° 1 min 0,000 mm 4,6 UV-I 668 W/m² 16,2 °C 22,6 °C 8,0 km/h (2 Bft)
10.06.2018 10:03 22,5 °C 67 % 1009,7 hPa 0,0 mm 8,0 km/h (2 Bft) W-NW 292 ° 1 min 0,000 mm 4,7 UV-I 673 W/m² 16,1 °C 22,5 °C 11,3 km/h (2 Bft)
10.06.2018 10:04 22,4 °C 70 % 1009,6 hPa 0,0 mm 4,8 km/h (1 Bft) W-NW 292 ° 1 min 0,000 mm 4,7 UV-I 673 W/m² 16,7 °C 22,4 °C 8,0 km/h (2 Bft)
10.06.2018 10:06 22,4 °C 68 % 1009,7 hPa 0,0 mm 2,4 km/h (1 Bft) NW 321 ° 2 min 0,000 mm 4,8 UV-I 675 W/m² 16,2 °C 22,4 °C 3,2 km/h (1 Bft)
10.06.2018 10:07 22,6 °C 71 % 1009,7 hPa 0,0 mm 6,0 km/h (2 Bft) W-SW 256 ° 1 min 0,000 mm 4,8 UV-I 679 W/m² 17,1 °C 22,6 °C 11,3 km/h (2 Bft)
10.06.2018 10:08 22,6 °C 73 % 1009,7 hPa 0,0 mm 1,4 km/h (1 Bft) W-NW 298 ° 1 min 0,000 mm 4,8 UV-I 680 W/m² 17,5 °C 22,6 °C 4,8 km/h (1 Bft)
10.06.2018 10:09 22,6 °C 69 % 1009,6 hPa 0,0 mm 2,0 km/h (1 Bft) W-NW 303 ° 1 min 0,000 mm 4,8 UV-I 680 W/m² 16,6 °C 22,6 °C 6,4 km/h (2 Bft)
10.06.2018 10:10 22,6 °C 69 % 1009,7 hPa 0,0 mm 6,0 km/h (2 Bft) N-NW 336 ° 1 min 0,000 mm 4,9 UV-I 687 W/m² 16,6 °C 22,6 °C 12,9 km/h (3 Bft)
10.06.2018 10:11 22,6 °C 68 % 1009,7 hPa 0,0 mm 9,0 km/h (2 Bft) NW 304 ° 1 min 0,000 mm 4,9 UV-I 689 W/m² 16,4 °C 22,6 °C 12,9 km/h (3 Bft)
10.06.2018 10:12 22,6 °C 67 % 1009,7 hPa 0,0 mm 7,6 km/h (2 Bft) N-NW 331 ° 1 min 0,000 mm 4,9 UV-I 687 W/m² 16,2 °C 22,6 °C 14,5 km/h (3 Bft)
10.06.2018 10:13 22,6 °C 68 % 1009,7 hPa 0,0 mm 6,4 km/h (2 Bft) W-NW 285 ° 1 min 0,000 mm 4,9 UV-I 693 W/m² 16,4 °C 22,6 °C 9,7 km/h (2 Bft)
10.06.2018 10:14 22,6 °C 67 % 1009,7 hPa 0,0 mm 3,7 km/h (1 Bft) W-NW 291 ° 1 min 0,000 mm 5,0 UV-I 696 W/m² 16,2 °C 22,6 °C 6,4 km/h (2 Bft)
10.06.2018 10:15 22,5 °C 66 % 1009,6 hPa 0,0 mm 4,3 km/h (1 Bft) W-NW 300 ° 1 min 0,000 mm 5,0 UV-I 698 W/m² 15,8 °C 22,5 °C 6,4 km/h (2 Bft)
10.06.2018 10:16 22,6 °C 68 % 1009,6 hPa 0,0 mm 4,1 km/h (1 Bft) W-NW 285 ° 1 min 0,000 mm 5,0 UV-I 698 W/m² 16,4 °C 22,6 °C 8,0 km/h (2 Bft)
10.06.2018 10:17 22,5 °C 67 % 1009,7 hPa 0,0 mm 3,4 km/h (1 Bft) W 281 ° 1 min 0,000 mm 5,1 UV-I 705 W/m² 16,1 °C 22,5 °C 6,4 km/h (2 Bft)
10.06.2018 10:18 22,5 °C 66 % 1009,7 hPa 0,0 mm 4,6 km/h (1 Bft) W-NW 291 ° 1 min 0,000 mm 5,1 UV-I 707 W/m² 15,8 °C 22,5 °C 6,4 km/h (2 Bft)
10.06.2018 10:19 22,6 °C 69 % 1009,6 hPa 0,0 mm 5,0 km/h (1 Bft) W-NW 290 ° 1 min 0,000 mm 5,1 UV-I 705 W/m² 16,6 °C 22,6 °C 9,7 km/h (2 Bft)
10.06.2018 10:20 22,6 °C 68 % 1009,6 hPa 0,0 mm 7,2 km/h (2 Bft) W 270 ° 1 min 0,000 mm 5,1 UV-I 707 W/m² 16,4 °C 22,6 °C 11,3 km/h (2 Bft)
10.06.2018 10:21 22,6 °C 69 % 1009,6 hPa 0,0 mm 5,6 km/h (1 Bft) NW 309 ° 1 min 0,000 mm 5,2 UV-I 710 W/m² 16,6 °C 22,6 °C 9,7 km/h (2 Bft)
10.06.2018 10:22 22,6 °C 67 % 1009,6 hPa 0,0 mm 2,8 km/h (1 Bft) W-NW 300 ° 1 min 0,000 mm 5,2 UV-I 714 W/m² 16,2 °C 22,6 °C 8,0 km/h (2 Bft)
10.06.2018 10:23 22,6 °C 68 % 1009,7 hPa 0,0 mm 7,8 km/h (2 Bft) W 272 ° 1 min 0,000 mm 5,2 UV-I 715 W/m² 16,4 °C 22,6 °C 11,3 km/h (2 Bft)
10.06.2018 10:24 22,6 °C 68 % 1009,6 hPa 0,0 mm 6,6 km/h (2 Bft) W 266 ° 1 min 0,000 mm 5,2 UV-I 719 W/m² 16,4 °C 22,6 °C 11,3 km/h (2 Bft)
10.06.2018 10:25 22,7 °C 71 % 1009,6 hPa 0,0 mm 6,0 km/h (2 Bft) W 279 ° 1 min 0,000 mm 5,3 UV-I 721 W/m² 17,2 °C 22,7 °C 11,3 km/h (2 Bft)
10.06.2018 10:26 22,8 °C 70 % 1009,7 hPa 0,0 mm 3,8 km/h (1 Bft) W-NW 302 ° 1 min 0,000 mm 5,3 UV-I 719 W/m² 17,0 °C 22,8 °C 4,8 km/h (1 Bft)
10.06.2018 10:27 22,7 °C 65 % 1009,6 hPa 0,0 mm 2,7 km/h (1 Bft) W 274 ° 1 min 0,000 mm 5,3 UV-I 721 W/m² 15,8 °C 22,7 °C 4,8 km/h (1 Bft)
10.06.2018 10:28 22,6 °C 70 % 1009,5 hPa 0,0 mm 3,9 km/h (1 Bft) W 263 ° 1 min 0,000 mm 5,3 UV-I 722 W/m² 16,8 °C 22,6 °C 9,7 km/h (2 Bft)
10.06.2018 10:29 22,6 °C 70 % 1009,5 hPa 0,0 mm 4,4 km/h (1 Bft) W 261 ° 1 min 0,000 mm 5,4 UV-I 726 W/m² 16,8 °C 22,6 °C 6,4 km/h (2 Bft)
10.06.2018 10:30 22,6 °C 68 % 1009,5 hPa 0,0 mm 5,8 km/h (2 Bft) N 360 ° 1 min 0,000 mm 5,4 UV-I 728 W/m² 16,4 °C 22,6 °C 8,0 km/h (2 Bft)
10.06.2018 10:31 22,7 °C 70 % 1009,6 hPa 0,0 mm 4,5 km/h (1 Bft) N-NW 342 ° 1 min 0,000 mm 5,4 UV-I 733 W/m² 16,9 °C 22,7 °C 9,7 km/h (2 Bft)
10.06.2018 10:32 22,8 °C 69 % 1009,6 hPa 0,0 mm 2,7 km/h (1 Bft) N 355 ° 1 min 0,000 mm 5,5 UV-I 744 W/m² 16,8 °C 22,8 °C 4,8 km/h (1 Bft)
10.06.2018 10:33 22,8 °C 67 % 1009,5 hPa 0,0 mm 1,1 km/h (1 Bft) NW 319 ° 1 min 0,000 mm 5,5 UV-I 779 W/m² 16,3 °C 22,8 °C 3,2 km/h (1 Bft)
10.06.2018 10:34 22,8 °C 69 % 1009,6 hPa 0,0 mm 4,1 km/h (1 Bft) N-NO 25 ° 1 min 0,000 mm 5,6 UV-I 779 W/m² 16,8 °C 22,8 °C 9,7 km/h (2 Bft)
10.06.2018 10:35 22,9 °C 70 % 1009,6 hPa 0,0 mm 8,3 km/h (2 Bft) N-NW 327 ° 1 min 0,000 mm 2,7 UV-I 779 W/m² 17,1 °C 22,9 °C 11,3 km/h (2 Bft)
10.06.2018 10:36 22,8 °C 68 % 1009,6 hPa 0,0 mm 6,4 km/h (2 Bft) N 355 ° 0 min 0,000 mm 2,6 UV-I 132 W/m² 16,6 °C 22,8 °C 9,7 km/h (2 Bft)
10.06.2018 10:37 22,6 °C 68 % 1009,6 hPa 0,0 mm 7,0 km/h (2 Bft) W-NW 297 ° 0 min 0,000 mm 2,6 UV-I 134 W/m² 16,4 °C 22,6 °C 12,9 km/h (3 Bft)
10.06.2018 10:38 22,4 °C 67 % 1009,6 hPa 0,0 mm 3,2 km/h (1 Bft) N 355 ° 0 min 0,000 mm 2,6 UV-I 132 W/m² 16,0 °C 22,4 °C 6,4 km/h (2 Bft)
10.06.2018 10:39 22,2 °C 68 % 1009,6 hPa 0,0 mm 4,1 km/h (1 Bft) N 355 ° 0 min 0,000 mm 2,7 UV-I 148 W/m² 16,0 °C 22,2 °C 6,4 km/h (2 Bft)
10.06.2018 10:40 22,2 °C 68 % 1009,7 hPa 0,0 mm 3,3 km/h (1 Bft) NW 310 ° 0 min 0,000 mm 5,6 UV-I 148 W/m² 16,0 °C 22,2 °C 6,4 km/h (2 Bft)
10.06.2018 10:41 22,1 °C 69 % 1009,6 hPa 0,0 mm 2,4 km/h (1 Bft) NW 325 ° 0 min 0,000 mm 3,4 UV-I 148 W/m² 16,1 °C 22,1 °C 4,8 km/h (1 Bft)
10.06.2018 10:42 22,2 °C 70 % 1009,7 hPa 0,0 mm 4,9 km/h (1 Bft) W 273 ° 0 min 0,000 mm 3,3 UV-I 148 W/m² 16,5 °C 22,2 °C 6,4 km/h (2 Bft)
10.06.2018 10:43 22,3 °C 71 % 1009,6 hPa 0,0 mm 4,8 km/h (1 Bft) W 279 ° 0 min 0,000 mm 5,9 UV-I 148 W/m² 16,8 °C 22,3 °C 6,4 km/h (2 Bft)
10.06.2018 10:44 22,3 °C 70 % 1009,6 hPa 0,0 mm 10,5 km/h (2 Bft) W 267 ° 0 min 0,000 mm 3,1 UV-I 148 W/m² 16,6 °C 22,3 °C 14,5 km/h (3 Bft)
10.06.2018 10:45 22,3 °C 68 % 1009,6 hPa 0,0 mm 7,5 km/h (2 Bft) W 263 ° 0 min 0,000 mm 5,9 UV-I 148 W/m² 16,1 °C 22,3 °C 11,3 km/h (2 Bft)
10.06.2018 10:46 22,2 °C 69 % 1009,6 hPa 0,0 mm 6,9 km/h (2 Bft) W-NW 292 ° 0 min 0,000 mm 5,8 UV-I 148 W/m² 16,2 °C 22,2 °C 12,9 km/h (3 Bft)
10.06.2018 10:47 22,3 °C 71 % 1009,6 hPa 0,0 mm 4,3 km/h (1 Bft) NW 310 ° 1 min 0,000 mm 5,9 UV-I 830 W/m² 16,8 °C 22,3 °C 8,0 km/h (2 Bft)
10.06.2018 10:48 22,5 °C 70 % 1009,6 hPa 0,0 mm 4,2 km/h (1 Bft) W-SW 254 ° 1 min 0,000 mm 5,9 UV-I 826 W/m² 16,7 °C 22,5 °C 6,4 km/h (2 Bft)
10.06.2018 10:49 22,6 °C 69 % 1009,5 hPa 0,0 mm 1,6 km/h (1 Bft) W-SW 254 ° 1 min 0,000 mm 6,0 UV-I 824 W/m² 16,6 °C 22,6 °C 3,2 km/h (1 Bft)
10.06.2018 10:50 22,7 °C 69 % 1009,5 hPa 0,0 mm 3,6 km/h (1 Bft) NW 325 ° 1 min 0,000 mm 6,2 UV-I 731 W/m² 16,7 °C 22,7 °C 6,4 km/h (2 Bft)
10.06.2018 10:51 22,7 °C 68 % 1009,6 hPa 0,0 mm 6,2 km/h (2 Bft) N-NW 342 ° 1 min 0,000 mm 4,9 UV-I 731 W/m² 16,5 °C 22,7 °C 8,0 km/h (2 Bft)
10.06.2018 10:52 22,7 °C 69 % 1009,6 hPa 0,0 mm 5,0 km/h (1 Bft) NW 311 ° 1 min 0,000 mm 3,2 UV-I 731 W/m² 16,7 °C 22,7 °C 6,4 km/h (2 Bft)
10.06.2018 10:53 22,6 °C 69 % 1009,6 hPa 0,0 mm 1,6 km/h (1 Bft) NW 304 ° 1 min 0,000 mm 4,1 UV-I 731 W/m² 16,6 °C 22,6 °C 6,4 km/h (2 Bft)
10.06.2018 10:54 22,5 °C 70 % 1009,5 hPa 0,0 mm 5,1 km/h (1 Bft) W 272 ° 0 min 0,000 mm 3,3 UV-I 243 W/m² 16,7 °C 22,5 °C 8,0 km/h (2 Bft)
10.06.2018 10:55 22,4 °C 70 % 1009,5 hPa 0,0 mm 4,0 km/h (1 Bft) W-NW 290 ° 0 min 0,000 mm 6,3 UV-I 243 W/m² 16,7 °C 22,4 °C 8,0 km/h (2 Bft)
10.06.2018 10:56 22,4 °C 72 % 1009,6 hPa 0,0 mm 7,4 km/h (2 Bft) W-SW 257 ° 0 min 0,000 mm 6,2 UV-I 243 W/m² 17,1 °C 22,4 °C 12,9 km/h (3 Bft)
10.06.2018 10:57 22,6 °C 71 % 1009,5 hPa 0,0 mm 8,3 km/h (2 Bft) W-NW 295 ° 1 min 0,000 mm 5,7 UV-I 893 W/m² 17,1 °C 22,6 °C 14,5 km/h (3 Bft)
10.06.2018 10:58 22,6 °C 70 % 1009,6 hPa 0,0 mm 11,0 km/h (2 Bft) W-NW 286 ° 1 min 0,000 mm 6,2 UV-I 870 W/m² 16,8 °C 22,6 °C 12,9 km/h (3 Bft)
10.06.2018 10:59 22,7 °C 70 % 1009,6 hPa 0,0 mm 6,3 km/h (2 Bft) W-SW 257 ° 1 min 0,000 mm 6,2 UV-I 858 W/m² 16,9 °C 22,7 °C 11,3 km/h (2 Bft)
10.06.2018 11:00 22,8 °C 72 % 1009,6 hPa 0,0 mm 3,9 km/h (1 Bft) NW 311 ° 1 min 0,000 mm 6,3 UV-I 854 W/m² 17,5 °C 22,8 °C 6,4 km/h (2 Bft)
10.06.2018 11:01 23,0 °C 69 % 1009,5 hPa 0,0 mm 5,4 km/h (1 Bft) W-NW 302 ° 1 min 0,406 mm 6,3 UV-I 849 W/m² 17,0 °C 23,0 °C 8,0 km/h (2 Bft)
10.06.2018 11:02 23,1 °C 70 % 1009,5 hPa 0,0 mm 6,2 km/h (2 Bft) W-NW 288 ° 1 min 0,000 mm 6,3 UV-I 842 W/m² 17,3 °C 23,1 °C 11,3 km/h (2 Bft)
10.06.2018 11:03 23,1 °C 67 % 1009,5 hPa 0,0 mm 4,9 km/h (1 Bft) W-NW 298 ° 1 min 0,000 mm 6,3 UV-I 849 W/m² 16,6 °C 23,1 °C 6,4 km/h (2 Bft)
10.06.2018 11:04 23,2 °C 69 % 1009,4 hPa 0,0 mm 6,1 km/h (2 Bft) NW 307 ° 1 min 0,000 mm 6,4 UV-I 863 W/m² 17,2 °C 23,2 °C 11,3 km/h (2 Bft)
10.06.2018 11:05 23,3 °C 69 % 1009,5 hPa 0,0 mm 3,1 km/h (1 Bft) W-NW 290 ° 1 min 0,000 mm 6,4 UV-I 872 W/m² 17,3 °C 23,3 °C 4,8 km/h (1 Bft)
10.06.2018 11:06 23,3 °C 67 % 1009,4 hPa 0,0 mm 1,2 km/h (1 Bft) W-NW 300 ° 1 min 0,000 mm 6,6 UV-I 900 W/m² 16,8 °C 23,3 °C 3,2 km/h (1 Bft)
10.06.2018 11:07 23,4 °C 68 % 1009,4 hPa 0,0 mm 2,9 km/h (1 Bft) W-NW 297 ° 1 min 0,000 mm 6,7 UV-I 930 W/m² 17,1 °C 23,4 °C 3,2 km/h (1 Bft)
10.06.2018 11:08 23,3 °C 68 % 1009,5 hPa 0,0 mm 3,2 km/h (1 Bft) N 349 ° 1 min 0,000 mm 6,3 UV-I 991 W/m² 17,1 °C 23,3 °C 6,4 km/h (2 Bft)
10.06.2018 11:09 23,4 °C 68 % 1009,5 hPa 0,0 mm 5,4 km/h (1 Bft) N-NW 342 ° 1 min 0,000 mm 6,0 UV-I 940 W/m² 17,1 °C 23,4 °C 8,0 km/h (2 Bft)
10.06.2018 11:10 23,4 °C 69 % 1009,5 hPa 0,0 mm 9,3 km/h (2 Bft) N-NW 346 ° 1 min 0,000 mm 6,1 UV-I 962 W/m² 17,4 °C 23,4 °C 12,9 km/h (3 Bft)
10.06.2018 11:11 23,4 °C 68 % 1009,5 hPa 0,0 mm 6,8 km/h (2 Bft) NW 313 ° 1 min 0,000 mm 4,9 UV-I 962 W/m² 17,1 °C 23,4 °C 14,5 km/h (3 Bft)
10.06.2018 11:12 23,4 °C 68 % 1009,6 hPa 0,0 mm 6,8 km/h (2 Bft) NW 321 ° 0 min 0,000 mm 4,1 UV-I 503 W/m² 17,1 °C 23,4 °C 14,5 km/h (3 Bft)
10.06.2018 11:13 23,3 °C 66 % 1009,6 hPa 0,0 mm 3,0 km/h (1 Bft) N-NW 336 ° 0 min 0,000 mm 3,2 UV-I 503 W/m² 16,6 °C 23,3 °C 4,8 km/h (1 Bft)
10.06.2018 11:14 23,2 °C 67 % 1009,5 hPa 0,0 mm 4,8 km/h (1 Bft) NW 316 ° 0 min 0,000 mm 3,4 UV-I 299 W/m² 16,7 °C 23,2 °C 6,4 km/h (2 Bft)
10.06.2018 11:15 23,1 °C 67 % 1009,5 hPa 0,0 mm 1,7 km/h (1 Bft) NW 325 ° 0 min 0,000 mm 6,4 UV-I 299 W/m² 16,6 °C 23,1 °C 3,2 km/h (1 Bft)
10.06.2018 11:16 22,9 °C 68 % 1009,5 hPa 0,0 mm 2,3 km/h (1 Bft) O 98 ° 0 min 0,000 mm 2,8 UV-I 137 W/m² 16,7 °C 22,9 °C 4,8 km/h (1 Bft)
10.06.2018 11:17 22,7 °C 66 % 1009,4 hPa 0,0 mm 8,2 km/h (2 Bft) W-NW 299 ° 0 min 0,000 mm 3,0 UV-I 148 W/m² 16,0 °C 22,7 °C 14,5 km/h (3 Bft)
10.06.2018 11:18 22,5 °C 72 % 1009,5 hPa 0,0 mm 4,2 km/h (1 Bft) W-NW 293 ° 0 min 0,000 mm 3,4 UV-I 148 W/m² 17,2 °C 22,5 °C 6,4 km/h (2 Bft)
10.06.2018 11:19 22,4 °C 70 % 1009,6 hPa 0,0 mm 3,9 km/h (1 Bft) NW 323 ° 0 min 0,000 mm 4,6 UV-I 148 W/m² 16,7 °C 22,4 °C 6,4 km/h (2 Bft)
10.06.2018 11:20 22,5 °C 73 % 1009,5 hPa 0,0 mm 2,6 km/h (1 Bft) NW 314 ° 0 min 0,000 mm 6,7 UV-I 148 W/m² 17,4 °C 22,5 °C 3,2 km/h (1 Bft)
10.06.2018 11:21 22,7 °C 73 % 1009,5 hPa 0,0 mm 6,2 km/h (2 Bft) W-SW 257 ° 1 min 0,000 mm 6,7 UV-I 886 W/m² 17,6 °C 22,7 °C 11,3 km/h (2 Bft)
10.06.2018 11:22 22,9 °C 70 % 1009,5 hPa 0,0 mm 9,8 km/h (2 Bft) W-NW 286 ° 1 min 0,000 mm 6,7 UV-I 877 W/m² 17,1 °C 22,9 °C 16,1 km/h (3 Bft)
10.06.2018 11:23 23,1 °C 68 % 1009,5 hPa 0,0 mm 5,5 km/h (1 Bft) NW 315 ° 1 min 0,000 mm 6,7 UV-I 868 W/m² 16,9 °C 23,1 °C 6,4 km/h (2 Bft)
10.06.2018 11:24 23,2 °C 69 % 1009,5 hPa 0,0 mm 5,4 km/h (1 Bft) NW 317 ° 1 min 0,000 mm 6,7 UV-I 875 W/m² 17,2 °C 23,2 °C 8,0 km/h (2 Bft)
10.06.2018 11:25 23,1 °C 66 % 1009,5 hPa 0,0 mm 4,8 km/h (1 Bft) W 275 ° 1 min 0,000 mm 6,8 UV-I 886 W/m² 16,4 °C 23,1 °C 12,9 km/h (3 Bft)
10.06.2018 11:26 23,3 °C 70 % 1009,5 hPa 0,0 mm 6,9 km/h (2 Bft) S 183 ° 1 min 0,000 mm 6,9 UV-I 911 W/m² 17,5 °C 23,3 °C 11,3 km/h (2 Bft)
10.06.2018 11:27 23,2 °C 67 % 1009,4 hPa 0,0 mm 1,9 km/h (1 Bft) S 183 ° 1 min 0,000 mm 7,0 UV-I 918 W/m² 16,7 °C 23,2 °C 4,8 km/h (1 Bft)
10.06.2018 11:28 23,1 °C 66 % 1009,4 hPa 0,0 mm 1,7 km/h (1 Bft) W-NW 299 ° 1 min 0,000 mm 7,0 UV-I 935 W/m² 16,4 °C 23,1 °C 4,8 km/h (1 Bft)
10.06.2018 11:29 23,2 °C 68 % 1009,5 hPa 0,0 mm 5,7 km/h (1 Bft) W-NW 287 ° 1 min 0,000 mm 7,1 UV-I 944 W/m² 17,0 °C 23,2 °C 14,5 km/h (3 Bft)
10.06.2018 11:30 23,3 °C 68 % 1009,5 hPa 0,0 mm 8,9 km/h (2 Bft) NW 325 ° 1 min 0,000 mm 7,0 UV-I 956 W/m² 17,1 °C 23,3 °C 12,9 km/h (3 Bft)
10.06.2018 11:31 23,5 °C 68 % 1009,4 hPa 0,0 mm 5,3 km/h (1 Bft) NW 317 ° 1 min 0,000 mm 7,0 UV-I 967 W/m² 17,2 °C 23,5 °C 9,7 km/h (2 Bft)
10.06.2018 11:32 23,6 °C 68 % 1009,5 hPa 0,0 mm 8,4 km/h (2 Bft) NW 310 ° 1 min 0,000 mm 6,9 UV-I 974 W/m² 17,3 °C 23,6 °C 12,9 km/h (3 Bft)
10.06.2018 11:33 23,6 °C 66 % 1009,5 hPa 0,0 mm 3,1 km/h (1 Bft) N 349 ° 1 min 0,000 mm 6,6 UV-I 974 W/m² 16,9 °C 23,6 °C 6,4 km/h (2 Bft)
10.06.2018 11:34 23,6 °C 66 % 1009,4 hPa 0,0 mm 5,0 km/h (1 Bft) NW 306 ° 1 min 0,000 mm 4,6 UV-I 916 W/m² 16,9 °C 23,6 °C 8,0 km/h (2 Bft)
10.06.2018 11:35 23,5 °C 66 % 1009,4 hPa 0,0 mm 3,8 km/h (1 Bft) NW 306 ° 1 min 0,000 mm 2,8 UV-I 916 W/m² 16,8 °C 23,5 °C 8,0 km/h (2 Bft)
10.06.2018 11:36 23,3 °C 68 % 1009,4 hPa 0,0 mm 5,3 km/h (1 Bft) W-SW 252 ° 0 min 0,000 mm 2,7 UV-I 197 W/m² 17,1 °C 23,3 °C 14,5 km/h (3 Bft)
10.06.2018 11:37 23,1 °C 67 % 1009,5 hPa 0,0 mm 6,6 km/h (2 Bft) W 260 ° 0 min 0,000 mm 2,6 UV-I 186 W/m² 16,6 °C 23,1 °C 12,9 km/h (3 Bft)
10.06.2018 11:38 22,9 °C 68 % 1009,5 hPa 0,0 mm 5,6 km/h (1 Bft) W-NW 300 ° 0 min 0,000 mm 2,5 UV-I 162 W/m² 16,7 °C 22,9 °C 11,3 km/h (2 Bft)
10.06.2018 11:39 22,8 °C 68 % 1009,4 hPa 0,0 mm 3,8 km/h (1 Bft) W 273 ° 0 min 0,000 mm 2,5 UV-I 172 W/m² 16,6 °C 22,8 °C 9,7 km/h (2 Bft)
10.06.2018 11:40 22,6 °C 67 % 1009,5 hPa 0,0 mm 5,4 km/h (1 Bft) W-NW 289 ° 0 min 0,000 mm 2,6 UV-I 185 W/m² 16,2 °C 22,6 °C 9,7 km/h (2 Bft)
10.06.2018 11:41 22,4 °C 68 % 1009,5 hPa 0,0 mm 5,8 km/h (2 Bft) NW 313 ° 0 min 0,000 mm 2,6 UV-I 209 W/m² 16,2 °C 22,4 °C 14,5 km/h (3 Bft)
10.06.2018 11:42 22,4 °C 69 % 1009,4 hPa 0,0 mm 8,9 km/h (2 Bft) N-NW 331 ° 0 min 0,000 mm 2,5 UV-I 211 W/m² 16,4 °C 22,4 °C 12,9 km/h (3 Bft)
10.06.2018 11:43 22,3 °C 70 % 1009,5 hPa 0,0 mm 4,0 km/h (1 Bft) W 281 ° 0 min 0,000 mm 2,5 UV-I 200 W/m² 16,6 °C 22,3 °C 6,4 km/h (2 Bft)
10.06.2018 11:44 22,3 °C 71 % 1009,5 hPa 0,0 mm 4,2 km/h (1 Bft) W 279 ° 0 min 0,000 mm 2,4 UV-I 188 W/m² 16,8 °C 22,3 °C 6,4 km/h (2 Bft)
10.06.2018 11:45 22,2 °C 69 % 1009,4 hPa 0,0 mm 3,1 km/h (1 Bft) W 279 ° 0 min 0,000 mm 2,4 UV-I 172 W/m² 16,2 °C 22,2 °C 6,4 km/h (2 Bft)
10.06.2018 11:46 22,2 °C 70 % 1009,4 hPa 0,0 mm 0,2 km/h (0 Bft) W 279 ° 0 min 0,000 mm 2,3 UV-I 153 W/m² 16,5 °C 22,2 °C 1,6 km/h (1 Bft)
10.06.2018 11:47 22,2 °C 70 % 1009,4 hPa 0,0 mm 2,5 km/h (1 Bft) W 279 ° 0 min 0,000 mm 2,3 UV-I 135 W/m² 16,5 °C 22,2 °C 3,2 km/h (1 Bft)
10.06.2018 11:48 22,1 °C 68 % 1009,5 hPa 0,0 mm 2,5 km/h (1 Bft) W-NW 299 ° 0 min 0,000 mm 2,3 UV-I 123 W/m² 15,9 °C 22,1 °C 4,8 km/h (1 Bft)
10.06.2018 11:49 22,1 °C 71 % 1009,4 hPa 0,0 mm 0,7 km/h (0 Bft) W-NW 299 ° 0 min 0,000 mm 2,3 UV-I 121 W/m² 16,6 °C 22,1 °C 3,2 km/h (1 Bft)
10.06.2018 11:50 22,1 °C 69 % 1009,4 hPa 0,0 mm 4,4 km/h (1 Bft) W-NW 301 ° 0 min 0,000 mm 2,4 UV-I 134 W/m² 16,1 °C 22,1 °C 6,4 km/h (2 Bft)
10.06.2018 11:51 22,1 °C 70 % 1009,5 hPa 0,0 mm 5,0 km/h (1 Bft) NW 313 ° 0 min 0,000 mm 2,9 UV-I 155 W/m² 16,4 °C 22,1 °C 8,0 km/h (2 Bft)
10.06.2018 11:52 22,0 °C 69 % 1009,5 hPa 0,0 mm 6,4 km/h (2 Bft) W-NW 292 ° 0 min 0,000 mm 5,3 UV-I 155 W/m² 16,0 °C 22,0 °C 9,7 km/h (2 Bft)
10.06.2018 11:53 22,2 °C 73 % 1009,5 hPa 0,0 mm 1,7 km/h (1 Bft) W-NW 292 ° 0 min 0,000 mm 7,1 UV-I 155 W/m² 17,1 °C 22,2 °C 3,2 km/h (1 Bft)
10.06.2018 11:54 22,5 °C 72 % 1009,5 hPa 0,0 mm 1,7 km/h (1 Bft) W-NW 292 ° 1 min 0,000 mm 6,1 UV-I 974 W/m² 17,2 °C 22,5 °C 3,2 km/h (1 Bft)
10.06.2018 11:55 22,8 °C 72 % 1009,5 hPa 0,0 mm 5,7 km/h (1 Bft) W 264 ° 1 min 0,000 mm 7,5 UV-I 902 W/m² 17,5 °C 22,8 °C 9,7 km/h (2 Bft)
10.06.2018 11:56 23,1 °C 71 % 1009,5 hPa 0,0 mm 1,3 km/h (1 Bft) W 263 ° 1 min 0,000 mm 7,5 UV-I 970 W/m² 17,5 °C 23,1 °C 6,4 km/h (2 Bft)
10.06.2018 11:57 23,3 °C 66 % 1009,5 hPa 0,0 mm 4,2 km/h (1 Bft) W 275 ° 1 min 0,000 mm 7,5 UV-I 976 W/m² 16,6 °C 23,3 °C 6,4 km/h (2 Bft)
10.06.2018 11:58 23,6 °C 67 % 1009,4 hPa 0,0 mm 10,1 km/h (2 Bft) W 260 ° 1 min 0,000 mm 7,5 UV-I 979 W/m² 17,1 °C 23,6 °C 14,5 km/h (3 Bft)
10.06.2018 11:59 23,8 °C 67 % 1009,4 hPa 0,0 mm 6,6 km/h (2 Bft) W-SW 254 ° 1 min 0,000 mm 7,5 UV-I 969 W/m² 17,3 °C 23,8 °C 12,9 km/h (3 Bft)
10.06.2018 12:00 24,0 °C 68 % 1009,4 hPa 0,0 mm 7,4 km/h (2 Bft) W 269 ° 1 min 0,000 mm 7,6 UV-I 988 W/m² 17,7 °C 24,0 °C 11,3 km/h (2 Bft)
10.06.2018 12:01 24,2 °C 69 % 1009,4 hPa 0,0 mm 8,0 km/h (2 Bft) W 275 ° 1 min 0,407 mm 7,6 UV-I 997 W/m² 18,1 °C 24,2 °C 12,9 km/h (3 Bft)
10.06.2018 12:02 24,2 °C 64 % 1009,5 hPa 0,0 mm 5,2 km/h (1 Bft) W-NW 297 ° 1 min 0,000 mm 7,6 UV-I 997 W/m² 16,9 °C 24,2 °C 11,3 km/h (2 Bft)
10.06.2018 12:03 24,2 °C 65 % 1009,4 hPa 0,0 mm 6,5 km/h (2 Bft) W-SW 250 ° 1 min 0,000 mm 3,8 UV-I 997 W/m² 17,2 °C 24,2 °C 8,0 km/h (2 Bft)
10.06.2018 12:04 24,2 °C 67 % 1009,4 hPa 0,0 mm 2,4 km/h (1 Bft) W-SW 245 ° 1 min 0,000 mm 7,8 UV-I 997 W/m² 17,7 °C 24,2 °C 6,4 km/h (2 Bft)
10.06.2018 12:05 24,1 °C 64 % 1009,4 hPa 0,0 mm 3,4 km/h (1 Bft) NW 320 ° 1 min 0,000 mm 7,8 UV-I 998 W/m² 16,9 °C 24,1 °C 8,0 km/h (2 Bft)
10.06.2018 12:06 24,1 °C 64 % 1009,4 hPa 0,0 mm 4,5 km/h (1 Bft) NW 325 ° 1 min 0,000 mm 7,8 UV-I 1002 W/m² 16,9 °C 24,1 °C 9,7 km/h (2 Bft)
10.06.2018 12:07 24,2 °C 67 % 1009,3 hPa 0,0 mm 4,8 km/h (1 Bft) N 355 ° 1 min 0,000 mm 7,8 UV-I 1009 W/m² 17,7 °C 24,2 °C 8,0 km/h (2 Bft)
10.06.2018 12:08 24,3 °C 71 % 1009,3 hPa 0,0 mm 6,2 km/h (2 Bft) NW 307 ° 1 min 0,000 mm 7,3 UV-I 1028 W/m² 18,7 °C 24,3 °C 12,9 km/h (3 Bft)
10.06.2018 12:09 24,4 °C 66 % 1009,4 hPa 0,0 mm 9,4 km/h (2 Bft) NW 321 ° 1 min 0,000 mm 4,4 UV-I 1055 W/m² 17,6 °C 24,4 °C 14,5 km/h (3 Bft)
10.06.2018 12:10 24,3 °C 65 % 1009,4 hPa 0,0 mm 8,6 km/h (2 Bft) NW 304 ° 1 min 0,000 mm 4,7 UV-I 1055 W/m² 17,3 °C 24,3 °C 16,1 km/h (3 Bft)
10.06.2018 12:11 24,1 °C 65 % 1009,4 hPa 0,0 mm 5,2 km/h (1 Bft) NW 325 ° 1 min 0,000 mm 2,5 UV-I 1055 W/m² 17,1 °C 24,1 °C 9,7 km/h (2 Bft)
10.06.2018 12:12 23,8 °C 65 % 1009,4 hPa 0,0 mm 5,1 km/h (1 Bft) NW 322 ° 0 min 0,000 mm 2,3 UV-I 148 W/m² 16,8 °C 23,8 °C 9,7 km/h (2 Bft)
10.06.2018 12:13 23,6 °C 66 % 1009,4 hPa 0,0 mm 5,0 km/h (1 Bft) W-NW 284 ° 0 min 0,000 mm 2,3 UV-I 137 W/m² 16,9 °C 23,6 °C 8,0 km/h (2 Bft)
10.06.2018 12:14 23,3 °C 65 % 1009,4 hPa 0,0 mm 5,6 km/h (1 Bft) W-NW 300 ° 0 min 0,000 mm 2,5 UV-I 134 W/m² 16,3 °C 23,3 °C 8,0 km/h (2 Bft)
10.06.2018 12:15 23,1 °C 64 % 1009,4 hPa 0,0 mm 4,9 km/h (1 Bft) W-NW 302 ° 0 min 0,000 mm 2,7 UV-I 142 W/m² 15,9 °C 23,1 °C 11,3 km/h (2 Bft)
10.06.2018 12:16 22,8 °C 67 % 1009,4 hPa 0,0 mm 3,1 km/h (1 Bft) W-NW 296 ° 0 min 0,000 mm 2,7 UV-I 142 W/m² 16,3 °C 22,8 °C 6,4 km/h (2 Bft)
10.06.2018 12:17 22,8 °C 70 % 1009,4 hPa 0,0 mm 2,6 km/h (1 Bft) W-NW 295 ° 0 min 0,000 mm 2,7 UV-I 142 W/m² 17,0 °C 22,8 °C 4,8 km/h (1 Bft)
10.06.2018 12:18 22,9 °C 68 % 1009,3 hPa 0,0 mm 1,8 km/h (1 Bft) W-NW 295 ° 1 min 0,000 mm 5,3 UV-I 1039 W/m² 16,7 °C 22,9 °C 4,8 km/h (1 Bft)
10.06.2018 12:19 23,1 °C 68 % 1009,3 hPa 0,0 mm 1,6 km/h (1 Bft) W-SW 252 ° 1 min 0,000 mm 7,7 UV-I 1032 W/m² 16,9 °C 23,1 °C 4,8 km/h (1 Bft)
10.06.2018 12:20 23,3 °C 67 % 1009,3 hPa 0,0 mm 6,0 km/h (2 Bft) W-NW 293 ° 1 min 0,000 mm 7,9 UV-I 1039 W/m² 16,8 °C 23,3 °C 12,9 km/h (3 Bft)
10.06.2018 12:21 23,4 °C 65 % 1009,3 hPa 0,0 mm 3,6 km/h (1 Bft) W-NW 296 ° 1 min 0,000 mm 7,6 UV-I 1071 W/m² 16,4 °C 23,4 °C 4,8 km/h (1 Bft)
10.06.2018 12:22 23,7 °C 66 % 1009,3 hPa 0,0 mm 2,5 km/h (1 Bft) W-NW 296 ° 1 min 0,000 mm 7,1 UV-I 1071 W/m² 17,0 °C 23,7 °C 3,2 km/h (1 Bft)
10.06.2018 12:23 23,8 °C 63 % 1009,3 hPa 0,0 mm 2,4 km/h (1 Bft) W-NW 296 ° 1 min 0,000 mm 3,4 UV-I 1071 W/m² 16,3 °C 23,8 °C 6,4 km/h (2 Bft)
10.06.2018 12:24 23,7 °C 62 % 1009,3 hPa 0,0 mm 3,6 km/h (1 Bft) N-NW 333 ° 0 min 0,000 mm 3,2 UV-I 237 W/m² 16,0 °C 23,7 °C 4,8 km/h (1 Bft)
10.06.2018 12:25 23,6 °C 64 % 1009,3 hPa 0,0 mm 5,2 km/h (1 Bft) N-NW 338 ° 0 min 0,000 mm 3,2 UV-I 299 W/m² 16,4 °C 23,6 °C 8,0 km/h (2 Bft)
10.06.2018 12:26 23,4 °C 61 % 1009,3 hPa 0,0 mm 3,6 km/h (1 Bft) N 360 ° 0 min 0,000 mm 7,0 UV-I 299 W/m² 15,4 °C 23,4 °C 4,8 km/h (1 Bft)
10.06.2018 12:27 23,3 °C 62 % 1009,3 hPa 0,0 mm 3,0 km/h (1 Bft) N-NO 20 ° 1 min 0,000 mm 6,0 UV-I 1092 W/m² 15,6 °C 23,3 °C 4,8 km/h (1 Bft)
10.06.2018 12:28 23,3 °C 63 % 1009,3 hPa 0,0 mm 2,9 km/h (1 Bft) N-NW 329 ° 1 min 0,000 mm 3,6 UV-I 1092 W/m² 15,9 °C 23,3 °C 6,4 km/h (2 Bft)
10.06.2018 12:29 23,4 °C 64 % 1009,3 hPa 0,0 mm 3,9 km/h (1 Bft) NW 315 ° 1 min 0,000 mm 6,0 UV-I 1092 W/m² 16,2 °C 23,4 °C 4,8 km/h (1 Bft)
10.06.2018 12:30 23,5 °C 66 % 1009,2 hPa 0,0 mm 9,7 km/h (2 Bft) NW 310 ° 0 min 0,000 mm 3,0 UV-I 264 W/m² 16,8 °C 23,5 °C 14,5 km/h (3 Bft)
10.06.2018 12:31 23,4 °C 66 % 1009,3 hPa 0,0 mm 5,0 km/h (1 Bft) W-NW 298 ° 0 min 0,000 mm 2,4 UV-I 264 W/m² 16,7 °C 23,4 °C 12,9 km/h (3 Bft)
10.06.2018 12:32 23,4 °C 66 % 1009,2 hPa 0,0 mm 6,6 km/h (2 Bft) W 277 ° 0 min 0,000 mm 2,2 UV-I 192 W/m² 16,7 °C 23,4 °C 12,9 km/h (3 Bft)
10.06.2018 12:33 23,3 °C 65 % 1009,3 hPa 0,0 mm 5,2 km/h (1 Bft) W 273 ° 0 min 0,000 mm 2,0 UV-I 171 W/m² 16,3 °C 23,3 °C 6,4 km/h (2 Bft)
10.06.2018 12:34 23,1 °C 68 % 1009,3 hPa 0,0 mm 11,7 km/h (2 Bft) W 276 ° 0 min 0,000 mm 1,9 UV-I 153 W/m² 16,9 °C 23,1 °C 17,7 km/h (3 Bft)
10.06.2018 12:35 22,9 °C 65 % 1009,3 hPa 0,0 mm 5,4 km/h (1 Bft) W 270 ° 0 min 0,000 mm 1,9 UV-I 144 W/m² 16,0 °C 22,9 °C 11,3 km/h (2 Bft)
10.06.2018 12:36 22,7 °C 68 % 1009,3 hPa 0,0 mm 9,9 km/h (2 Bft) W 272 ° 0 min 0,000 mm 1,7 UV-I 125 W/m² 16,5 °C 22,7 °C 17,7 km/h (3 Bft)
10.06.2018 12:37 22,4 °C 68 % 1009,4 hPa 0,0 mm 12,8 km/h (3 Bft) W-SW 257 ° 0 min 0,000 mm 1,6 UV-I 120 W/m² 16,2 °C 22,4 °C 16,1 km/h (3 Bft)
10.06.2018 12:38 22,1 °C 69 % 1009,4 hPa 0,6 mm 6,0 km/h (2 Bft) W 267 ° 0 min 0,000 mm 1,8 UV-I 116 W/m² 16,1 °C 22,1 °C 11,3 km/h (2 Bft)
10.06.2018 12:39 21,6 °C 72 % 1009,4 hPa 0,0 mm 1,1 km/h (1 Bft) W 267 ° 0 min 0,000 mm 1,9 UV-I 120 W/m² 16,3 °C 21,6 °C 3,2 km/h (1 Bft)
10.06.2018 12:40 21,2 °C 77 % 1009,3 hPa 0,0 mm 1,2 km/h (1 Bft) NW 321 ° 0 min 0,000 mm 2,0 UV-I 121 W/m² 17,0 °C 21,2 °C 3,2 km/h (1 Bft)
10.06.2018 12:41 20,7 °C 80 % 1009,3 hPa 0,0 mm 1,3 km/h (1 Bft) W-NW 290 ° 0 min 0,000 mm 2,2 UV-I 120 W/m² 17,1 °C 20,7 °C 3,2 km/h (1 Bft)
10.06.2018 12:42 20,3 °C 80 % 1009,3 hPa 0,0 mm 2,5 km/h (1 Bft) W-SW 251 ° 0 min 0,000 mm 2,4 UV-I 123 W/m² 16,7 °C 20,3 °C 3,2 km/h (1 Bft)
10.06.2018 12:43 20,0 °C 82 % 1009,3 hPa 0,0 mm 0,6 km/h (0 Bft) W-SW 251 ° 1 min 0,000 mm 7,2 UV-I 930 W/m² 16,8 °C 20,0 °C 1,6 km/h (1 Bft)
10.06.2018 12:44 19,9 °C 85 % 1009,3 hPa 0,0 mm 1,6 km/h (1 Bft) W-SW 251 ° 1 min 0,000 mm 7,5 UV-I 942 W/m² 17,3 °C 19,9 °C 3,2 km/h (1 Bft)
10.06.2018 12:45 19,9 °C 87 % 1009,3 hPa 0,0 mm 0,7 km/h (0 Bft) W-SW 251 ° 1 min 0,000 mm 7,7 UV-I 962 W/m² 17,7 °C 19,9 °C 1,6 km/h (1 Bft)
10.06.2018 12:46 19,8 °C 87 % 1009,2 hPa 0,0 mm 0,3 km/h (0 Bft) W-SW 251 ° 1 min 0,000 mm 7,7 UV-I 981 W/m² 17,6 °C 19,8 °C 1,6 km/h (1 Bft)
10.06.2018 12:47 19,8 °C 87 % 1009,3 hPa 0,0 mm 0,3 km/h (0 Bft) W-SW 251 ° 1 min 0,000 mm 7,8 UV-I 1013 W/m² 17,6 °C 19,8 °C 1,6 km/h (1 Bft)
10.06.2018 12:48 19,9 °C 88 % 1009,3 hPa 0,0 mm 0,4 km/h (0 Bft) W-SW 251 ° 1 min 0,000 mm 7,8 UV-I 1013 W/m² 17,8 °C 19,9 °C 1,6 km/h (1 Bft)
10.06.2018 12:49 20,0 °C 87 % 1009,2 hPa 0,0 mm 0,1 km/h (0 Bft) W-SW 251 ° 1 min 0,000 mm 3,6 UV-I 1013 W/m² 17,8 °C 20,0 °C 1,6 km/h (1 Bft)
10.06.2018 12:50 20,1 °C 87 % 1009,2 hPa 0,0 mm 1,5 km/h (1 Bft) SO 143 ° 0 min 0,000 mm 3,6 UV-I 276 W/m² 17,9 °C 20,1 °C 4,8 km/h (1 Bft)
10.06.2018 12:51 20,3 °C 88 % 1009,2 hPa 0,0 mm 3,9 km/h (1 Bft) SO 140 ° 0 min 0,000 mm 3,6 UV-I 276 W/m² 18,2 °C 20,3 °C 4,8 km/h (1 Bft)
10.06.2018 12:52 20,4 °C 84 % 1009,2 hPa 0,0 mm 1,2 km/h (1 Bft) SO 140 ° 0 min 0,000 mm 7,7 UV-I 276 W/m² 17,6 °C 20,4 °C 1,6 km/h (1 Bft)
10.06.2018 12:53 20,6 °C 83 % 1009,2 hPa 0,0 mm 0,8 km/h (0 Bft) SO 140 ° 1 min 0,000 mm 7,7 UV-I 1023 W/m² 17,6 °C 20,6 °C 1,6 km/h (1 Bft)
10.06.2018 12:54 21,0 °C 82 % 1009,1 hPa 0,0 mm 0,1 km/h (0 Bft) SO 140 ° 1 min 0,000 mm 7,7 UV-I 976 W/m² 17,8 °C 21,0 °C 1,6 km/h (1 Bft)
10.06.2018 12:55 21,3 °C 76 % 1009,1 hPa 0,0 mm 0,1 km/h (0 Bft) SO 140 ° 0 min 0,000 mm 1,9 UV-I 181 W/m² 16,9 °C 21,3 °C 1,6 km/h (1 Bft)
10.06.2018 12:56 21,6 °C 74 % 1009,0 hPa 0,0 mm 0,4 km/h (0 Bft) SO 140 ° 0 min 0,000 mm 1,7 UV-I 165 W/m² 16,8 °C 21,6 °C 1,6 km/h (1 Bft)
10.06.2018 12:57 21,8 °C 73 % 1009,1 hPa 0,0 mm 1,9 km/h (1 Bft) NW 323 ° 0 min 0,000 mm 1,6 UV-I 151 W/m² 16,7 °C 21,8 °C 4,8 km/h (1 Bft)
10.06.2018 12:58 21,8 °C 73 % 1009,1 hPa 0,0 mm 5,6 km/h (1 Bft) N 5 ° 0 min 0,000 mm 1,6 UV-I 148 W/m² 16,7 °C 21,8 °C 9,7 km/h (2 Bft)
10.06.2018 12:59 21,8 °C 73 % 1009,1 hPa 0,0 mm 5,6 km/h (1 Bft) N-NW 340 ° 0 min 0,000 mm 1,7 UV-I 156 W/m² 16,7 °C 21,8 °C 9,7 km/h (2 Bft)
10.06.2018 13:00 21,8 °C 72 % 1009,1 hPa 0,0 mm 0,1 km/h (0 Bft) N-NW 340 ° 0 min 0,355 mm 1,8 UV-I 163 W/m² 16,5 °C 21,8 °C 1,6 km/h (1 Bft)
10.06.2018 13:01 21,8 °C 71 % 1009,1 hPa 0,0 mm 0,0 km/h (0 Bft) N-NW 340 ° 0 min 0,000 mm 2,0 UV-I 163 W/m² 16,3 °C 21,8 °C 0,0 km/h (0 Bft)
10.06.2018 13:02 21,9 °C 71 % 1009,1 hPa 0,0 mm 0,0 km/h (0 Bft) N-NW 340 ° 0 min 0,000 mm 2,2 UV-I 176 W/m² 16,4 °C 21,9 °C 0,0 km/h (0 Bft)
10.06.2018 13:03 21,8 °C 78 % 1009,1 hPa 0,0 mm 1,6 km/h (1 Bft) O-SO 123 ° 0 min 0,000 mm 2,4 UV-I 176 W/m² 17,8 °C 21,8 °C 4,8 km/h (1 Bft)
10.06.2018 13:04 21,5 °C 79 % 1009,1 hPa 0,0 mm 2,5 km/h (1 Bft) O-SO 123 ° 0 min 0,000 mm 2,8 UV-I 197 W/m² 17,7 °C 21,5 °C 4,8 km/h (1 Bft)
10.06.2018 13:05 21,3 °C 79 % 1009,1 hPa 0,0 mm 1,2 km/h (1 Bft) O-SO 123 ° 0 min 0,000 mm 2,6 UV-I 146 W/m² 17,5 °C 21,3 °C 6,4 km/h (2 Bft)
10.06.2018 13:06 20,9 °C 80 % 1009,1 hPa 0,0 mm 2,7 km/h (1 Bft) O-SO 123 ° 0 min 0,000 mm 2,7 UV-I 169 W/m² 17,3 °C 20,9 °C 6,4 km/h (2 Bft)
10.06.2018 13:07 20,6 °C 82 % 1009,1 hPa 0,0 mm 1,2 km/h (1 Bft) O-SO 123 ° 0 min 0,000 mm 7,6 UV-I 169 W/m² 17,4 °C 20,6 °C 3,2 km/h (1 Bft)
10.06.2018 13:08 20,7 °C 82 % 1009,1 hPa 0,0 mm 0,3 km/h (0 Bft) O-SO 123 ° 0 min 0,000 mm 7,6 UV-I 169 W/m² 17,5 °C 20,7 °C 1,6 km/h (1 Bft)
10.06.2018 13:09 20,9 °C 84 % 1009,0 hPa 0,0 mm 0,8 km/h (0 Bft) O-SO 123 ° 1 min 0,000 mm 7,6 UV-I 965 W/m² 18,1 °C 20,9 °C 3,2 km/h (1 Bft)
10.06.2018 13:10 21,2 °C 83 % 1009,0 hPa 0,0 mm 0,3 km/h (0 Bft) O-SO 123 ° 1 min 0,000 mm 7,6 UV-I 960 W/m² 18,2 °C 21,2 °C 1,6 km/h (1 Bft)
10.06.2018 13:11 21,4 °C 81 % 1009,0 hPa 0,0 mm 0,1 km/h (0 Bft) O-SO 123 ° 1 min 0,000 mm 7,6 UV-I 970 W/m² 18,0 °C 21,4 °C 1,6 km/h (1 Bft)
10.06.2018 13:12 21,7 °C 78 % 1009,0 hPa 0,0 mm 0,0 km/h (0 Bft) O-SO 123 ° 1 min 0,000 mm 7,7 UV-I 979 W/m² 17,7 °C 21,7 °C 0,0 km/h (0 Bft)
10.06.2018 13:13 22,2 °C 77 % 1009,0 hPa 0,0 mm 2,3 km/h (1 Bft) N-NW 337 ° 1 min 0,000 mm 7,6 UV-I 995 W/m² 18,0 °C 22,2 °C 6,4 km/h (2 Bft)
10.06.2018 13:14 22,7 °C 77 % 1009,0 hPa 0,0 mm 2,8 km/h (1 Bft) W-NW 294 ° 1 min 0,000 mm 4,1 UV-I 1030 W/m² 18,5 °C 22,7 °C 4,8 km/h (1 Bft)
10.06.2018 13:15 23,0 °C 69 % 1009,0 hPa 0,0 mm 4,4 km/h (1 Bft) W-NW 298 ° 1 min 0,000 mm 6,5 UV-I 1030 W/m² 17,0 °C 23,0 °C 6,4 km/h (2 Bft)
10.06.2018 13:16 23,2 °C 70 % 1009,0 hPa 0,0 mm 9,0 km/h (2 Bft) N-NW 335 ° 1 min 0,000 mm 3,1 UV-I 1030 W/m² 17,4 °C 23,2 °C 20,9 km/h (4 Bft)
10.06.2018 13:17 23,3 °C 70 % 1009,0 hPa 0,0 mm 9,2 km/h (2 Bft) NW 312 ° 0 min 0,000 mm 3,0 UV-I 188 W/m² 17,5 °C 23,3 °C 19,3 km/h (3 Bft)
10.06.2018 13:18 23,3 °C 69 % 1009,0 hPa 0,0 mm 11,0 km/h (2 Bft) W-NW 292 ° 0 min 0,000 mm 2,9 UV-I 181 W/m² 17,3 °C 23,3 °C 17,7 km/h (3 Bft)
10.06.2018 13:19 23,2 °C 67 % 1009,0 hPa 0,0 mm 9,3 km/h (2 Bft) NW 309 ° 0 min 0,000 mm 2,8 UV-I 172 W/m² 16,7 °C 23,2 °C 14,5 km/h (3 Bft)
10.06.2018 13:20 23,2 °C 65 % 1009,0 hPa 0,0 mm 11,9 km/h (2 Bft) W 264 ° 0 min 0,000 mm 2,8 UV-I 165 W/m² 16,2 °C 23,2 °C 16,1 km/h (3 Bft)
10.06.2018 13:21 23,1 °C 64 % 1009,0 hPa 0,0 mm 6,5 km/h (2 Bft) W-NW 302 ° 0 min 0,000 mm 2,8 UV-I 165 W/m² 15,9 °C 23,1 °C 12,9 km/h (3 Bft)
10.06.2018 13:22 23,2 °C 69 % 1009,0 hPa 0,0 mm 6,0 km/h (2 Bft) W-NW 302 ° 0 min 0,000 mm 7,5 UV-I 165 W/m² 17,2 °C 23,2 °C 9,7 km/h (2 Bft)
10.06.2018 13:23 23,3 °C 68 % 1009,0 hPa 0,0 mm 10,8 km/h (2 Bft) NW 321 ° 1 min 0,000 mm 7,6 UV-I 977 W/m² 17,1 °C 23,3 °C 19,3 km/h (3 Bft)
10.06.2018 13:24 23,7 °C 68 % 1009,0 hPa 0,0 mm 7,4 km/h (2 Bft) W 266 ° 1 min 0,000 mm 7,7 UV-I 967 W/m² 17,4 °C 23,7 °C 12,9 km/h (3 Bft)
10.06.2018 13:25 23,8 °C 67 % 1009,0 hPa 0,0 mm 5,2 km/h (1 Bft) S-SW 208 ° 1 min 0,000 mm 7,7 UV-I 967 W/m² 17,3 °C 23,8 °C 12,9 km/h (3 Bft)
10.06.2018 13:26 24,0 °C 66 % 1008,9 hPa 0,0 mm 0,8 km/h (0 Bft) W-NW 290 ° 1 min 0,000 mm 7,8 UV-I 963 W/m² 17,2 °C 24,0 °C 3,2 km/h (1 Bft)
10.06.2018 13:27 24,2 °C 67 % 1009,0 hPa 0,0 mm 9,3 km/h (2 Bft) W 267 ° 1 min 0,000 mm 7,9 UV-I 965 W/m² 17,7 °C 24,2 °C 16,1 km/h (3 Bft)
10.06.2018 13:28 24,4 °C 67 % 1008,9 hPa 0,0 mm 5,3 km/h (1 Bft) W-NW 294 ° 1 min 0,000 mm 8,0 UV-I 976 W/m² 17,9 °C 24,4 °C 11,3 km/h (2 Bft)
10.06.2018 13:29 24,5 °C 67 % 1008,9 hPa 0,0 mm 6,4 km/h (2 Bft) W-SW 241 ° 1 min 0,000 mm 8,0 UV-I 991 W/m² 18,0 °C 24,5 °C 12,9 km/h (3 Bft)
10.06.2018 13:30 24,6 °C 65 % 1008,9 hPa 0,0 mm 3,6 km/h (1 Bft) W-SW 242 ° 1 min 0,000 mm 8,2 UV-I 1007 W/m² 17,6 °C 24,6 °C 6,4 km/h (2 Bft)
10.06.2018 13:31 24,6 °C 63 % 1008,9 hPa 0,0 mm 5,2 km/h (1 Bft) W 265 ° 1 min 0,000 mm 8,2 UV-I 1013 W/m² 17,1 °C 24,6 °C 12,9 km/h (3 Bft)
10.06.2018 13:32 24,7 °C 63 % 1008,9 hPa 0,0 mm 10,9 km/h (2 Bft) W-SW 252 ° 1 min 0,000 mm 8,1 UV-I 1002 W/m² 17,2 °C 24,7 °C 19,3 km/h (3 Bft)
10.06.2018 13:33 24,8 °C 63 % 1009,0 hPa 0,0 mm 14,1 km/h (3 Bft) W-NW 288 ° 1 min 0,000 mm 8,0 UV-I 1014 W/m² 17,3 °C 24,8 °C 19,3 km/h (3 Bft)
10.06.2018 13:34 24,9 °C 63 % 1008,8 hPa 0,0 mm 6,8 km/h (2 Bft) W 261 ° 1 min 0,000 mm 8,1 UV-I 1035 W/m² 17,4 °C 24,9 °C 12,9 km/h (3 Bft)
10.06.2018 13:35 24,9 °C 63 % 1008,8 hPa 0,0 mm 7,2 km/h (2 Bft) W-SW 249 ° 1 min 0,000 mm 7,1 UV-I 1035 W/m² 17,4 °C 24,9 °C 11,3 km/h (2 Bft)
10.06.2018 13:36 24,8 °C 60 % 1008,8 hPa 0,0 mm 3,0 km/h (1 Bft) W-NW 282 ° 0 min 0,000 mm 3,2 UV-I 220 W/m² 16,5 °C 24,8 °C 9,7 km/h (2 Bft)
10.06.2018 13:37 24,6 °C 63 % 1008,9 hPa 0,0 mm 13,2 km/h (3 Bft) W 268 ° 0 min 0,000 mm 3,1 UV-I 211 W/m² 17,1 °C 24,6 °C 17,7 km/h (3 Bft)
10.06.2018 13:38 24,3 °C 60 % 1009,0 hPa 0,0 mm 10,0 km/h (2 Bft) W-SW 248 ° 0 min 0,000 mm 3,1 UV-I 206 W/m² 16,0 °C 24,3 °C 17,7 km/h (3 Bft)
10.06.2018 13:39 24,0 °C 62 % 1009,0 hPa 0,0 mm 5,4 km/h (1 Bft) W-SW 257 ° 0 min 0,000 mm 3,2 UV-I 213 W/m² 16,3 °C 24,0 °C 11,3 km/h (2 Bft)
10.06.2018 13:40 23,8 °C 62 % 1009,0 hPa 0,0 mm 8,6 km/h (2 Bft) SW 231 ° 0 min 0,000 mm 3,4 UV-I 227 W/m² 16,1 °C 23,8 °C 14,5 km/h (3 Bft)
10.06.2018 13:41 23,6 °C 65 % 1009,0 hPa 0,0 mm 10,1 km/h (2 Bft) S-SW 206 ° 0 min 0,000 mm 3,4 UV-I 227 W/m² 16,6 °C 23,6 °C 14,5 km/h (3 Bft)
10.06.2018 13:42 23,7 °C 64 % 1009,0 hPa 0,0 mm 5,7 km/h (1 Bft) W 263 ° 1 min 0,000 mm 8,2 UV-I 1042 W/m² 16,5 °C 23,7 °C 9,7 km/h (2 Bft)
10.06.2018 13:43 23,9 °C 65 % 1008,9 hPa 0,0 mm 5,8 km/h (2 Bft) S 180 ° 1 min 0,000 mm 8,2 UV-I 1042 W/m² 16,9 °C 23,9 °C 9,7 km/h (2 Bft)
10.06.2018 13:44 24,1 °C 65 % 1009,0 hPa 0,0 mm 2,1 km/h (1 Bft) N-NW 335 ° 1 min 0,000 mm 8,1 UV-I 1005 W/m² 17,1 °C 24,1 °C 4,8 km/h (1 Bft)
10.06.2018 13:45 24,4 °C 63 % 1008,9 hPa 0,0 mm 6,3 km/h (2 Bft) W 261 ° 1 min 0,000 mm 8,1 UV-I 990 W/m² 16,9 °C 24,4 °C 11,3 km/h (2 Bft)
10.06.2018 13:46 24,7 °C 61 % 1008,9 hPa 0,0 mm 10,1 km/h (2 Bft) W 262 ° 1 min 0,000 mm 8,0 UV-I 979 W/m² 16,7 °C 24,7 °C 16,1 km/h (3 Bft)
10.06.2018 13:47 24,8 °C 60 % 1008,9 hPa 0,0 mm 5,6 km/h (1 Bft) W 281 ° 1 min 0,000 mm 8,0 UV-I 969 W/m² 16,5 °C 24,8 °C 14,5 km/h (3 Bft)
10.06.2018 13:48 25,0 °C 62 % 1008,9 hPa 0,0 mm 5,8 km/h (2 Bft) W 277 ° 1 min 0,000 mm 8,0 UV-I 972 W/m² 17,2 °C 25,0 °C 12,9 km/h (3 Bft)
10.06.2018 13:49 25,2 °C 63 % 1008,9 hPa 0,0 mm 7,0 km/h (2 Bft) W-NW 299 ° 1 min 0,000 mm 8,1 UV-I 977 W/m² 17,6 °C 25,2 °C 12,9 km/h (3 Bft)
10.06.2018 13:50 25,3 °C 61 % 1008,9 hPa 0,0 mm 5,9 km/h (2 Bft) W-NW 288 ° 1 min 0,000 mm 8,1 UV-I 983 W/m² 17,2 °C 25,3 °C 12,9 km/h (3 Bft)
10.06.2018 13:51 25,4 °C 59 % 1008,9 hPa 0,0 mm 8,9 km/h (2 Bft) W-SW 257 ° 1 min 0,000 mm 8,1 UV-I 988 W/m² 16,8 °C 25,4 °C 14,5 km/h (3 Bft)
10.06.2018 13:52 25,5 °C 62 % 1008,9 hPa 0,0 mm 6,4 km/h (2 Bft) N 355 ° 1 min 0,000 mm 8,1 UV-I 1000 W/m² 17,7 °C 25,5 °C 9,7 km/h (2 Bft)
10.06.2018 13:53 25,6 °C 62 % 1008,9 hPa 0,0 mm 13,4 km/h (3 Bft) W-NW 283 ° 1 min 0,000 mm 8,1 UV-I 1005 W/m² 17,8 °C 25,6 °C 17,7 km/h (3 Bft)
10.06.2018 13:54 25,6 °C 58 % 1008,9 hPa 0,0 mm 14,4 km/h (3 Bft) W-NW 303 ° 1 min 0,000 mm 8,1 UV-I 984 W/m² 16,7 °C 25,6 °C 19,3 km/h (3 Bft)
10.06.2018 13:55 25,5 °C 57 % 1008,9 hPa 0,0 mm 13,5 km/h (3 Bft) W-NW 289 ° 1 min 0,000 mm 8,1 UV-I 984 W/m² 16,3 °C 25,5 °C 19,3 km/h (3 Bft)
10.06.2018 13:56 25,4 °C 59 % 1008,8 hPa 0,0 mm 4,7 km/h (1 Bft) W-NW 288 ° 1 min 0,000 mm 8,1 UV-I 981 W/m² 16,8 °C 25,4 °C 16,1 km/h (3 Bft)
10.06.2018 13:57 25,4 °C 59 % 1008,8 hPa 0,0 mm 6,5 km/h (2 Bft) W-NW 292 ° 1 min 0,000 mm 8,0 UV-I 981 W/m² 16,8 °C 25,4 °C 11,3 km/h (2 Bft)
10.06.2018 13:58 25,3 °C 55 % 1008,7 hPa 0,0 mm 6,0 km/h (2 Bft) NW 319 ° 1 min 0,000 mm 8,1 UV-I 984 W/m² 15,6 °C 25,3 °C 9,7 km/h (2 Bft)
10.06.2018 13:59 25,3 °C 57 % 1008,7 hPa 0,0 mm 4,7 km/h (1 Bft) NW 311 ° 1 min 0,000 mm 8,0 UV-I 983 W/m² 16,2 °C 25,3 °C 6,4 km/h (2 Bft)
10.06.2018 14:00 25,4 °C 59 % 1008,7 hPa 0,0 mm 6,3 km/h (2 Bft) NW 307 ° 1 min 0,000 mm 8,0 UV-I 984 W/m² 16,8 °C 25,4 °C 11,3 km/h (2 Bft)
10.06.2018 14:01 25,3 °C 61 % 1008,7 hPa 0,0 mm 8,1 km/h (2 Bft) W-NW 290 ° 1 min 0,483 mm 8,0 UV-I 984 W/m² 17,2 °C 25,3 °C 14,5 km/h (3 Bft)
10.06.2018 14:02 25,2 °C 61 % 1008,8 hPa 0,0 mm 6,8 km/h (2 Bft) N-NW 344 ° 1 min 0,000 mm 7,8 UV-I 956 W/m² 17,1 °C 25,2 °C 14,5 km/h (3 Bft)
10.06.2018 14:03 25,2 °C 62 % 1008,7 hPa 0,0 mm 11,0 km/h (2 Bft) W-NW 282 ° 1 min 0,000 mm 7,8 UV-I 956 W/m² 17,4 °C 25,2 °C 16,1 km/h (3 Bft)
10.06.2018 14:04 25,2 °C 59 % 1008,8 hPa 0,0 mm 9,8 km/h (2 Bft) W-NW 302 ° 1 min 0,000 mm 7,9 UV-I 970 W/m² 16,6 °C 25,2 °C 16,1 km/h (3 Bft)
10.06.2018 14:05 25,1 °C 57 % 1008,8 hPa 0,0 mm 10,2 km/h (2 Bft) W-NW 284 ° 1 min 0,000 mm 7,9 UV-I 986 W/m² 16,0 °C 25,1 °C 17,7 km/h (3 Bft)
10.06.2018 14:06 25,1 °C 62 % 1008,8 hPa 0,0 mm 12,7 km/h (3 Bft) NW 320 ° 1 min 0,000 mm 8,0 UV-I 1000 W/m² 17,3 °C 25,1 °C 17,7 km/h (3 Bft)
10.06.2018 14:07 25,3 °C 64 % 1008,8 hPa 0,0 mm 9,5 km/h (2 Bft) NW 324 ° 1 min 0,000 mm 7,9 UV-I 995 W/m² 18,0 °C 25,3 °C 17,7 km/h (3 Bft)
10.06.2018 14:08 25,3 °C 64 % 1008,8 hPa 0,0 mm 13,1 km/h (3 Bft) NW 320 ° 1 min 0,000 mm 6,9 UV-I 1004 W/m² 18,0 °C 25,3 °C 19,3 km/h (3 Bft)
10.06.2018 14:09 25,3 °C 64 % 1008,8 hPa 0,0 mm 9,5 km/h (2 Bft) W-NW 301 ° 1 min 0,000 mm 3,0 UV-I 1004 W/m² 18,0 °C 25,3 °C 16,1 km/h (3 Bft)
10.06.2018 14:10 25,2 °C 60 % 1008,8 hPa 0,0 mm 7,4 km/h (2 Bft) NW 319 ° 0 min 0,000 mm 2,9 UV-I 179 W/m² 16,9 °C 25,2 °C 11,3 km/h (2 Bft)
10.06.2018 14:11 24,9 °C 59 % 1008,8 hPa 0,0 mm 3,9 km/h (1 Bft) W-NW 295 ° 0 min 0,000 mm 3,1 UV-I 218 W/m² 16,3 °C 24,9 °C 6,4 km/h (2 Bft)
10.06.2018 14:12 24,6 °C 59 % 1008,8 hPa 0,0 mm 5,7 km/h (1 Bft) W-NW 302 ° 0 min 0,000 mm 3,6 UV-I 218 W/m² 16,0 °C 24,6 °C 8,0 km/h (2 Bft)
10.06.2018 14:13 24,5 °C 59 % 1008,9 hPa 0,0 mm 6,0 km/h (2 Bft) W-NW 286 ° 1 min 0,000 mm 7,8 UV-I 1000 W/m² 15,9 °C 24,5 °C 9,7 km/h (2 Bft)
10.06.2018 14:14 24,7 °C 63 % 1008,9 hPa 0,0 mm 5,2 km/h (1 Bft) N-NW 336 ° 1 min 0,000 mm 7,8 UV-I 979 W/m² 17,2 °C 24,7 °C 8,0 km/h (2 Bft)
10.06.2018 14:15 24,8 °C 61 % 1008,8 hPa 0,0 mm 7,5 km/h (2 Bft) NW 325 ° 1 min 0,000 mm 7,7 UV-I 960 W/m² 16,8 °C 24,8 °C 12,9 km/h (3 Bft)
10.06.2018 14:16 24,9 °C 61 % 1008,8 hPa 0,0 mm 6,6 km/h (2 Bft) W 281 ° 1 min 0,000 mm 7,6 UV-I 940 W/m² 16,8 °C 24,9 °C 8,0 km/h (2 Bft)
10.06.2018 14:17 25,1 °C 65 % 1008,7 hPa 0,0 mm 2,7 km/h (1 Bft) W 275 ° 1 min 0,000 mm 7,6 UV-I 944 W/m² 18,0 °C 25,1 °C 4,8 km/h (1 Bft)
10.06.2018 14:18 25,3 °C 61 % 1008,7 hPa 0,0 mm 6,2 km/h (2 Bft) NW 313 ° 1 min 0,000 mm 7,6 UV-I 958 W/m² 17,2 °C 25,3 °C 8,0 km/h (2 Bft)
10.06.2018 14:19 25,3 °C 62 % 1008,7 hPa 0,0 mm 8,0 km/h (2 Bft) NW 306 ° 1 min 0,000 mm 4,1 UV-I 958 W/m² 17,5 °C 25,3 °C 14,5 km/h (3 Bft)
10.06.2018 14:20 25,3 °C 60 % 1008,7 hPa 0,0 mm 3,5 km/h (1 Bft) N-NW 344 ° 1 min 0,000 mm 3,1 UV-I 958 W/m² 17,0 °C 25,3 °C 6,4 km/h (2 Bft)
10.06.2018 14:21 25,1 °C 60 % 1008,7 hPa 0,0 mm 4,2 km/h (1 Bft) NW 317 ° 0 min 0,000 mm 3,1 UV-I 160 W/m² 16,8 °C 25,1 °C 6,4 km/h (2 Bft)
10.06.2018 14:22 24,8 °C 59 % 1008,7 hPa 0,0 mm 5,0 km/h (1 Bft) NW 313 ° 0 min 0,000 mm 3,1 UV-I 223 W/m² 16,2 °C 24,8 °C 8,0 km/h (2 Bft)
10.06.2018 14:23 24,6 °C 60 % 1008,7 hPa 0,0 mm 6,4 km/h (2 Bft) W-NW 292 ° 0 min 0,000 mm 3,1 UV-I 223 W/m² 16,3 °C 24,6 °C 9,7 km/h (2 Bft)
10.06.2018 14:24 24,6 °C 60 % 1008,6 hPa 0,0 mm 5,1 km/h (1 Bft) W-NW 288 ° 1 min 0,000 mm 7,5 UV-I 967 W/m² 16,3 °C 24,6 °C 6,4 km/h (2 Bft)
10.06.2018 14:25 24,6 °C 61 % 1008,7 hPa 0,0 mm 5,4 km/h (1 Bft) NW 320 ° 1 min 0,000 mm 7,5 UV-I 954 W/m² 16,6 °C 24,6 °C 6,4 km/h (2 Bft)
10.06.2018 14:26 24,7 °C 60 % 1008,7 hPa 0,0 mm 8,9 km/h (2 Bft) W-NW 290 ° 1 min 0,000 mm 7,6 UV-I 949 W/m² 16,4 °C 24,7 °C 17,7 km/h (3 Bft)
10.06.2018 14:27 24,9 °C 60 % 1008,7 hPa 0,0 mm 15,6 km/h (3 Bft) NW 326 ° 1 min 0,000 mm 7,5 UV-I 937 W/m² 16,6 °C 24,9 °C 20,9 km/h (4 Bft)
10.06.2018 14:28 25,1 °C 61 % 1008,7 hPa 0,0 mm 8,6 km/h (2 Bft) W 275 ° 1 min 0,000 mm 7,5 UV-I 942 W/m² 17,0 °C 25,1 °C 16,1 km/h (3 Bft)
10.06.2018 14:29 25,3 °C 57 % 1008,7 hPa 0,0 mm 7,3 km/h (2 Bft) W-NW 300 ° 1 min 0,000 mm 7,6 UV-I 958 W/m² 16,2 °C 25,3 °C 11,3 km/h (2 Bft)
10.06.2018 14:30 25,4 °C 61 % 1008,7 hPa 0,0 mm 11,7 km/h (2 Bft) W-NW 288 ° 1 min 0,000 mm 7,6 UV-I 958 W/m² 17,3 °C 25,4 °C 14,5 km/h (3 Bft)
10.06.2018 14:31 25,4 °C 59 % 1008,7 hPa 0,0 mm 13,3 km/h (3 Bft) NW 317 ° 0 min 0,000 mm 4,1 UV-I 207 W/m² 16,8 °C 25,4 °C 24,1 km/h (4 Bft)
10.06.2018 14:32 25,2 °C 60 % 1008,8 hPa 0,0 mm 9,8 km/h (2 Bft) NW 306 ° 0 min 0,000 mm 7,6 UV-I 207 W/m² 16,9 °C 25,2 °C 17,7 km/h (3 Bft)
10.06.2018 14:33 25,1 °C 58 % 1008,8 hPa 0,0 mm 9,1 km/h (2 Bft) NW 310 ° 0 min 0,000 mm 7,5 UV-I 207 W/m² 16,2 °C 25,1 °C 16,1 km/h (3 Bft)
10.06.2018 14:34 24,9 °C 59 % 1008,8 hPa 0,0 mm 12,7 km/h (3 Bft) W-NW 300 ° 0 min 0,000 mm 3,9 UV-I 207 W/m² 16,3 °C 24,9 °C 17,7 km/h (3 Bft)
10.06.2018 14:35 24,9 °C 60 % 1008,8 hPa 0,0 mm 13,7 km/h (3 Bft) NW 325 ° 1 min 0,000 mm 6,8 UV-I 1016 W/m² 16,6 °C 24,9 °C 17,7 km/h (3 Bft)
10.06.2018 14:36 24,9 °C 60 % 1008,8 hPa 0,0 mm 11,6 km/h (2 Bft) N-NW 335 ° 1 min 0,000 mm 3,5 UV-I 1016 W/m² 16,6 °C 24,9 °C 17,7 km/h (3 Bft)
10.06.2018 14:37 24,8 °C 59 % 1008,8 hPa 0,0 mm 9,2 km/h (2 Bft) NW 315 ° 1 min 0,000 mm 4,0 UV-I 1016 W/m² 16,2 °C 24,8 °C 17,7 km/h (3 Bft)
10.06.2018 14:38 24,7 °C 60 % 1008,8 hPa 0,0 mm 8,7 km/h (2 Bft) N 355 ° 1 min 0,000 mm 7,6 UV-I 1016 W/m² 16,4 °C 24,7 °C 16,1 km/h (3 Bft)
10.06.2018 14:39 24,7 °C 61 % 1008,8 hPa 0,0 mm 7,1 km/h (2 Bft) N-NW 346 ° 1 min 0,000 mm 7,6 UV-I 1013 W/m² 16,7 °C 24,7 °C 11,3 km/h (2 Bft)
10.06.2018 14:40 24,8 °C 62 % 1008,9 hPa 0,0 mm 8,4 km/h (2 Bft) N-NW 346 ° 1 min 0,000 mm 4,4 UV-I 1013 W/m² 17,0 °C 24,8 °C 14,5 km/h (3 Bft)
10.06.2018 14:41 24,9 °C 62 % 1008,9 hPa 0,0 mm 9,7 km/h (2 Bft) W-NW 293 ° 1 min 0,000 mm 3,7 UV-I 1013 W/m² 17,1 °C 24,9 °C 16,1 km/h (3 Bft)
10.06.2018 14:42 24,9 °C 63 % 1008,8 hPa 0,0 mm 7,3 km/h (2 Bft) NW 305 ° 0 min 0,000 mm 3,7 UV-I 195 W/m² 17,4 °C 24,9 °C 12,9 km/h (3 Bft)
10.06.2018 14:43 24,9 °C 62 % 1008,9 hPa 0,0 mm 8,5 km/h (2 Bft) NW 316 ° 0 min 0,000 mm 4,1 UV-I 195 W/m² 17,1 °C 24,9 °C 17,7 km/h (3 Bft)
10.06.2018 14:44 24,8 °C 58 % 1008,9 hPa 0,0 mm 5,8 km/h (2 Bft) NW 313 ° 0 min 0,000 mm 7,1 UV-I 195 W/m² 16,0 °C 24,8 °C 9,7 km/h (2 Bft)
10.06.2018 14:45 24,8 °C 58 % 1008,8 hPa 0,0 mm 6,3 km/h (2 Bft) N-NW 348 ° 1 min 0,000 mm 3,7 UV-I 983 W/m² 16,0 °C 24,8 °C 9,7 km/h (2 Bft)
10.06.2018 14:46 24,8 °C 58 % 1008,8 hPa 0,0 mm 8,9 km/h (2 Bft) W-NW 290 ° 1 min 0,000 mm 7,3 UV-I 983 W/m² 16,0 °C 24,8 °C 16,1 km/h (3 Bft)
10.06.2018 14:47 24,9 °C 61 % 1008,8 hPa 0,0 mm 4,7 km/h (1 Bft) NW 318 ° 1 min 0,000 mm 7,3 UV-I 953 W/m² 16,8 °C 24,9 °C 11,3 km/h (2 Bft)
10.06.2018 14:48 25,0 °C 58 % 1008,8 hPa 0,0 mm 3,2 km/h (1 Bft) W-SW 244 ° 1 min 0,000 mm 7,2 UV-I 937 W/m² 16,1 °C 25,0 °C 6,4 km/h (2 Bft)
10.06.2018 14:49 25,2 °C 58 % 1008,8 hPa 0,0 mm 8,9 km/h (2 Bft) W-NW 302 ° 1 min 0,000 mm 7,2 UV-I 942 W/m² 16,3 °C 25,2 °C 14,5 km/h (3 Bft)
10.06.2018 14:50 25,3 °C 58 % 1008,8 hPa 0,0 mm 7,0 km/h (2 Bft) W 277 ° 1 min 0,000 mm 7,1 UV-I 935 W/m² 16,4 °C 25,3 °C 11,3 km/h (2 Bft)
10.06.2018 14:51 25,4 °C 62 % 1008,8 hPa 0,0 mm 6,9 km/h (2 Bft) W-NW 287 ° 1 min 0,000 mm 7,2 UV-I 942 W/m² 17,6 °C 25,4 °C 12,9 km/h (3 Bft)
10.06.2018 14:52 25,6 °C 58 % 1008,8 hPa 0,0 mm 7,6 km/h (2 Bft) W-NW 303 ° 1 min 0,000 mm 7,2 UV-I 949 W/m² 16,7 °C 25,6 °C 12,9 km/h (3 Bft)
10.06.2018 14:53 25,6 °C 58 % 1008,8 hPa 0,0 mm 9,7 km/h (2 Bft) N 355 ° 1 min 0,000 mm 6,7 UV-I 949 W/m² 16,7 °C 25,6 °C 19,3 km/h (3 Bft)
10.06.2018 14:54 25,6 °C 57 % 1008,8 hPa 0,0 mm 8,4 km/h (2 Bft) N-NW 339 ° 0 min 0,000 mm 6,9 UV-I 297 W/m² 16,4 °C 25,6 °C 14,5 km/h (3 Bft)
10.06.2018 14:55 25,6 °C 55 % 1008,9 hPa 0,0 mm 7,6 km/h (2 Bft) N-NW 327 ° 0 min 0,000 mm 6,9 UV-I 297 W/m² 15,9 °C 25,6 °C 12,9 km/h (3 Bft)
10.06.2018 14:56 25,3 °C 54 % 1008,8 hPa 0,0 mm 2,0 km/h (1 Bft) NW 325 ° 0 min 0,000 mm 2,6 UV-I 297 W/m² 15,3 °C 25,3 °C 4,8 km/h (1 Bft)
10.06.2018 14:57 25,2 °C 56 % 1008,8 hPa 0,0 mm 7,8 km/h (2 Bft) W 263 ° 0 min 0,000 mm 2,4 UV-I 127 W/m² 15,8 °C 25,2 °C 12,9 km/h (3 Bft)
10.06.2018 14:58 24,9 °C 57 % 1008,8 hPa 0,0 mm 5,1 km/h (1 Bft) NW 315 ° 0 min 0,000 mm 2,3 UV-I 127 W/m² 15,8 °C 24,9 °C 9,7 km/h (2 Bft)
10.06.2018 14:59 24,8 °C 57 % 1008,8 hPa 0,0 mm 4,8 km/h (1 Bft) NW 309 ° 0 min 0,000 mm 2,3 UV-I 139 W/m² 15,7 °C 24,8 °C 9,7 km/h (2 Bft)
10.06.2018 15:00 24,6 °C 59 % 1008,8 hPa 0,0 mm 6,5 km/h (2 Bft) W 277 ° 0 min 0,483 mm 2,6 UV-I 174 W/m² 16,0 °C 24,6 °C 9,7 km/h (2 Bft)
10.06.2018 15:01 24,3 °C 60 % 1008,8 hPa 0,0 mm 8,5 km/h (2 Bft) N-NW 327 ° 0 min 0,000 mm 2,6 UV-I 190 W/m² 16,0 °C 24,3 °C 12,9 km/h (3 Bft)
10.06.2018 15:02 24,2 °C 59 % 1008,9 hPa 0,0 mm 7,1 km/h (2 Bft) NW 325 ° 0 min 0,000 mm 2,8 UV-I 195 W/m² 15,7 °C 24,2 °C 12,9 km/h (3 Bft)
10.06.2018 15:03 24,2 °C 59 % 1008,9 hPa 0,0 mm 4,4 km/h (1 Bft) NW 317 ° 0 min 0,000 mm 4,5 UV-I 195 W/m² 15,7 °C 24,2 °C 6,4 km/h (2 Bft)
10.06.2018 15:04 24,3 °C 62 % 1008,8 hPa 0,0 mm 6,5 km/h (2 Bft) W-NW 282 ° 1 min 0,000 mm 7,0 UV-I 998 W/m² 16,5 °C 24,3 °C 12,9 km/h (3 Bft)
10.06.2018 15:05 24,5 °C 60 % 1008,8 hPa 0,0 mm 3,0 km/h (1 Bft) W-NW 302 ° 1 min 0,000 mm 7,1 UV-I 995 W/m² 16,2 °C 24,5 °C 4,8 km/h (1 Bft)
10.06.2018 15:06 24,7 °C 58 % 1008,9 hPa 0,0 mm 7,8 km/h (2 Bft) W-NW 292 ° 1 min 0,000 mm 5,9 UV-I 995 W/m² 15,9 °C 24,7 °C 12,9 km/h (3 Bft)
10.06.2018 15:07 24,8 °C 57 % 1008,9 hPa 0,0 mm 10,1 km/h (2 Bft) W-NW 282 ° 1 min 0,000 mm 7,1 UV-I 995 W/m² 15,7 °C 24,8 °C 19,3 km/h (3 Bft)
10.06.2018 15:08 24,9 °C 56 % 1008,9 hPa 0,0 mm 10,9 km/h (2 Bft) W-NW 291 ° 1 min 0,000 mm 3,8 UV-I 995 W/m² 15,5 °C 24,9 °C 17,7 km/h (3 Bft)
10.06.2018 15:09 24,9 °C 57 % 1008,9 hPa 0,0 mm 9,3 km/h (2 Bft) W-NW 301 ° 1 min 0,000 mm 5,1 UV-I 995 W/m² 15,8 °C 24,9 °C 16,1 km/h (3 Bft)
10.06.2018 15:10 24,9 °C 58 % 1008,9 hPa 0,0 mm 7,8 km/h (2 Bft) W-NW 289 ° 1 min 0,000 mm 6,9 UV-I 923 W/m² 16,1 °C 24,9 °C 11,3 km/h (2 Bft)
10.06.2018 15:11 25,1 °C 58 % 1008,8 hPa 0,0 mm 3,8 km/h (1 Bft) NW 320 ° 1 min 0,000 mm 4,0 UV-I 923 W/m² 16,2 °C 25,1 °C 6,4 km/h (2 Bft)
10.06.2018 15:12 25,2 °C 59 % 1008,8 hPa 0,0 mm 15,5 km/h (3 Bft) N-NW 337 ° 1 min 0,000 mm 6,8 UV-I 923 W/m² 16,6 °C 25,2 °C 19,3 km/h (3 Bft)
10.06.2018 15:13 25,3 °C 57 % 1008,8 hPa 0,0 mm 11,3 km/h (2 Bft) NW 309 ° 1 min 0,000 mm 6,8 UV-I 900 W/m² 16,2 °C 25,3 °C 16,1 km/h (3 Bft)
10.06.2018 15:14 25,3 °C 56 % 1008,8 hPa 0,0 mm 11,8 km/h (2 Bft) N-NW 334 ° 1 min 0,000 mm 6,8 UV-I 882 W/m² 15,9 °C 25,3 °C 17,7 km/h (3 Bft)
10.06.2018 15:15 25,3 °C 56 % 1008,8 hPa 0,0 mm 11,2 km/h (2 Bft) W-SW 249 ° 1 min 0,000 mm 6,7 UV-I 875 W/m² 15,9 °C 25,3 °C 16,1 km/h (3 Bft)
10.06.2018 15:16 25,2 °C 54 % 1008,8 hPa 0,0 mm 11,1 km/h (2 Bft) W-NW 296 ° 1 min 0,000 mm 6,4 UV-I 875 W/m² 15,2 °C 25,2 °C 16,1 km/h (3 Bft)
10.06.2018 15:17 25,2 °C 54 % 1008,8 hPa 0,0 mm 8,0 km/h (2 Bft) N-NW 342 ° 1 min 0,000 mm 6,7 UV-I 870 W/m² 15,2 °C 25,2 °C 16,1 km/h (3 Bft)
10.06.2018 15:18 25,3 °C 57 % 1008,8 hPa 0,0 mm 14,2 km/h (3 Bft) NW 323 ° 1 min 0,000 mm 6,6 UV-I 867 W/m² 16,2 °C 25,3 °C 19,3 km/h (3 Bft)
10.06.2018 15:19 25,3 °C 55 % 1008,9 hPa 0,0 mm 10,1 km/h (2 Bft) W 281 ° 1 min 0,000 mm 6,8 UV-I 867 W/m² 15,6 °C 25,3 °C 19,3 km/h (3 Bft)
10.06.2018 15:20 25,3 °C 53 % 1008,9 hPa 0,0 mm 7,1 km/h (2 Bft) NW 320 ° 1 min 0,000 mm 6,7 UV-I 893 W/m² 15,0 °C 25,3 °C 12,9 km/h (3 Bft)
10.06.2018 15:21 25,3 °C 55 % 1008,8 hPa 0,0 mm 7,0 km/h (2 Bft) W 281 ° 1 min 0,000 mm 6,8 UV-I 895 W/m² 15,6 °C 25,3 °C 12,9 km/h (3 Bft)
10.06.2018 15:22 25,3 °C 55 % 1008,8 hPa 0,0 mm 8,0 km/h (2 Bft) N-NW 333 ° 1 min 0,000 mm 6,7 UV-I 888 W/m² 15,6 °C 25,3 °C 16,1 km/h (3 Bft)
10.06.2018 15:23 25,4 °C 56 % 1008,8 hPa 0,0 mm 12,3 km/h (3 Bft) NW 304 ° 1 min 0,000 mm 6,7 UV-I 891 W/m² 16,0 °C 25,4 °C 19,3 km/h (3 Bft)
10.06.2018 15:24 25,5 °C 56 % 1008,8 hPa 0,0 mm 12,5 km/h (3 Bft) NW 315 ° 1 min 0,000 mm 6,7 UV-I 860 W/m² 16,1 °C 25,5 °C 19,3 km/h (3 Bft)
10.06.2018 15:25 25,6 °C 56 % 1008,8 hPa 0,0 mm 9,1 km/h (2 Bft) N-NW 329 ° 1 min 0,000 mm 6,7 UV-I 891 W/m² 16,2 °C 25,6 °C 14,5 km/h (3 Bft)
10.06.2018 15:26 25,6 °C 55 % 1008,8 hPa 0,0 mm 13,5 km/h (3 Bft) N 5 ° 1 min 0,000 mm 6,7 UV-I 888 W/m² 15,9 °C 25,6 °C 17,7 km/h (3 Bft)
10.06.2018 15:27 25,7 °C 54 % 1008,8 hPa 0,0 mm 6,0 km/h (2 Bft) W-SW 255 ° 1 min 0,000 mm 6,6 UV-I 877 W/m² 15,7 °C 25,7 °C 14,5 km/h (3 Bft)
10.06.2018 15:28 25,7 °C 54 % 1008,8 hPa 0,0 mm 10,1 km/h (2 Bft) NW 320 ° 1 min 0,000 mm 6,6 UV-I 874 W/m² 15,7 °C 25,7 °C 17,7 km/h (3 Bft)
10.06.2018 15:29 25,7 °C 54 % 1008,8 hPa 0,0 mm 11,9 km/h (2 Bft) W-NW 302 ° 1 min 0,000 mm 6,4 UV-I 861 W/m² 15,7 °C 25,7 °C 16,1 km/h (3 Bft)
10.06.2018 15:30 25,7 °C 55 % 1008,8 hPa 0,0 mm 8,6 km/h (2 Bft) NW 310 ° 1 min 0,000 mm 6,4 UV-I 856 W/m² 16,0 °C 25,7 °C 12,9 km/h (3 Bft)
10.06.2018 15:31 25,7 °C 51 % 1008,8 hPa 0,0 mm 8,0 km/h (2 Bft) W-NW 298 ° 1 min 0,000 mm 6,4 UV-I 872 W/m² 14,8 °C 25,7 °C 12,9 km/h (3 Bft)
10.06.2018 15:32 25,6 °C 55 % 1008,8 hPa 0,0 mm 7,0 km/h (2 Bft) W 278 ° 1 min 0,000 mm 6,4 UV-I 879 W/m² 15,9 °C 25,6 °C 12,9 km/h (3 Bft)
10.06.2018 15:33 25,5 °C 54 % 1008,7 hPa 0,0 mm 7,1 km/h (2 Bft) W 276 ° 1 min 0,000 mm 4,9 UV-I 889 W/m² 15,5 °C 25,5 °C 12,9 km/h (3 Bft)
10.06.2018 15:34 25,5 °C 55 % 1008,8 hPa 0,0 mm 12,9 km/h (3 Bft) W-NW 302 ° 1 min 0,000 mm 5,3 UV-I 889 W/m² 15,8 °C 25,5 °C 19,3 km/h (3 Bft)
10.06.2018 15:35 25,4 °C 52 % 1008,8 hPa 0,0 mm 10,0 km/h (2 Bft) W 279 ° 1 min 0,000 mm 6,5 UV-I 889 W/m² 14,8 °C 25,4 °C 14,5 km/h (3 Bft)
10.06.2018 15:36 25,3 °C 54 % 1008,8 hPa 0,0 mm 7,3 km/h (2 Bft) W-NW 300 ° 1 min 0,000 mm 6,4 UV-I 954 W/m² 15,3 °C 25,3 °C 12,9 km/h (3 Bft)
10.06.2018 15:37 25,3 °C 55 % 1008,7 hPa 0,0 mm 7,0 km/h (2 Bft) W 265 ° 1 min 0,000 mm 5,9 UV-I 951 W/m² 15,6 °C 25,3 °C 12,9 km/h (3 Bft)
10.06.2018 15:38 25,3 °C 53 % 1008,8 hPa 0,0 mm 9,3 km/h (2 Bft) NW 307 ° 1 min 0,000 mm 6,1 UV-I 963 W/m² 15,0 °C 25,3 °C 16,1 km/h (3 Bft)
10.06.2018 15:39 25,3 °C 54 % 1008,8 hPa 0,0 mm 8,1 km/h (2 Bft) N-NW 335 ° 1 min 0,000 mm 5,9 UV-I 963 W/m² 15,3 °C 25,3 °C 12,9 km/h (3 Bft)
10.06.2018 15:40 25,5 °C 58 % 1008,7 hPa 0,0 mm 7,4 km/h (2 Bft) NO 34 ° 1 min 0,000 mm 3,9 UV-I 963 W/m² 16,6 °C 25,5 °C 16,1 km/h (3 Bft)
10.06.2018 15:41 25,4 °C 59 % 1008,8 hPa 0,0 mm 11,0 km/h (2 Bft) N-NW 333 ° 0 min 0,000 mm 3,7 UV-I 417 W/m² 16,8 °C 25,4 °C 17,7 km/h (3 Bft)
10.06.2018 15:42 25,2 °C 58 % 1008,8 hPa 0,0 mm 6,0 km/h (2 Bft) N-NW 342 ° 0 min 0,000 mm 3,0 UV-I 417 W/m² 16,3 °C 25,2 °C 12,9 km/h (3 Bft)
10.06.2018 15:43 24,9 °C 60 % 1008,8 hPa 0,0 mm 6,2 km/h (2 Bft) O 90 ° 0 min 0,000 mm 2,8 UV-I 250 W/m² 16,6 °C 24,9 °C 11,3 km/h (2 Bft)
10.06.2018 15:44 24,7 °C 61 % 1008,8 hPa 0,0 mm 6,0 km/h (2 Bft) N-NW 336 ° 0 min 0,000 mm 2,8 UV-I 267 W/m² 16,7 °C 24,7 °C 11,3 km/h (2 Bft)
10.06.2018 15:45 24,6 °C 62 % 1008,9 hPa 0,0 mm 5,2 km/h (1 Bft) N 11 ° 0 min 0,000 mm 3,0 UV-I 279 W/m² 16,8 °C 24,6 °C 9,7 km/h (2 Bft)
10.06.2018 15:46 24,4 °C 63 % 1008,9 hPa 0,0 mm 9,5 km/h (2 Bft) W-NW 300 ° 0 min 0,000 mm 3,5 UV-I 323 W/m² 16,9 °C 24,4 °C 17,7 km/h (3 Bft)
10.06.2018 15:47 24,3 °C 64 % 1008,9 hPa 0,0 mm 7,3 km/h (2 Bft) W-NW 298 ° 0 min 0,000 mm 3,4 UV-I 323 W/m² 17,0 °C 24,3 °C 16,1 km/h (3 Bft)
10.06.2018 15:48 24,1 °C 65 % 1008,8 hPa 0,0 mm 8,8 km/h (2 Bft) NW 318 ° 0 min 0,000 mm 3,1 UV-I 323 W/m² 17,1 °C 24,1 °C 14,5 km/h (3 Bft)
10.06.2018 15:49 23,9 °C 64 % 1008,7 hPa 0,0 mm 8,9 km/h (2 Bft) N-NW 338 ° 0 min 0,000 mm 3,0 UV-I 236 W/m² 16,7 °C 23,9 °C 17,7 km/h (3 Bft)
10.06.2018 15:50 23,8 °C 64 % 1008,8 hPa 0,0 mm 8,0 km/h (2 Bft) N-NO 28 ° 0 min 0,000 mm 3,1 UV-I 236 W/m² 16,6 °C 23,8 °C 12,9 km/h (3 Bft)
10.06.2018 15:51 23,7 °C 64 % 1008,7 hPa 0,0 mm 10,3 km/h (2 Bft) N-NO 17 ° 0 min 0,000 mm 4,8 UV-I 236 W/m² 16,5 °C 23,7 °C 12,9 km/h (3 Bft)
10.06.2018 15:52 23,7 °C 64 % 1008,7 hPa 0,0 mm 8,0 km/h (2 Bft) N 360 ° 1 min 0,000 mm 4,6 UV-I 821 W/m² 16,5 °C 23,7 °C 12,9 km/h (3 Bft)
10.06.2018 15:53 23,9 °C 66 % 1008,8 hPa 0,0 mm 6,2 km/h (2 Bft) N-NW 348 ° 1 min 0,000 mm 5,1 UV-I 782 W/m² 17,1 °C 23,9 °C 12,9 km/h (3 Bft)
10.06.2018 15:54 23,9 °C 64 % 1008,8 hPa 0,0 mm 2,7 km/h (1 Bft) W 259 ° 1 min 0,000 mm 4,7 UV-I 782 W/m² 16,7 °C 23,9 °C 8,0 km/h (2 Bft)
10.06.2018 15:55 24,0 °C 65 % 1008,7 hPa 0,0 mm 4,6 km/h (1 Bft) N 10 ° 1 min 0,000 mm 4,8 UV-I 782 W/m² 17,0 °C 24,0 °C 11,3 km/h (2 Bft)
10.06.2018 15:56 24,1 °C 62 % 1008,7 hPa 0,0 mm 8,3 km/h (2 Bft) N 355 ° 1 min 0,000 mm 4,2 UV-I 691 W/m² 16,4 °C 24,1 °C 12,9 km/h (3 Bft)
10.06.2018 15:57 24,3 °C 65 % 1008,7 hPa 0,0 mm 5,7 km/h (1 Bft) N-NW 329 ° 1 min 0,000 mm 4,9 UV-I 775 W/m² 17,3 °C 24,3 °C 8,0 km/h (2 Bft)
10.06.2018 15:58 24,3 °C 63 % 1008,6 hPa 0,0 mm 5,2 km/h (1 Bft) N-NW 346 ° 1 min 0,000 mm 4,9 UV-I 784 W/m² 16,8 °C 24,3 °C 12,9 km/h (3 Bft)
10.06.2018 15:59 24,3 °C 62 % 1008,7 hPa 0,0 mm 8,4 km/h (2 Bft) N 355 ° 1 min 0,000 mm 4,9 UV-I 800 W/m² 16,5 °C 24,3 °C 14,5 km/h (3 Bft)
10.06.2018 16:00 24,3 °C 64 % 1008,7 hPa 0,0 mm 2,3 km/h (1 Bft) N 349 ° 1 min 0,508 mm 3,6 UV-I 800 W/m² 17,0 °C 24,3 °C 4,8 km/h (1 Bft)
10.06.2018 16:01 24,3 °C 66 % 1008,7 hPa 0,0 mm 1,9 km/h (1 Bft) N 9 ° 0 min 0,000 mm 3,6 UV-I 457 W/m² 17,5 °C 24,3 °C 3,2 km/h (1 Bft)
10.06.2018 16:02 24,3 °C 64 % 1008,7 hPa 0,0 mm 1,8 km/h (1 Bft) N-NO 16 ° 0 min 0,000 mm 4,8 UV-I 457 W/m² 17,0 °C 24,3 °C 3,2 km/h (1 Bft)
10.06.2018 16:03 24,2 °C 64 % 1008,7 hPa 0,0 mm 1,4 km/h (1 Bft) NO 38 ° 0 min 0,000 mm 4,4 UV-I 457 W/m² 16,9 °C 24,2 °C 3,2 km/h (1 Bft)
10.06.2018 16:04 24,1 °C 63 % 1008,7 hPa 0,0 mm 2,1 km/h (1 Bft) O-NO 76 ° 0 min 0,000 mm 3,0 UV-I 457 W/m² 16,6 °C 24,1 °C 4,8 km/h (1 Bft)
10.06.2018 16:05 23,9 °C 65 % 1008,7 hPa 0,0 mm 3,5 km/h (1 Bft) O-NO 70 ° 0 min 0,000 mm 3,6 UV-I 457 W/m² 16,9 °C 23,9 °C 6,4 km/h (2 Bft)
10.06.2018 16:06 23,9 °C 65 % 1008,8 hPa 0,0 mm 4,6 km/h (1 Bft) N-NO 27 ° 0 min 0,000 mm 4,8 UV-I 457 W/m² 16,9 °C 23,9 °C 8,0 km/h (2 Bft)
10.06.2018 16:07 24,0 °C 66 % 1008,7 hPa 0,0 mm 2,8 km/h (1 Bft) N-NO 27 ° 1 min 0,000 mm 4,8 UV-I 696 W/m² 17,2 °C 24,0 °C 3,2 km/h (1 Bft)
10.06.2018 16:08 24,1 °C 66 % 1008,7 hPa 0,0 mm 5,8 km/h (2 Bft) N 9 ° 1 min 0,000 mm 3,3 UV-I 696 W/m² 17,3 °C 24,1 °C 11,3 km/h (2 Bft)
10.06.2018 16:10 23,9 °C 63 % 1008,7 hPa 0,0 mm 4,4 km/h (1 Bft) O 91 ° 0 min 0,000 mm 2,8 UV-I 153 W/m² 16,4 °C 23,9 °C 8,0 km/h (2 Bft)
10.06.2018 16:11 23,9 °C 64 % 1008,7 hPa 0,0 mm 1,7 km/h (1 Bft) O 82 ° 0 min 0,000 mm 2,7 UV-I 155 W/m² 16,7 °C 23,9 °C 4,8 km/h (1 Bft)
10.06.2018 16:12 23,8 °C 64 % 1008,8 hPa 0,0 mm 6,8 km/h (2 Bft) NO 40 ° 0 min 0,000 mm 2,6 UV-I 132 W/m² 16,6 °C 23,8 °C 11,3 km/h (2 Bft)
10.06.2018 16:13 23,8 °C 65 % 1008,8 hPa 0,0 mm 4,1 km/h (1 Bft) O-NO 63 ° 0 min 0,000 mm 2,7 UV-I 146 W/m² 16,8 °C 23,8 °C 6,4 km/h (2 Bft)
10.06.2018 16:14 23,8 °C 66 % 1008,7 hPa 0,0 mm 3,9 km/h (1 Bft) O-NO 65 ° 0 min 0,000 mm 2,6 UV-I 141 W/m² 17,1 °C 23,8 °C 6,4 km/h (2 Bft)
10.06.2018 16:15 23,8 °C 65 % 1008,7 hPa 0,0 mm 2,5 km/h (1 Bft) N-NO 26 ° 0 min 0,000 mm 2,6 UV-I 141 W/m² 16,8 °C 23,8 °C 4,8 km/h (1 Bft)
10.06.2018 16:16 23,9 °C 68 % 1008,7 hPa 0,0 mm 5,3 km/h (1 Bft) W-NW 297 ° 0 min 0,000 mm 2,6 UV-I 141 W/m² 17,6 °C 23,9 °C 11,3 km/h (2 Bft)
10.06.2018 16:17 23,9 °C 65 % 1008,6 hPa 0,0 mm 7,0 km/h (2 Bft) N-NW 345 ° 0 min 0,000 mm 2,5 UV-I 134 W/m² 16,9 °C 23,9 °C 12,9 km/h (3 Bft)
10.06.2018 16:18 23,9 °C 66 % 1008,7 hPa 0,0 mm 6,9 km/h (2 Bft) N-NW 337 ° 0 min 0,000 mm 2,5 UV-I 148 W/m² 17,1 °C 23,9 °C 12,9 km/h (3 Bft)
10.06.2018 16:19 23,9 °C 65 % 1008,7 hPa 0,0 mm 4,4 km/h (1 Bft) NW 325 ° 0 min 0,000 mm 2,4 UV-I 151 W/m² 16,9 °C 23,9 °C 6,4 km/h (2 Bft)
10.06.2018 16:20 23,9 °C 65 % 1008,7 hPa 0,0 mm 2,4 km/h (1 Bft) N-NO 16 ° 0 min 0,000 mm 2,3 UV-I 155 W/m² 16,9 °C 23,9 °C 4,8 km/h (1 Bft)
10.06.2018 16:21 23,9 °C 65 % 1008,7 hPa 0,0 mm 2,9 km/h (1 Bft) N-NO 32 ° 0 min 0,000 mm 2,2 UV-I 148 W/m² 16,9 °C 23,9 °C 4,8 km/h (1 Bft)
10.06.2018 16:22 23,9 °C 65 % 1008,7 hPa 0,0 mm 2,7 km/h (1 Bft) NO 41 ° 0 min 0,000 mm 2,2 UV-I 148 W/m² 16,9 °C 23,9 °C 6,4 km/h (2 Bft)
10.06.2018 16:23 23,8 °C 66 % 1008,7 hPa 0,0 mm 1,3 km/h (1 Bft) NO 44 ° 0 min 0,000 mm 2,2 UV-I 144 W/m² 17,1 °C 23,8 °C 3,2 km/h (1 Bft)
10.06.2018 16:24 23,7 °C 65 % 1008,6 hPa 0,0 mm 4,4 km/h (1 Bft) O-NO 61 ° 0 min 0,000 mm 2,3 UV-I 156 W/m² 16,7 °C 23,7 °C 6,4 km/h (2 Bft)
10.06.2018 16:25 23,7 °C 65 % 1008,6 hPa 0,0 mm 5,6 km/h (1 Bft) O 94 ° 0 min 0,000 mm 2,3 UV-I 163 W/m² 16,7 °C 23,7 °C 6,4 km/h (2 Bft)
10.06.2018 16:26 23,7 °C 65 % 1008,6 hPa 0,0 mm 2,0 km/h (1 Bft) O-NO 75 ° 0 min 0,000 mm 2,4 UV-I 192 W/m² 16,7 °C 23,7 °C 6,4 km/h (2 Bft)
10.06.2018 16:27 23,7 °C 65 % 1008,7 hPa 0,0 mm 0,3 km/h (0 Bft) O-NO 75 ° 0 min 0,000 mm 2,4 UV-I 188 W/m² 16,7 °C 23,7 °C 3,2 km/h (1 Bft)
10.06.2018 16:28 23,7 °C 69 % 1008,6 hPa 0,0 mm 1,3 km/h (1 Bft) O-NO 77 ° 0 min 0,000 mm 2,5 UV-I 207 W/m² 17,7 °C 23,7 °C 3,2 km/h (1 Bft)
10.06.2018 16:29 23,7 °C 66 % 1008,6 hPa 0,0 mm 0,9 km/h (0 Bft) O-NO 77 ° 0 min 0,000 mm 2,5 UV-I 209 W/m² 17,0 °C 23,7 °C 3,2 km/h (1 Bft)
10.06.2018 16:30 23,8 °C 68 % 1008,6 hPa 0,0 mm 4,7 km/h (1 Bft) NO 55 ° 0 min 0,000 mm 2,5 UV-I 188 W/m² 17,5 °C 23,8 °C 8,0 km/h (2 Bft)
10.06.2018 16:31 23,9 °C 68 % 1008,6 hPa 0,0 mm 4,1 km/h (1 Bft) O-NO 69 ° 0 min 0,000 mm 2,5 UV-I 183 W/m² 17,6 °C 23,9 °C 6,4 km/h (2 Bft)
10.06.2018 16:32 23,9 °C 67 % 1008,6 hPa 0,0 mm 2,1 km/h (1 Bft) O-NO 69 ° 0 min 0,000 mm 2,5 UV-I 190 W/m² 17,4 °C 23,9 °C 6,4 km/h (2 Bft)
10.06.2018 16:33 23,9 °C 66 % 1008,6 hPa 0,0 mm 3,0 km/h (1 Bft) O-NO 68 ° 0 min 0,000 mm 2,6 UV-I 213 W/m² 17,1 °C 23,9 °C 4,8 km/h (1 Bft)
10.06.2018 16:34 24,0 °C 66 % 1008,6 hPa 0,0 mm 2,0 km/h (1 Bft) O-NO 68 ° 0 min 0,000 mm 2,6 UV-I 220 W/m² 17,2 °C 24,0 °C 3,2 km/h (1 Bft)
10.06.2018 16:35 23,9 °C 68 % 1008,6 hPa 0,0 mm 5,8 km/h (2 Bft) O-NO 65 ° 0 min 0,000 mm 2,6 UV-I 214 W/m² 17,6 °C 23,9 °C 12,9 km/h (3 Bft)
10.06.2018 16:36 23,9 °C 68 % 1008,6 hPa 0,0 mm 8,2 km/h (2 Bft) O-NO 70 ° 0 min 0,000 mm 2,6 UV-I 209 W/m² 17,6 °C 23,9 °C 9,7 km/h (2 Bft)
10.06.2018 16:37 23,9 °C 68 % 1008,6 hPa 0,0 mm 7,4 km/h (2 Bft) O-NO 69 ° 0 min 0,000 mm 2,5 UV-I 192 W/m² 17,6 °C 23,9 °C 14,5 km/h (3 Bft)
10.06.2018 16:38 23,9 °C 69 % 1008,5 hPa 0,0 mm 8,3 km/h (2 Bft) SO 128 ° 0 min 0,000 mm 2,4 UV-I 169 W/m² 17,9 °C 23,9 °C 14,5 km/h (3 Bft)
10.06.2018 16:39 23,8 °C 71 % 1008,6 hPa 0,0 mm 10,9 km/h (2 Bft) NO 46 ° 0 min 0,000 mm 2,3 UV-I 178 W/m² 18,2 °C 23,8 °C 17,7 km/h (3 Bft)
10.06.2018 16:40 23,7 °C 69 % 1008,5 hPa 0,0 mm 10,7 km/h (2 Bft) O 85 ° 0 min 0,000 mm 2,3 UV-I 185 W/m² 17,7 °C 23,7 °C 14,5 km/h (3 Bft)
10.06.2018 16:41 23,7 °C 70 % 1008,6 hPa 0,0 mm 3,9 km/h (1 Bft) N-NO 32 ° 0 min 0,000 mm 2,3 UV-I 211 W/m² 17,9 °C 23,7 °C 6,4 km/h (2 Bft)
10.06.2018 16:42 23,5 °C 70 % 1008,6 hPa 0,0 mm 8,3 km/h (2 Bft) O-NO 69 ° 0 min 0,000 mm 2,2 UV-I 218 W/m² 17,7 °C 23,5 °C 14,5 km/h (3 Bft)
10.06.2018 16:43 23,4 °C 71 % 1008,6 hPa 0,0 mm 8,8 km/h (2 Bft) O 83 ° 0 min 0,000 mm 2,2 UV-I 206 W/m² 17,8 °C 23,4 °C 12,9 km/h (3 Bft)
10.06.2018 16:44 23,3 °C 70 % 1008,6 hPa 0,0 mm 7,3 km/h (2 Bft) O-NO 68 ° 0 min 0,000 mm 2,0 UV-I 202 W/m² 17,5 °C 23,3 °C 14,5 km/h (3 Bft)
10.06.2018 16:45 23,3 °C 71 % 1008,6 hPa 0,0 mm 5,4 km/h (1 Bft) O-NO 71 ° 0 min 0,000 mm 1,9 UV-I 190 W/m² 17,7 °C 23,3 °C 8,0 km/h (2 Bft)
10.06.2018 16:46 23,3 °C 70 % 1008,7 hPa 0,0 mm 2,6 km/h (1 Bft) O 88 ° 0 min 0,000 mm 1,8 UV-I 172 W/m² 17,5 °C 23,3 °C 4,8 km/h (1 Bft)
10.06.2018 16:47 23,1 °C 70 % 1008,6 hPa 0,0 mm 5,9 km/h (2 Bft) NO 43 ° 0 min 0,000 mm 1,7 UV-I 165 W/m² 17,3 °C 23,1 °C 9,7 km/h (2 Bft)
10.06.2018 16:48 23,0 °C 70 % 1008,6 hPa 0,0 mm 6,6 km/h (2 Bft) O 100 ° 0 min 0,000 mm 1,6 UV-I 165 W/m² 17,2 °C 23,0 °C 11,3 km/h (2 Bft)
10.06.2018 16:49 22,9 °C 70 % 1008,7 hPa 0,0 mm 7,1 km/h (2 Bft) O 92 ° 0 min 0,000 mm 1,6 UV-I 167 W/m² 17,1 °C 22,9 °C 9,7 km/h (2 Bft)
10.06.2018 16:50 22,8 °C 71 % 1008,7 hPa 0,0 mm 5,2 km/h (1 Bft) O-NO 75 ° 0 min 0,000 mm 1,6 UV-I 178 W/m² 17,3 °C 22,8 °C 11,3 km/h (2 Bft)
10.06.2018 16:51 22,7 °C 71 % 1008,7 hPa 0,0 mm 3,2 km/h (1 Bft) NO 37 ° 0 min 0,000 mm 1,7 UV-I 188 W/m² 17,2 °C 22,7 °C 8,0 km/h (2 Bft)
10.06.2018 16:52 22,7 °C 70 % 1008,7 hPa 0,0 mm 6,2 km/h (2 Bft) NO 39 ° 0 min 0,000 mm 1,7 UV-I 190 W/m² 16,9 °C 22,7 °C 11,3 km/h (2 Bft)
10.06.2018 16:53 22,6 °C 71 % 1008,7 hPa 0,0 mm 5,4 km/h (1 Bft) O 86 ° 0 min 0,000 mm 1,7 UV-I 188 W/m² 17,1 °C 22,6 °C 8,0 km/h (2 Bft)
10.06.2018 16:54 22,6 °C 71 % 1008,7 hPa 0,0 mm 6,2 km/h (2 Bft) O-NO 66 ° 0 min 0,000 mm 1,7 UV-I 186 W/m² 17,1 °C 22,6 °C 9,7 km/h (2 Bft)
10.06.2018 16:55 22,6 °C 70 % 1008,7 hPa 0,0 mm 1,9 km/h (1 Bft) O-NO 59 ° 0 min 0,000 mm 1,6 UV-I 171 W/m² 16,8 °C 22,6 °C 6,4 km/h (2 Bft)
10.06.2018 16:56 22,6 °C 71 % 1008,7 hPa 0,0 mm 4,6 km/h (1 Bft) O-NO 70 ° 0 min 0,000 mm 1,6 UV-I 169 W/m² 17,1 °C 22,6 °C 16,1 km/h (3 Bft)
10.06.2018 16:57 22,5 °C 71 % 1008,7 hPa 0,0 mm 9,1 km/h (2 Bft) O-NO 65 ° 0 min 0,000 mm 1,7 UV-I 185 W/m² 17,0 °C 22,5 °C 14,5 km/h (3 Bft)
10.06.2018 16:58 22,4 °C 72 % 1008,7 hPa 0,0 mm 5,0 km/h (1 Bft) O-NO 78 ° 0 min 0,000 mm 1,9 UV-I 211 W/m² 17,1 °C 22,4 °C 8,0 km/h (2 Bft)
10.06.2018 16:59 22,4 °C 71 % 1008,7 hPa 0,0 mm 4,4 km/h (1 Bft) O-NO 60 ° 0 min 0,000 mm 1,9 UV-I 225 W/m² 16,9 °C 22,4 °C 8,0 km/h (2 Bft)
10.06.2018 17:00 22,4 °C 71 % 1008,7 hPa 0,0 mm 5,8 km/h (2 Bft) O 85 ° 0 min 0,000 mm 1,9 UV-I 204 W/m² 16,9 °C 22,4 °C 8,0 km/h (2 Bft)
10.06.2018 17:01 22,4 °C 71 % 1008,7 hPa 0,0 mm 1,9 km/h (1 Bft) O-NO 71 ° 0 min 0,152 mm 1,9 UV-I 206 W/m² 16,9 °C 22,4 °C 4,8 km/h (1 Bft)
10.06.2018 17:02 22,4 °C 71 % 1008,7 hPa 0,0 mm 2,7 km/h (1 Bft) O-NO 70 ° 0 min 0,000 mm 1,9 UV-I 197 W/m² 16,9 °C 22,4 °C 4,8 km/h (1 Bft)
10.06.2018 17:03 22,4 °C 72 % 1008,7 hPa 0,0 mm 2,3 km/h (1 Bft) O-NO 70 ° 0 min 0,000 mm 1,8 UV-I 181 W/m² 17,1 °C 22,4 °C 4,8 km/h (1 Bft)
10.06.2018 17:04 22,5 °C 72 % 1008,6 hPa 0,0 mm 2,4 km/h (1 Bft) O-NO 73 ° 0 min 0,000 mm 1,8 UV-I 181 W/m² 17,2 °C 22,5 °C 4,8 km/h (1 Bft)
10.06.2018 17:05 22,5 °C 72 % 1008,6 hPa 0,0 mm 3,1 km/h (1 Bft) O 98 ° 0 min 0,000 mm 1,9 UV-I 185 W/m² 17,2 °C 22,5 °C 9,7 km/h (2 Bft)
10.06.2018 17:06 22,4 °C 72 % 1008,7 hPa 0,0 mm 2,6 km/h (1 Bft) O-NO 58 ° 0 min 0,000 mm 1,9 UV-I 190 W/m² 17,1 °C 22,4 °C 9,7 km/h (2 Bft)
10.06.2018 17:07 22,4 °C 73 % 1008,7 hPa 0,0 mm 3,8 km/h (1 Bft) O 93 ° 0 min 0,000 mm 1,9 UV-I 186 W/m² 17,3 °C 22,4 °C 6,4 km/h (2 Bft)
10.06.2018 17:08 22,4 °C 71 % 1008,7 hPa 0,0 mm 6,0 km/h (2 Bft) N-NO 24 ° 0 min 0,000 mm 1,9 UV-I 165 W/m² 16,9 °C 22,4 °C 8,0 km/h (2 Bft)
10.06.2018 17:09 22,5 °C 71 % 1008,7 hPa 0,0 mm 2,9 km/h (1 Bft) N-NO 24 ° 0 min 0,000 mm 1,9 UV-I 165 W/m² 17,0 °C 22,5 °C 6,4 km/h (2 Bft)
10.06.2018 17:10 22,6 °C 71 % 1008,7 hPa 0,0 mm 6,2 km/h (2 Bft) O-NO 61 ° 0 min 0,000 mm 1,8 UV-I 167 W/m² 17,1 °C 22,6 °C 9,7 km/h (2 Bft)
10.06.2018 17:11 22,6 °C 71 % 1008,6 hPa 0,0 mm 3,4 km/h (1 Bft) O-NO 63 ° 0 min 0,000 mm 1,8 UV-I 169 W/m² 17,1 °C 22,6 °C 6,4 km/h (2 Bft)
10.06.2018 17:12 22,6 °C 71 % 1008,6 hPa 0,0 mm 1,2 km/h (1 Bft) O-NO 63 ° 0 min 0,000 mm 1,9 UV-I 223 W/m² 17,1 °C 22,6 °C 3,2 km/h (1 Bft)
10.06.2018 17:13 22,6 °C 71 % 1008,6 hPa 0,0 mm 4,6 km/h (1 Bft) O 88 ° 0 min 0,000 mm 2,2 UV-I 237 W/m² 17,1 °C 22,6 °C 6,4 km/h (2 Bft)
10.06.2018 17:14 22,6 °C 71 % 1008,6 hPa 0,0 mm 4,3 km/h (1 Bft) O 89 ° 0 min 0,000 mm 2,2 UV-I 207 W/m² 17,1 °C 22,6 °C 8,0 km/h (2 Bft)
10.06.2018 17:15 22,7 °C 70 % 1008,6 hPa 0,0 mm 5,6 km/h (1 Bft) NO 54 ° 0 min 0,000 mm 2,1 UV-I 162 W/m² 16,9 °C 22,7 °C 6,4 km/h (2 Bft)
10.06.2018 17:16 22,7 °C 70 % 1008,6 hPa 0,0 mm 5,6 km/h (1 Bft) NO 40 ° 0 min 0,000 mm 2,0 UV-I 141 W/m² 16,9 °C 22,7 °C 6,4 km/h (2 Bft)
10.06.2018 17:17 22,8 °C 70 % 1008,6 hPa 0,0 mm 4,2 km/h (1 Bft) NO 54 ° 0 min 0,000 mm 2,0 UV-I 123 W/m² 17,0 °C 22,8 °C 6,4 km/h (2 Bft)
10.06.2018 17:18 22,8 °C 69 % 1008,6 hPa 0,0 mm 5,1 km/h (1 Bft) NO 41 ° 0 min 0,000 mm 2,0 UV-I 113 W/m² 16,8 °C 22,8 °C 8,0 km/h (2 Bft)
10.06.2018 17:19 22,9 °C 70 % 1008,5 hPa 0,0 mm 5,4 km/h (1 Bft) O 89 ° 0 min 0,000 mm 1,8 UV-I 93 W/m² 17,1 °C 22,9 °C 8,0 km/h (2 Bft)
10.06.2018 17:20 23,0 °C 70 % 1008,5 hPa 0,0 mm 4,2 km/h (1 Bft) O-NO 61 ° 0 min 0,000 mm 1,8 UV-I 84 W/m² 17,2 °C 23,0 °C 4,8 km/h (1 Bft)
10.06.2018 17:21 23,0 °C 69 % 1008,5 hPa 0,0 mm 5,4 km/h (1 Bft) O-NO 72 ° 0 min 0,000 mm 1,8 UV-I 98 W/m² 17,0 °C 23,0 °C 8,0 km/h (2 Bft)
10.06.2018 17:22 23,0 °C 69 % 1008,5 hPa 0,0 mm 5,9 km/h (2 Bft) O-NO 65 ° 0 min 0,000 mm 1,9 UV-I 111 W/m² 17,0 °C 23,0 °C 9,7 km/h (2 Bft)
10.06.2018 17:23 23,1 °C 69 % 1008,5 hPa 0,0 mm 6,5 km/h (2 Bft) O-NO 72 ° 0 min 0,000 mm 1,8 UV-I 102 W/m² 17,1 °C 23,1 °C 9,7 km/h (2 Bft)
10.06.2018 17:24 23,1 °C 69 % 1008,6 hPa 0,0 mm 4,3 km/h (1 Bft) O-SO 104 ° 0 min 0,000 mm 1,8 UV-I 100 W/m² 17,1 °C 23,1 °C 6,4 km/h (2 Bft)
10.06.2018 17:25 23,0 °C 69 % 1008,5 hPa 0,0 mm 1,2 km/h (1 Bft) O 90 ° 0 min 0,000 mm 1,8 UV-I 97 W/m² 17,0 °C 23,0 °C 4,8 km/h (1 Bft)
10.06.2018 17:26 23,1 °C 70 % 1008,6 hPa 0,0 mm 2,3 km/h (1 Bft) O 98 ° 0 min 0,000 mm 1,8 UV-I 90 W/m² 17,3 °C 23,1 °C 3,2 km/h (1 Bft)
10.06.2018 17:27 23,0 °C 69 % 1008,5 hPa 0,0 mm 3,1 km/h (1 Bft) O-NO 69 ° 0 min 0,000 mm 1,7 UV-I 83 W/m² 17,0 °C 23,0 °C 6,4 km/h (2 Bft)
10.06.2018 17:28 23,0 °C 69 % 1008,4 hPa 0,0 mm 5,0 km/h (1 Bft) O-NO 67 ° 0 min 0,000 mm 1,7 UV-I 77 W/m² 17,0 °C 23,0 °C 6,4 km/h (2 Bft)
10.06.2018 17:29 23,0 °C 69 % 1008,5 hPa 0,0 mm 2,6 km/h (1 Bft) O-NO 72 ° 0 min 0,000 mm 1,7 UV-I 83 W/m² 17,0 °C 23,0 °C 4,8 km/h (1 Bft)
10.06.2018 17:30 23,0 °C 69 % 1008,4 hPa 0,0 mm 2,1 km/h (1 Bft) O-NO 71 ° 0 min 0,000 mm 1,7 UV-I 86 W/m² 17,0 °C 23,0 °C 3,2 km/h (1 Bft)
10.06.2018 17:31 23,1 °C 70 % 1008,3 hPa 0,0 mm 0,8 km/h (0 Bft) O-NO 59 ° 0 min 0,000 mm 1,7 UV-I 83 W/m² 17,3 °C 23,1 °C 4,8 km/h (1 Bft)
10.06.2018 17:32 23,1 °C 69 % 1008,4 hPa 0,0 mm 3,6 km/h (1 Bft) O 87 ° 0 min 0,000 mm 1,7 UV-I 83 W/m² 17,1 °C 23,1 °C 4,8 km/h (1 Bft)
10.06.2018 17:33 23,2 °C 70 % 1008,3 hPa 0,0 mm 4,6 km/h (1 Bft) O 80 ° 0 min 0,000 mm 1,7 UV-I 84 W/m² 17,4 °C 23,2 °C 6,4 km/h (2 Bft)
10.06.2018 17:34 23,3 °C 69 % 1008,4 hPa 0,0 mm 4,0 km/h (1 Bft) O-NO 74 ° 0 min 0,000 mm 1,7 UV-I 79 W/m² 17,3 °C 23,3 °C 6,4 km/h (2 Bft)
10.06.2018 17:35 23,3 °C 69 % 1008,4 hPa 0,0 mm 0,9 km/h (0 Bft) O-NO 74 ° 0 min 0,000 mm 1,6 UV-I 69 W/m² 17,3 °C 23,3 °C 3,2 km/h (1 Bft)
10.06.2018 17:36 23,3 °C 69 % 1008,3 hPa 0,0 mm 0,2 km/h (0 Bft) O-NO 74 ° 0 min 0,000 mm 1,6 UV-I 69 W/m² 17,3 °C 23,3 °C 1,6 km/h (1 Bft)
10.06.2018 17:37 23,2 °C 70 % 1008,3 hPa 0,0 mm 0,1 km/h (0 Bft) O-NO 74 ° 0 min 0,000 mm 1,6 UV-I 69 W/m² 17,4 °C 23,2 °C 1,6 km/h (1 Bft)
10.06.2018 17:38 23,2 °C 70 % 1008,3 hPa 0,0 mm 0,5 km/h (0 Bft) O-NO 63 ° 0 min 0,000 mm 1,6 UV-I 69 W/m² 17,4 °C 23,2 °C 3,2 km/h (1 Bft)
10.06.2018 17:39 23,2 °C 69 % 1008,3 hPa 0,0 mm 0,2 km/h (0 Bft) O-NO 63 ° 0 min 0,000 mm 1,6 UV-I 69 W/m² 17,2 °C 23,2 °C 1,6 km/h (1 Bft)
10.06.2018 17:40 23,2 °C 70 % 1008,3 hPa 0,0 mm 0,8 km/h (0 Bft) O-NO 63 ° 0 min 0,000 mm 1,6 UV-I 67 W/m² 17,4 °C 23,2 °C 3,2 km/h (1 Bft)
10.06.2018 17:41 23,2 °C 71 % 1008,3 hPa 0,0 mm 3,9 km/h (1 Bft) O-NO 68 ° 0 min 0,000 mm 1,6 UV-I 65 W/m² 17,6 °C 23,2 °C 6,4 km/h (2 Bft)
10.06.2018 17:42 23,3 °C 72 % 1008,3 hPa 0,0 mm 5,0 km/h (1 Bft) O-NO 71 ° 0 min 0,000 mm 1,5 UV-I 69 W/m² 18,0 °C 23,3 °C 8,0 km/h (2 Bft)
10.06.2018 17:43 23,2 °C 70 % 1008,3 hPa 0,0 mm 1,5 km/h (1 Bft) O-NO 74 ° 0 min 0,000 mm 1,5 UV-I 65 W/m² 17,4 °C 23,2 °C 6,4 km/h (2 Bft)
10.06.2018 17:44 23,2 °C 71 % 1008,3 hPa 0,0 mm 6,7 km/h (2 Bft) N-NO 16 ° 0 min 0,000 mm 1,5 UV-I 65 W/m² 17,6 °C 23,2 °C 11,3 km/h (2 Bft)
10.06.2018 17:45 23,2 °C 71 % 1008,3 hPa 0,0 mm 7,4 km/h (2 Bft) NO 44 ° 0 min 0,000 mm 1,5 UV-I 62 W/m² 17,6 °C 23,2 °C 11,3 km/h (2 Bft)
10.06.2018 17:46 23,1 °C 70 % 1008,3 hPa 0,0 mm 5,9 km/h (2 Bft) O-NO 67 ° 0 min 0,000 mm 1,4 UV-I 56 W/m² 17,3 °C 23,1 °C 9,7 km/h (2 Bft)
10.06.2018 17:47 23,1 °C 71 % 1008,3 hPa 0,0 mm 9,5 km/h (2 Bft) O-NO 74 ° 0 min 0,000 mm 1,4 UV-I 58 W/m² 17,5 °C 23,1 °C 14,5 km/h (3 Bft)
10.06.2018 17:48 22,9 °C 71 % 1008,3 hPa 0,0 mm 7,4 km/h (2 Bft) O-NO 76 ° 0 min 0,000 mm 1,3 UV-I 58 W/m² 17,4 °C 22,9 °C 11,3 km/h (2 Bft)
10.06.2018 17:49 22,8 °C 71 % 1008,3 hPa 0,0 mm 5,0 km/h (1 Bft) O-NO 77 ° 0 min 0,000 mm 1,3 UV-I 56 W/m² 17,3 °C 22,8 °C 6,4 km/h (2 Bft)
10.06.2018 17:50 22,8 °C 72 % 1008,3 hPa 0,0 mm 3,9 km/h (1 Bft) O 79 ° 0 min 0,000 mm 1,3 UV-I 60 W/m² 17,5 °C 22,8 °C 6,4 km/h (2 Bft)
10.06.2018 17:51 22,7 °C 72 % 1008,3 hPa 0,0 mm 0,6 km/h (0 Bft) O 79 ° 0 min 0,000 mm 1,3 UV-I 62 W/m² 17,4 °C 22,7 °C 1,6 km/h (1 Bft)
10.06.2018 17:52 22,6 °C 72 % 1008,3 hPa 0,0 mm 1,0 km/h (0 Bft) O 79 ° 0 min 0,000 mm 1,3 UV-I 65 W/m² 17,3 °C 22,6 °C 1,6 km/h (1 Bft)
10.06.2018 17:53 22,6 °C 73 % 1008,3 hPa 0,0 mm 2,7 km/h (1 Bft) O-NO 61 ° 0 min 0,000 mm 1,3 UV-I 69 W/m² 17,5 °C 22,6 °C 4,8 km/h (1 Bft)
10.06.2018 17:54 22,6 °C 72 % 1008,3 hPa 0,0 mm 3,8 km/h (1 Bft) O-NO 71 ° 0 min 0,000 mm 1,3 UV-I 74 W/m² 17,3 °C 22,6 °C 8,0 km/h (2 Bft)
10.06.2018 17:55 22,6 °C 73 % 1008,3 hPa 0,0 mm 3,2 km/h (1 Bft) SO 141 ° 0 min 0,000 mm 1,3 UV-I 79 W/m² 17,5 °C 22,6 °C 4,8 km/h (1 Bft)
10.06.2018 17:56 22,5 °C 72 % 1008,3 hPa 0,0 mm 1,4 km/h (1 Bft) O-SO 103 ° 0 min 0,000 mm 1,3 UV-I 83 W/m² 17,2 °C 22,5 °C 4,8 km/h (1 Bft)
10.06.2018 17:57 22,5 °C 72 % 1008,3 hPa 0,0 mm 5,5 km/h (1 Bft) O 84 ° 0 min 0,000 mm 1,3 UV-I 84 W/m² 17,2 °C 22,5 °C 8,0 km/h (2 Bft)
10.06.2018 17:58 22,6 °C 72 % 1008,2 hPa 0,0 mm 2,5 km/h (1 Bft) O-NO 58 ° 0 min 0,000 mm 1,3 UV-I 88 W/m² 17,3 °C 22,6 °C 6,4 km/h (2 Bft)
10.06.2018 17:59 22,6 °C 73 % 1008,3 hPa 0,0 mm 2,5 km/h (1 Bft) O-NO 59 ° 0 min 0,000 mm 1,3 UV-I 91 W/m² 17,5 °C 22,6 °C 3,2 km/h (1 Bft)
10.06.2018 18:00 22,6 °C 73 % 1008,2 hPa 0,0 mm 2,8 km/h (1 Bft) O-NO 58 ° 0 min 0,000 mm 1,3 UV-I 93 W/m² 17,5 °C 22,6 °C 4,8 km/h (1 Bft)
10.06.2018 18:01 22,7 °C 74 % 1008,2 hPa 0,0 mm 3,3 km/h (1 Bft) O-NO 71 ° 0 min 0,076 mm 1,3 UV-I 91 W/m² 17,8 °C 22,7 °C 6,4 km/h (2 Bft)
10.06.2018 18:02 22,7 °C 72 % 1008,2 hPa 0,0 mm 1,8 km/h (1 Bft) O-NO 71 ° 0 min 0,000 mm 1,3 UV-I 90 W/m² 17,4 °C 22,7 °C 3,2 km/h (1 Bft)
10.06.2018 18:03 22,7 °C 73 % 1008,2 hPa 0,0 mm 1,1 km/h (1 Bft) O-NO 71 ° 0 min 0,000 mm 1,3 UV-I 93 W/m² 17,6 °C 22,7 °C 3,2 km/h (1 Bft)
10.06.2018 18:04 22,7 °C 73 % 1008,2 hPa 0,0 mm 1,9 km/h (1 Bft) O-NO 72 ° 0 min 0,000 mm 1,3 UV-I 105 W/m² 17,6 °C 22,7 °C 3,2 km/h (1 Bft)
10.06.2018 18:05 22,7 °C 72 % 1008,1 hPa 0,0 mm 1,3 km/h (1 Bft) O-NO 72 ° 0 min 0,000 mm 1,4 UV-I 113 W/m² 17,4 °C 22,7 °C 3,2 km/h (1 Bft)
10.06.2018 18:06 22,7 °C 73 % 1008,1 hPa 0,0 mm 4,8 km/h (1 Bft) O-NO 65 ° 0 min 0,000 mm 1,4 UV-I 114 W/m² 17,6 °C 22,7 °C 6,4 km/h (2 Bft)
10.06.2018 18:07 22,7 °C 73 % 1008,1 hPa 0,0 mm 1,4 km/h (1 Bft) O-NO 65 ° 0 min 0,000 mm 1,5 UV-I 118 W/m² 17,6 °C 22,7 °C 3,2 km/h (1 Bft)
10.06.2018 18:08 22,8 °C 74 % 1008,1 hPa 0,0 mm 3,3 km/h (1 Bft) NO 53 ° 0 min 0,000 mm 1,5 UV-I 118 W/m² 17,9 °C 22,8 °C 8,0 km/h (2 Bft)
10.06.2018 18:09 22,9 °C 73 % 1008,1 hPa 0,0 mm 4,3 km/h (1 Bft) O-NO 61 ° 0 min 0,000 mm 1,5 UV-I 120 W/m² 17,8 °C 22,9 °C 8,0 km/h (2 Bft)
10.06.2018 18:10 22,9 °C 73 % 1008,1 hPa 0,0 mm 7,0 km/h (2 Bft) NO 34 ° 0 min 0,000 mm 1,5 UV-I 120 W/m² 17,8 °C 22,9 °C 9,7 km/h (2 Bft)
10.06.2018 18:11 23,0 °C 72 % 1008,1 hPa 0,0 mm 3,7 km/h (1 Bft) O-NO 70 ° 0 min 0,000 mm 1,5 UV-I 120 W/m² 17,7 °C 23,0 °C 6,4 km/h (2 Bft)
10.06.2018 18:12 23,1 °C 73 % 1008,2 hPa 0,0 mm 3,6 km/h (1 Bft) O-NO 65 ° 0 min 0,000 mm 1,5 UV-I 118 W/m² 18,0 °C 23,1 °C 4,8 km/h (1 Bft)
10.06.2018 18:13 23,1 °C 72 % 1008,1 hPa 0,0 mm 5,2 km/h (1 Bft) NO 36 ° 0 min 0,000 mm 1,5 UV-I 118 W/m² 17,8 °C 23,1 °C 9,7 km/h (2 Bft)
10.06.2018 18:14 23,2 °C 71 % 1008,1 hPa 0,0 mm 7,6 km/h (2 Bft) NO 48 ° 0 min 0,000 mm 1,5 UV-I 116 W/m² 17,6 °C 23,2 °C 9,7 km/h (2 Bft)
10.06.2018 18:15 23,2 °C 71 % 1008,1 hPa 0,0 mm 5,0 km/h (1 Bft) O-NO 65 ° 0 min 0,000 mm 1,5 UV-I 114 W/m² 17,6 °C 23,2 °C 6,4 km/h (2 Bft)
10.06.2018 18:16 23,2 °C 71 % 1008,1 hPa 0,0 mm 4,4 km/h (1 Bft) O-NO 69 ° 0 min 0,000 mm 1,5 UV-I 111 W/m² 17,6 °C 23,2 °C 6,4 km/h (2 Bft)
10.06.2018 18:17 23,2 °C 71 % 1008,2 hPa 0,0 mm 3,4 km/h (1 Bft) O 86 ° 0 min 0,000 mm 1,4 UV-I 109 W/m² 17,6 °C 23,2 °C 6,4 km/h (2 Bft)
10.06.2018 18:18 23,2 °C 71 % 1008,2 hPa 0,0 mm 3,0 km/h (1 Bft) O 87 ° 0 min 0,000 mm 1,4 UV-I 107 W/m² 17,6 °C 23,2 °C 6,4 km/h (2 Bft)
10.06.2018 18:19 23,1 °C 71 % 1008,2 hPa 0,0 mm 4,4 km/h (1 Bft) O 94 ° 0 min 0,000 mm 1,4 UV-I 104 W/m² 17,5 °C 23,1 °C 6,4 km/h (2 Bft)
10.06.2018 18:20 23,0 °C 72 % 1008,2 hPa 0,0 mm 5,1 km/h (1 Bft) O-NO 75 ° 0 min 0,000 mm 1,4 UV-I 100 W/m² 17,7 °C 23,0 °C 6,4 km/h (2 Bft)
10.06.2018 18:21 22,9 °C 71 % 1008,2 hPa 0,0 mm 2,1 km/h (1 Bft) O-NO 75 ° 0 min 0,000 mm 1,4 UV-I 98 W/m² 17,4 °C 22,9 °C 4,8 km/h (1 Bft)
10.06.2018 18:22 22,9 °C 71 % 1008,2 hPa 0,0 mm 1,9 km/h (1 Bft) O-NO 75 ° 0 min 0,000 mm 1,4 UV-I 93 W/m² 17,4 °C 22,9 °C 3,2 km/h (1 Bft)
10.06.2018 18:23 22,8 °C 72 % 1008,2 hPa 0,0 mm 4,7 km/h (1 Bft) NO 46 ° 0 min 0,000 mm 1,3 UV-I 90 W/m² 17,5 °C 22,8 °C 8,0 km/h (2 Bft)
10.06.2018 18:24 22,9 °C 72 % 1008,2 hPa 0,0 mm 3,6 km/h (1 Bft) O-NO 60 ° 0 min 0,000 mm 1,3 UV-I 90 W/m² 17,6 °C 22,9 °C 4,8 km/h (1 Bft)
10.06.2018 18:25 22,9 °C 71 % 1008,2 hPa 0,0 mm 3,5 km/h (1 Bft) NO 50 ° 0 min 0,000 mm 1,3 UV-I 88 W/m² 17,4 °C 22,9 °C 6,4 km/h (2 Bft)
10.06.2018 18:26 23,0 °C 71 % 1008,3 hPa 0,0 mm 2,6 km/h (1 Bft) NO 50 ° 0 min 0,000 mm 1,3 UV-I 86 W/m² 17,4 °C 23,0 °C 4,8 km/h (1 Bft)
10.06.2018 18:27 23,0 °C 70 % 1008,3 hPa 0,0 mm 1,3 km/h (1 Bft) O-NO 59 ° 0 min 0,000 mm 1,3 UV-I 86 W/m² 17,2 °C 23,0 °C 4,8 km/h (1 Bft)
10.06.2018 18:28 23,0 °C 72 % 1008,2 hPa 0,0 mm 2,4 km/h (1 Bft) O-NO 59 ° 0 min 0,000 mm 1,3 UV-I 84 W/m² 17,7 °C 23,0 °C 4,8 km/h (1 Bft)
10.06.2018 18:29 23,1 °C 71 % 1008,2 hPa 0,0 mm 0,4 km/h (0 Bft) O-NO 59 ° 0 min 0,000 mm 1,3 UV-I 81 W/m² 17,5 °C 23,1 °C 1,6 km/h (1 Bft)
10.06.2018 18:30 23,1 °C 73 % 1008,2 hPa 0,0 mm 0,0 km/h (0 Bft) O-NO 59 ° 0 min 0,000 mm 1,2 UV-I 81 W/m² 18,0 °C 23,1 °C 0,0 km/h (0 Bft)
10.06.2018 18:31 23,1 °C 71 % 1008,2 hPa 0,0 mm 0,6 km/h (0 Bft) O-NO 59 ° 0 min 0,000 mm 1,2 UV-I 77 W/m² 17,5 °C 23,1 °C 1,6 km/h (1 Bft)
10.06.2018 18:32 23,2 °C 71 % 1008,2 hPa 0,0 mm 0,4 km/h (0 Bft) O-NO 59 ° 0 min 0,000 mm 1,2 UV-I 74 W/m² 17,6 °C 23,2 °C 1,6 km/h (1 Bft)
10.06.2018 18:33 23,1 °C 71 % 1008,2 hPa 0,0 mm 0,1 km/h (0 Bft) O-NO 59 ° 0 min 0,000 mm 1,2 UV-I 70 W/m² 17,5 °C 23,1 °C 1,6 km/h (1 Bft)
10.06.2018 18:34 23,1 °C 70 % 1008,1 hPa 0,0 mm 0,3 km/h (0 Bft) O-NO 59 ° 0 min 0,000 mm 1,2 UV-I 69 W/m² 17,3 °C 23,1 °C 3,2 km/h (1 Bft)
10.06.2018 18:35 23,1 °C 70 % 1008,2 hPa 0,0 mm 3,8 km/h (1 Bft) NO 50 ° 0 min 0,000 mm 1,4 UV-I 125 W/m² 17,3 °C 23,1 °C 8,0 km/h (2 Bft)
10.06.2018 18:36 23,2 °C 71 % 1008,1 hPa 0,0 mm 6,8 km/h (2 Bft) NO 34 ° 0 min 0,000 mm 1,5 UV-I 193 W/m² 17,6 °C 23,2 °C 9,7 km/h (2 Bft)
10.06.2018 18:37 23,2 °C 70 % 1008,2 hPa 0,0 mm 4,3 km/h (1 Bft) NO 40 ° 0 min 0,000 mm 1,6 UV-I 193 W/m² 17,4 °C 23,2 °C 6,4 km/h (2 Bft)
10.06.2018 18:38 23,3 °C 69 % 1008,2 hPa 0,0 mm 2,6 km/h (1 Bft) NO 40 ° 0 min 0,000 mm 1,5 UV-I 318 W/m² 17,3 °C 23,3 °C 4,8 km/h (1 Bft)
10.06.2018 18:39 23,3 °C 70 % 1008,2 hPa 0,0 mm 1,8 km/h (1 Bft) NO 51 ° 0 min 0,000 mm 1,5 UV-I 311 W/m² 17,5 °C 23,3 °C 6,4 km/h (2 Bft)
10.06.2018 18:40 23,3 °C 70 % 1008,2 hPa 0,0 mm 1,5 km/h (1 Bft) O-NO 70 ° 0 min 0,000 mm 1,5 UV-I 309 W/m² 17,5 °C 23,3 °C 3,2 km/h (1 Bft)
10.06.2018 18:41 23,2 °C 69 % 1008,2 hPa 0,0 mm 0,5 km/h (0 Bft) O-NO 70 ° 0 min 0,000 mm 1,5 UV-I 306 W/m² 17,2 °C 23,2 °C 3,2 km/h (1 Bft)
10.06.2018 18:42 23,2 °C 69 % 1008,2 hPa 0,0 mm 2,1 km/h (1 Bft) O-NO 70 ° 0 min 0,000 mm 1,4 UV-I 292 W/m² 17,2 °C 23,2 °C 4,8 km/h (1 Bft)
10.06.2018 18:43 23,1 °C 70 % 1008,3 hPa 0,0 mm 3,3 km/h (1 Bft) O-NO 70 ° 0 min 0,000 mm 1,3 UV-I 246 W/m² 17,3 °C 23,1 °C 4,8 km/h (1 Bft)
10.06.2018 18:44 23,1 °C 69 % 1008,3 hPa 0,0 mm 1,0 km/h (0 Bft) O-NO 70 ° 0 min 0,000 mm 1,3 UV-I 255 W/m² 17,1 °C 23,1 °C 3,2 km/h (1 Bft)
10.06.2018 18:45 23,0 °C 70 % 1008,3 hPa 0,0 mm 3,3 km/h (1 Bft) O-NO 59 ° 0 min 0,000 mm 1,3 UV-I 278 W/m² 17,2 °C 23,0 °C 6,4 km/h (2 Bft)
10.06.2018 18:46 23,1 °C 70 % 1008,4 hPa 0,0 mm 4,1 km/h (1 Bft) NO 52 ° 0 min 0,000 mm 1,1 UV-I 278 W/m² 17,3 °C 23,1 °C 6,4 km/h (2 Bft)
10.06.2018 18:47 23,1 °C 71 % 1008,4 hPa 0,0 mm 1,7 km/h (1 Bft) O-NO 61 ° 0 min 0,000 mm 1,0 UV-I 278 W/m² 17,5 °C 23,1 °C 3,2 km/h (1 Bft)
10.06.2018 18:48 23,1 °C 71 % 1008,4 hPa 0,0 mm 2,6 km/h (1 Bft) O-NO 65 ° 0 min 0,000 mm 0,0 UV-I 53 W/m² 17,5 °C 23,1 °C 4,8 km/h (1 Bft)
10.06.2018 18:49 23,1 °C 72 % 1008,3 hPa 0,0 mm 2,2 km/h (1 Bft) O-NO 65 ° 0 min 0,000 mm 0,0 UV-I 53 W/m² 17,8 °C 23,1 °C 3,2 km/h (1 Bft)
10.06.2018 18:50 22,9 °C 72 % 1008,4 hPa 0,0 mm 1,9 km/h (1 Bft) O-NO 71 ° 0 min 0,000 mm 0,0 UV-I 54 W/m² 17,6 °C 22,9 °C 6,4 km/h (2 Bft)
10.06.2018 18:51 22,8 °C 72 % 1008,3 hPa 0,0 mm 0,7 km/h (0 Bft) O-NO 71 ° 0 min 0,000 mm 0,9 UV-I 102 W/m² 17,5 °C 22,8 °C 1,6 km/h (1 Bft)
10.06.2018 18:52 22,7 °C 73 % 1008,4 hPa 0,0 mm 0,0 km/h (0 Bft) O-NO 71 ° 0 min 0,000 mm 1,0 UV-I 153 W/m² 17,6 °C 22,7 °C 0,0 km/h (0 Bft)
10.06.2018 18:53 22,7 °C 73 % 1008,3 hPa 0,0 mm 1,2 km/h (1 Bft) O-NO 59 ° 0 min 0,000 mm 1,1 UV-I 202 W/m² 17,6 °C 22,7 °C 4,8 km/h (1 Bft)
10.06.2018 18:54 22,7 °C 73 % 1008,4 hPa 0,0 mm 2,3 km/h (1 Bft) O-NO 63 ° 0 min 0,000 mm 0,9 UV-I 160 W/m² 17,6 °C 22,7 °C 3,2 km/h (1 Bft)
10.06.2018 18:55 22,6 °C 75 % 1008,4 hPa 0,0 mm 2,8 km/h (1 Bft) O-NO 68 ° 0 min 0,000 mm 1,0 UV-I 135 W/m² 17,9 °C 22,6 °C 4,8 km/h (1 Bft)
10.06.2018 18:56 22,6 °C 73 % 1008,4 hPa 0,0 mm 0,1 km/h (0 Bft) O-NO 68 ° 0 min 0,000 mm 1,0 UV-I 181 W/m² 17,5 °C 22,6 °C 1,6 km/h (1 Bft)
10.06.2018 18:57 22,6 °C 73 % 1008,3 hPa 0,0 mm 3,2 km/h (1 Bft) O-NO 68 ° 0 min 0,000 mm 0,9 UV-I 86 W/m² 17,5 °C 22,6 °C 4,8 km/h (1 Bft)
10.06.2018 18:58 22,6 °C 74 % 1008,4 hPa 0,0 mm 1,4 km/h (1 Bft) O-NO 68 ° 0 min 0,000 mm 1,0 UV-I 86 W/m² 17,7 °C 22,6 °C 3,2 km/h (1 Bft)
10.06.2018 18:59 22,6 °C 73 % 1008,3 hPa 0,0 mm 1,6 km/h (1 Bft) O-NO 68 ° 0 min 0,000 mm 1,0 UV-I 188 W/m² 17,5 °C 22,6 °C 3,2 km/h (1 Bft)
10.06.2018 19:00 22,6 °C 75 % 1008,4 hPa 0,0 mm 1,9 km/h (1 Bft) O-NO 68 ° 0 min 0,000 mm 1,0 UV-I 178 W/m² 17,9 °C 22,6 °C 3,2 km/h (1 Bft)
10.06.2018 19:01 22,5 °C 74 % 1008,4 hPa 0,0 mm 0,1 km/h (0 Bft) O-NO 68 ° 0 min 0,102 mm 0,9 UV-I 146 W/m² 17,6 °C 22,5 °C 1,6 km/h (1 Bft)
10.06.2018 19:02 22,4 °C 75 % 1008,3 hPa 0,0 mm 0,1 km/h (0 Bft) O-NO 68 ° 0 min 0,000 mm 0,9 UV-I 155 W/m² 17,7 °C 22,4 °C 1,6 km/h (1 Bft)
10.06.2018 19:03 22,4 °C 75 % 1008,3 hPa 0,0 mm 0,1 km/h (0 Bft) O-NO 68 ° 0 min 0,000 mm 0,8 UV-I 69 W/m² 17,7 °C 22,4 °C 1,6 km/h (1 Bft)
10.06.2018 19:04 22,4 °C 74 % 1008,3 hPa 0,0 mm 0,0 km/h (0 Bft) O-NO 68 ° 0 min 0,000 mm 0,8 UV-I 67 W/m² 17,5 °C 22,4 °C 0,0 km/h (0 Bft)
10.06.2018 19:05 22,4 °C 74 % 1008,4 hPa 0,0 mm 0,0 km/h (0 Bft) O-NO 68 ° 0 min 0,000 mm 0,8 UV-I 65 W/m² 17,5 °C 22,4 °C 0,0 km/h (0 Bft)
10.06.2018 19:06 22,3 °C 76 % 1008,4 hPa 0,0 mm 0,0 km/h (0 Bft) O-NO 68 ° 0 min 0,000 mm 0,8 UV-I 70 W/m² 17,9 °C 22,3 °C 0,0 km/h (0 Bft)
10.06.2018 19:07 22,3 °C 76 % 1008,4 hPa 0,0 mm 0,2 km/h (0 Bft) O-NO 68 ° 0 min 0,000 mm 0,8 UV-I 84 W/m² 17,9 °C 22,3 °C 1,6 km/h (1 Bft)
10.06.2018 19:08 22,2 °C 77 % 1008,4 hPa 0,0 mm 0,9 km/h (0 Bft) O-NO 68 ° 0 min 0,000 mm 0,8 UV-I 76 W/m² 18,0 °C 22,2 °C 3,2 km/h (1 Bft)
10.06.2018 19:09 22,1 °C 76 % 1008,4 hPa 0,0 mm 0,6 km/h (0 Bft) O-NO 68 ° 0 min 0,000 mm 0,8 UV-I 134 W/m² 17,7 °C 22,1 °C 1,6 km/h (1 Bft)
10.06.2018 19:10 22,1 °C 77 % 1008,4 hPa 0,0 mm 0,5 km/h (0 Bft) O-NO 68 ° 0 min 0,000 mm 0,8 UV-I 111 W/m² 17,9 °C 22,1 °C 1,6 km/h (1 Bft)
10.06.2018 19:11 22,1 °C 76 % 1008,4 hPa 0,0 mm 2,5 km/h (1 Bft) O-NO 73 ° 0 min 0,000 mm 0,7 UV-I 74 W/m² 17,7 °C 22,1 °C 4,8 km/h (1 Bft)
10.06.2018 19:12 22,0 °C 77 % 1008,4 hPa 0,0 mm 3,2 km/h (1 Bft) O-NO 73 ° 0 min 0,000 mm 0,7 UV-I 79 W/m² 17,8 °C 22,0 °C 4,8 km/h (1 Bft)
10.06.2018 19:13 22,0 °C 77 % 1008,4 hPa 0,0 mm 2,3 km/h (1 Bft) O-NO 73 ° 0 min 0,000 mm 0,7 UV-I 90 W/m² 17,8 °C 22,0 °C 3,2 km/h (1 Bft)
10.06.2018 19:14 22,0 °C 76 % 1008,4 hPa 0,0 mm 0,1 km/h (0 Bft) O-NO 73 ° 0 min 0,000 mm 0,7 UV-I 118 W/m² 17,6 °C 22,0 °C 1,6 km/h (1 Bft)
10.06.2018 19:15 21,9 °C 77 % 1008,4 hPa 0,0 mm 0,0 km/h (0 Bft) O-NO 73 ° 0 min 0,000 mm 0,8 UV-I 151 W/m² 17,7 °C 21,9 °C 0,0 km/h (0 Bft)
10.06.2018 19:16 21,8 °C 78 % 1008,4 hPa 0,0 mm 0,1 km/h (0 Bft) O-NO 73 ° 0 min 0,000 mm 0,7 UV-I 155 W/m² 17,8 °C 21,8 °C 1,6 km/h (1 Bft)
10.06.2018 19:17 21,8 °C 79 % 1008,4 hPa 0,0 mm 0,6 km/h (0 Bft) O-NO 73 ° 0 min 0,000 mm 0,7 UV-I 88 W/m² 18,0 °C 21,8 °C 3,2 km/h (1 Bft)
10.06.2018 19:18 21,8 °C 79 % 1008,3 hPa 0,0 mm 1,3 km/h (1 Bft) O-NO 73 ° 0 min 0,000 mm 0,7 UV-I 79 W/m² 18,0 °C 21,8 °C 3,2 km/h (1 Bft)
10.06.2018 19:19 21,8 °C 78 % 1008,3 hPa 0,0 mm 0,0 km/h (0 Bft) O-NO 73 ° 0 min 0,000 mm 0,7 UV-I 86 W/m² 17,8 °C 21,8 °C 0,0 km/h (0 Bft)
10.06.2018 19:20 21,8 °C 77 % 1008,3 hPa 0,0 mm 0,0 km/h (0 Bft) O-NO 73 ° 0 min 0,000 mm 0,7 UV-I 77 W/m² 17,6 °C 21,8 °C 0,0 km/h (0 Bft)
10.06.2018 19:21 21,9 °C 77 % 1008,3 hPa 0,0 mm 0,0 km/h (0 Bft) O-NO 73 ° 0 min 0,000 mm 0,6 UV-I 70 W/m² 17,7 °C 21,9 °C 0,0 km/h (0 Bft)
10.06.2018 19:22 21,9 °C 78 % 1008,4 hPa 0,0 mm 0,0 km/h (0 Bft) O-NO 73 ° 0 min 0,000 mm 0,6 UV-I 76 W/m² 17,9 °C 21,9 °C 0,0 km/h (0 Bft)
10.06.2018 19:23 21,8 °C 78 % 1008,3 hPa 0,0 mm 0,0 km/h (0 Bft) O-NO 73 ° 0 min 0,000 mm 0,6 UV-I 114 W/m² 17,8 °C 21,8 °C 0,0 km/h (0 Bft)
10.06.2018 19:24 21,8 °C 77 % 1008,3 hPa 0,0 mm 0,0 km/h (0 Bft) O-NO 73 ° 0 min 0,000 mm 0,6 UV-I 113 W/m² 17,6 °C 21,8 °C 0,0 km/h (0 Bft)
10.06.2018 19:25 21,9 °C 77 % 1008,4 hPa 0,0 mm 0,0 km/h (0 Bft) O-NO 73 ° 0 min 0,000 mm 0,6 UV-I 95 W/m² 17,7 °C 21,9 °C 0,0 km/h (0 Bft)
10.06.2018 19:26 21,9 °C 77 % 1008,3 hPa 0,0 mm 0,0 km/h (0 Bft) O-NO 73 ° 0 min 0,000 mm 0,6 UV-I 100 W/m² 17,7 °C 21,9 °C 0,0 km/h (0 Bft)
10.06.2018 19:27 21,9 °C 79 % 1008,3 hPa 0,0 mm 0,0 km/h (0 Bft) O-NO 73 ° 0 min 0,000 mm 0,6 UV-I 105 W/m² 18,1 °C 21,9 °C 0,0 km/h (0 Bft)
10.06.2018 19:28 21,8 °C 79 % 1008,3 hPa 0,0 mm 0,0 km/h (0 Bft) O-NO 73 ° 0 min 0,000 mm 0,6 UV-I 98 W/m² 18,0 °C 21,8 °C 0,0 km/h (0 Bft)
10.06.2018 19:29 21,8 °C 79 % 1008,4 hPa 0,0 mm 0,0 km/h (0 Bft) O-NO 73 ° 0 min 0,000 mm 0,6 UV-I 88 W/m² 18,0 °C 21,8 °C 0,0 km/h (0 Bft)
10.06.2018 19:30 21,8 °C 78 % 1008,4 hPa 0,0 mm 0,0 km/h (0 Bft) O-NO 73 ° 0 min 0,000 mm 0,6 UV-I 88 W/m² 17,8 °C 21,8 °C 0,0 km/h (0 Bft)
10.06.2018 19:31 21,8 °C 78 % 1008,3 hPa 0,0 mm 0,0 km/h (0 Bft) O-NO 73 ° 0 min 0,000 mm 0,6 UV-I 107 W/m² 17,8 °C 21,8 °C 0,0 km/h (0 Bft)
10.06.2018 19:32 21,7 °C 78 % 1008,4 hPa 0,0 mm 0,0 km/h (0 Bft) O-NO 73 ° 0 min 0,000 mm 0,6 UV-I 141 W/m² 17,7 °C 21,7 °C 0,0 km/h (0 Bft)
10.06.2018 19:33 21,7 °C 78 % 1008,4 hPa 0,0 mm 0,0 km/h (0 Bft) O-NO 73 ° 0 min 0,000 mm 0,6 UV-I 151 W/m² 17,7 °C 21,7 °C 0,0 km/h (0 Bft)
10.06.2018 19:34 21,7 °C 79 % 1008,4 hPa 0,0 mm 0,0 km/h (0 Bft) O-NO 73 ° 0 min 0,000 mm 0,6 UV-I 160 W/m² 17,9 °C 21,7 °C 0,0 km/h (0 Bft)
10.06.2018 19:35 21,6 °C 78 % 1008,4 hPa 0,0 mm 0,0 km/h (0 Bft) O-NO 73 ° 0 min 0,000 mm 0,6 UV-I 165 W/m² 17,6 °C 21,6 °C 0,0 km/h (0 Bft)
10.06.2018 19:36 21,7 °C 79 % 1008,3 hPa 0,0 mm 0,0 km/h (0 Bft) O-NO 73 ° 0 min 0,000 mm 0,6 UV-I 169 W/m² 17,9 °C 21,7 °C 0,0 km/h (0 Bft)
10.06.2018 19:37 21,8 °C 78 % 1008,3 hPa 0,0 mm 0,0 km/h (0 Bft) O-NO 73 ° 0 min 0,000 mm 0,6 UV-I 171 W/m² 17,8 °C 21,8 °C 0,0 km/h (0 Bft)
10.06.2018 19:38 21,9 °C 77 % 1008,3 hPa 0,0 mm 0,0 km/h (0 Bft) O-NO 73 ° 0 min 0,000 mm 0,6 UV-I 155 W/m² 17,7 °C 21,9 °C 0,0 km/h (0 Bft)
10.06.2018 19:39 22,0 °C 77 % 1008,3 hPa 0,0 mm 0,0 km/h (0 Bft) O-NO 73 ° 0 min 0,000 mm 0,6 UV-I 125 W/m² 17,8 °C 22,0 °C 0,0 km/h (0 Bft)
10.06.2018 19:40 22,1 °C 77 % 1008,3 hPa 0,0 mm 0,0 km/h (0 Bft) O-NO 73 ° 0 min 0,000 mm 0,6 UV-I 90 W/m² 17,9 °C 22,1 °C 0,0 km/h (0 Bft)
10.06.2018 19:41 22,1 °C 76 % 1008,2 hPa 0,0 mm 0,0 km/h (0 Bft) O-NO 73 ° 0 min 0,000 mm 0,6 UV-I 100 W/m² 17,7 °C 22,1 °C 0,0 km/h (0 Bft)
10.06.2018 19:42 22,2 °C 76 % 1008,3 hPa 0,0 mm 0,0 km/h (0 Bft) O-NO 73 ° 0 min 0,000 mm 0,6 UV-I 76 W/m² 17,8 °C 22,2 °C 0,0 km/h (0 Bft)
10.06.2018 19:43 22,2 °C 76 % 1008,2 hPa 0,0 mm 0,0 km/h (0 Bft) O-NO 73 ° 0 min 0,000 mm 0,6 UV-I 104 W/m² 17,8 °C 22,2 °C 0,0 km/h (0 Bft)
10.06.2018 19:44 22,1 °C 78 % 1008,2 hPa 0,0 mm 0,0 km/h (0 Bft) O-NO 73 ° 0 min 0,000 mm 0,6 UV-I 77 W/m² 18,1 °C 22,1 °C 0,0 km/h (0 Bft)
10.06.2018 19:45 22,0 °C 78 % 1008,2 hPa 0,0 mm 0,0 km/h (0 Bft) O-NO 73 ° 0 min 0,000 mm 0,6 UV-I 79 W/m² 18,0 °C 22,0 °C 0,0 km/h (0 Bft)
10.06.2018 19:46 21,9 °C 79 % 1008,2 hPa 0,0 mm 0,0 km/h (0 Bft) O-NO 73 ° 0 min 0,000 mm 0,6 UV-I 91 W/m² 18,1 °C 21,9 °C 0,0 km/h (0 Bft)
10.06.2018 19:47 21,8 °C 79 % 1008,2 hPa 0,0 mm 0,0 km/h (0 Bft) O-NO 73 ° 0 min 0,000 mm 0,6 UV-I 86 W/m² 18,0 °C 21,8 °C 0,0 km/h (0 Bft)
10.06.2018 19:48 21,8 °C 79 % 1008,2 hPa 0,0 mm 0,0 km/h (0 Bft) O-NO 73 ° 0 min 0,000 mm 0,6 UV-I 81 W/m² 18,0 °C 21,8 °C 0,0 km/h (0 Bft)
10.06.2018 19:49 21,8 °C 78 % 1008,3 hPa 0,0 mm 0,0 km/h (0 Bft) O-NO 73 ° 0 min 0,000 mm 0,6 UV-I 79 W/m² 17,8 °C 21,8 °C 0,0 km/h (0 Bft)
10.06.2018 19:50 21,8 °C 78 % 1008,3 hPa 0,0 mm 0,0 km/h (0 Bft) O-NO 73 ° 0 min 0,000 mm 0,5 UV-I 79 W/m² 17,8 °C 21,8 °C 0,0 km/h (0 Bft)
10.06.2018 19:51 21,8 °C 80 % 1008,2 hPa 0,0 mm 0,0 km/h (0 Bft) O-NO 73 ° 0 min 0,000 mm 0,5 UV-I 76 W/m² 18,2 °C 21,8 °C 0,0 km/h (0 Bft)
10.06.2018 19:52 21,7 °C 80 % 1008,3 hPa 0,0 mm 0,0 km/h (0 Bft) O-NO 73 ° 0 min 0,000 mm 0,5 UV-I 81 W/m² 18,1 °C 21,7 °C 0,0 km/h (0 Bft)
10.06.2018 19:53 21,6 °C 81 % 1008,3 hPa 0,0 mm 0,0 km/h (0 Bft) O-NO 73 ° 0 min 0,000 mm 0,5 UV-I 74 W/m² 18,2 °C 21,6 °C 0,0 km/h (0 Bft)
10.06.2018 19:54 21,6 °C 80 % 1008,3 hPa 0,0 mm 0,0 km/h (0 Bft) O-NO 73 ° 0 min 0,000 mm 0,5 UV-I 72 W/m² 18,0 °C 21,6 °C 0,0 km/h (0 Bft)
10.06.2018 19:55 21,6 °C 80 % 1008,3 hPa 0,0 mm 0,0 km/h (0 Bft) O-NO 73 ° 0 min 0,000 mm 0,5 UV-I 77 W/m² 18,0 °C 21,6 °C 0,0 km/h (0 Bft)
10.06.2018 19:56 21,6 °C 80 % 1008,3 hPa 0,0 mm 0,0 km/h (0 Bft) O-NO 73 ° 0 min 0,000 mm 0,5 UV-I 67 W/m² 18,0 °C 21,6 °C 0,0 km/h (0 Bft)
10.06.2018 19:57 21,5 °C 81 % 1008,2 hPa 0,0 mm 0,0 km/h (0 Bft) O-NO 73 ° 0 min 0,000 mm 0,5 UV-I 63 W/m² 18,1 °C 21,5 °C 0,0 km/h (0 Bft)
10.06.2018 19:58 21,4 °C 81 % 1008,3 hPa 0,0 mm 0,0 km/h (0 Bft) O-NO 73 ° 0 min 0,000 mm 0,5 UV-I 63 W/m² 18,0 °C 21,4 °C 0,0 km/h (0 Bft)
10.06.2018 19:59 21,4 °C 81 % 1008,2 hPa 0,0 mm 0,0 km/h (0 Bft) O-NO 73 ° 0 min 0,000 mm 0,0 UV-I 60 W/m² 18,0 °C 21,4 °C 0,0 km/h (0 Bft)
10.06.2018 20:00 21,4 °C 81 % 1008,3 hPa 0,0 mm 0,0 km/h (0 Bft) O-NO 73 ° 0 min 0,000 mm 0,0 UV-I 60 W/m² 18,0 °C 21,4 °C 0,0 km/h (0 Bft)
10.06.2018 20:01 21,3 °C 82 % 1008,3 hPa 0,0 mm 0,0 km/h (0 Bft) O-NO 73 ° 0 min 0,076 mm 0,0 UV-I 58 W/m² 18,1 °C 21,3 °C 0,0 km/h (0 Bft)
10.06.2018 20:02 21,3 °C 82 % 1008,2 hPa 0,0 mm 0,0 km/h (0 Bft) O-NO 73 ° 0 min 0,000 mm 0,0 UV-I 54 W/m² 18,1 °C 21,3 °C 0,0 km/h (0 Bft)
10.06.2018 20:03 21,2 °C 82 % 1008,3 hPa 0,0 mm 0,0 km/h (0 Bft) O-NO 73 ° 0 min 0,000 mm 0,0 UV-I 54 W/m² 18,0 °C 21,2 °C 0,0 km/h (0 Bft)
10.06.2018 20:04 21,2 °C 83 % 1008,2 hPa 0,0 mm 0,0 km/h (0 Bft) O-NO 73 ° 0 min 0,000 mm 0,0 UV-I 53 W/m² 18,2 °C 21,2 °C 0,0 km/h (0 Bft)
10.06.2018 20:05 21,1 °C 82 % 1008,2 hPa 0,0 mm 0,0 km/h (0 Bft) O-NO 73 ° 0 min 0,000 mm 0,0 UV-I 51 W/m² 17,9 °C 21,1 °C 0,0 km/h (0 Bft)
10.06.2018 20:06 21,1 °C 82 % 1008,3 hPa 0,0 mm 0,0 km/h (0 Bft) O-NO 73 ° 0 min 0,000 mm 0,0 UV-I 49 W/m² 17,9 °C 21,1 °C 0,0 km/h (0 Bft)
10.06.2018 20:07 21,0 °C 82 % 1008,3 hPa 0,0 mm 0,0 km/h (0 Bft) O-NO 73 ° 0 min 0,000 mm 0,0 UV-I 49 W/m² 17,8 °C 21,0 °C 0,0 km/h (0 Bft)
10.06.2018 20:08 21,0 °C 82 % 1008,2 hPa 0,0 mm 0,0 km/h (0 Bft) O-NO 73 ° 0 min 0,000 mm 0,0 UV-I 47 W/m² 17,8 °C 21,0 °C 0,0 km/h (0 Bft)
10.06.2018 20:09 20,9 °C 82 % 1008,3 hPa 0,0 mm 0,0 km/h (0 Bft) O-NO 73 ° 0 min 0,000 mm 0,0 UV-I 47 W/m² 17,7 °C 20,9 °C 0,0 km/h (0 Bft)
10.06.2018 20:10 20,9 °C 83 % 1008,2 hPa 0,0 mm 0,0 km/h (0 Bft) O-NO 73 ° 0 min 0,000 mm 0,0 UV-I 46 W/m² 17,9 °C 20,9 °C 0,0 km/h (0 Bft)
10.06.2018 20:11 20,9 °C 83 % 1008,2 hPa 0,0 mm 0,0 km/h (0 Bft) O-NO 73 ° 0 min 0,000 mm 0,0 UV-I 46 W/m² 17,9 °C 20,9 °C 0,0 km/h (0 Bft)
10.06.2018 20:12 20,8 °C 83 % 1008,2 hPa 0,0 mm 0,0 km/h (0 Bft) O-NO 73 ° 0 min 0,000 mm 0,0 UV-I 44 W/m² 17,8 °C 20,8 °C 0,0 km/h (0 Bft)
10.06.2018 20:13 20,8 °C 83 % 1008,2 hPa 0,0 mm 0,0 km/h (0 Bft) O-NO 73 ° 0 min 0,000 mm 0,0 UV-I 44 W/m² 17,8 °C 20,8 °C 0,0 km/h (0 Bft)
10.06.2018 20:14 20,8 °C 83 % 1008,3 hPa 0,0 mm 0,0 km/h (0 Bft) O-NO 73 ° 0 min 0,000 mm 0,0 UV-I 42 W/m² 17,8 °C 20,8 °C 0,0 km/h (0 Bft)
10.06.2018 20:15 20,8 °C 83 % 1008,3 hPa 0,0 mm 0,0 km/h (0 Bft) O-NO 73 ° 0 min 0,000 mm 0,0 UV-I 42 W/m² 17,8 °C 20,8 °C 0,0 km/h (0 Bft)
10.06.2018 20:16 20,8 °C 83 % 1008,2 hPa 0,0 mm 0,0 km/h (0 Bft) O-NO 73 ° 0 min 0,000 mm 0,0 UV-I 42 W/m² 17,8 °C 20,8 °C 0,0 km/h (0 Bft)
10.06.2018 20:17 20,7 °C 83 % 1008,3 hPa 0,0 mm 0,0 km/h (0 Bft) O-NO 73 ° 0 min 0,000 mm 0,0 UV-I 42 W/m² 17,7 °C 20,7 °C 0,0 km/h (0 Bft)
10.06.2018 20:18 20,7 °C 83 % 1008,3 hPa 0,0 mm 0,0 km/h (0 Bft) O-NO 73 ° 0 min 0,000 mm 0,0 UV-I 42 W/m² 17,7 °C 20,7 °C 0,0 km/h (0 Bft)
10.06.2018 20:19 20,7 °C 83 % 1008,3 hPa 0,0 mm 0,0 km/h (0 Bft) O-NO 73 ° 0 min 0,000 mm 0,0 UV-I 54 W/m² 17,7 °C 20,7 °C 0,0 km/h (0 Bft)
10.06.2018 20:20 20,6 °C 83 % 1008,2 hPa 0,0 mm 0,0 km/h (0 Bft) O-NO 73 ° 0 min 0,000 mm 0,0 UV-I 47 W/m² 17,6 °C 20,6 °C 0,0 km/h (0 Bft)
10.06.2018 20:21 20,6 °C 83 % 1008,3 hPa 0,0 mm 0,0 km/h (0 Bft) O-NO 73 ° 0 min 0,000 mm 0,0 UV-I 44 W/m² 17,6 °C 20,6 °C 0,0 km/h (0 Bft)
10.06.2018 20:22 20,6 °C 83 % 1008,3 hPa 0,0 mm 0,0 km/h (0 Bft) O-NO 73 ° 0 min 0,000 mm 0,0 UV-I 42 W/m² 17,6 °C 20,6 °C 0,0 km/h (0 Bft)
10.06.2018 20:23 20,7 °C 82 % 1008,3 hPa 0,0 mm 0,6 km/h (0 Bft) O-NO 73 ° 0 min 0,000 mm 0,0 UV-I 40 W/m² 17,5 °C 20,7 °C 3,2 km/h (1 Bft)
10.06.2018 20:24 20,7 °C 82 % 1008,2 hPa 0,0 mm 2,1 km/h (1 Bft) O-NO 73 ° 0 min 0,000 mm 0,0 UV-I 39 W/m² 17,5 °C 20,7 °C 4,8 km/h (1 Bft)
10.06.2018 20:25 20,7 °C 82 % 1008,2 hPa 0,0 mm 1,7 km/h (1 Bft) O-SO 103 ° 0 min 0,000 mm 0,0 UV-I 37 W/m² 17,5 °C 20,7 °C 4,8 km/h (1 Bft)
10.06.2018 20:26 20,8 °C 80 % 1008,2 hPa 0,0 mm 0,6 km/h (0 Bft) O-SO 103 ° 0 min 0,000 mm 0,0 UV-I 40 W/m² 17,2 °C 20,8 °C 1,6 km/h (1 Bft)
10.06.2018 20:27 20,8 °C 82 % 1008,2 hPa 0,0 mm 2,1 km/h (1 Bft) S-SO 150 ° 0 min 0,000 mm 0,0 UV-I 44 W/m² 17,6 °C 20,8 °C 4,8 km/h (1 Bft)
10.06.2018 20:28 20,9 °C 80 % 1008,2 hPa 0,0 mm 2,0 km/h (1 Bft) S-SO 152 ° 0 min 0,000 mm 0,0 UV-I 46 W/m² 17,3 °C 20,9 °C 3,2 km/h (1 Bft)
10.06.2018 20:29 20,9 °C 81 % 1008,2 hPa 0,0 mm 0,8 km/h (0 Bft) S-SO 152 ° 0 min 0,000 mm 0,0 UV-I 44 W/m² 17,5 °C 20,9 °C 3,2 km/h (1 Bft)
10.06.2018 20:30 20,9 °C 81 % 1008,2 hPa 0,0 mm 3,9 km/h (1 Bft) S 188 ° 0 min 0,000 mm 0,0 UV-I 42 W/m² 17,5 °C 20,9 °C 6,4 km/h (2 Bft)
10.06.2018 20:31 20,8 °C 82 % 1008,2 hPa 0,0 mm 0,1 km/h (0 Bft) S 189 ° 0 min 0,000 mm 0,0 UV-I 37 W/m² 17,6 °C 20,8 °C 1,6 km/h (1 Bft)
10.06.2018 20:32 20,8 °C 82 % 1008,3 hPa 0,0 mm 0,0 km/h (0 Bft) S 189 ° 0 min 0,000 mm 0,0 UV-I 33 W/m² 17,6 °C 20,8 °C 0,0 km/h (0 Bft)
10.06.2018 20:33 20,8 °C 82 % 1008,3 hPa 0,0 mm 0,0 km/h (0 Bft) S 189 ° 0 min 0,000 mm 0,0 UV-I 32 W/m² 17,6 °C 20,8 °C 0,0 km/h (0 Bft)
10.06.2018 20:34 20,7 °C 82 % 1008,3 hPa 0,0 mm 0,0 km/h (0 Bft) S 189 ° 0 min 0,000 mm 0,0 UV-I 32 W/m² 17,5 °C 20,7 °C 0,0 km/h (0 Bft)
10.06.2018 20:35 20,7 °C 82 % 1008,3 hPa 0,0 mm 0,0 km/h (0 Bft) S 189 ° 0 min 0,000 mm 0,0 UV-I 30 W/m² 17,5 °C 20,7 °C 0,0 km/h (0 Bft)
10.06.2018 20:36 20,6 °C 82 % 1008,3 hPa 0,0 mm 0,0 km/h (0 Bft) S 189 ° 0 min 0,000 mm 0,0 UV-I 28 W/m² 17,4 °C 20,6 °C 0,0 km/h (0 Bft)
10.06.2018 20:37 20,6 °C 82 % 1008,3 hPa 0,0 mm 0,0 km/h (0 Bft) S 189 ° 0 min 0,000 mm 0,0 UV-I 26 W/m² 17,4 °C 20,6 °C 0,0 km/h (0 Bft)
10.06.2018 20:38 20,4 °C 83 % 1008,3 hPa 0,0 mm 0,0 km/h (0 Bft) S 189 ° 0 min 0,000 mm 0,0 UV-I 26 W/m² 17,4 °C 20,4 °C 0,0 km/h (0 Bft)
10.06.2018 20:39 20,5 °C 82 % 1008,3 hPa 0,0 mm 0,0 km/h (0 Bft) S 188 ° 0 min 0,000 mm 0,0 UV-I 25 W/m² 17,3 °C 20,5 °C 0,0 km/h (0 Bft)
10.06.2018 20:40 20,4 °C 82 % 1008,3 hPa 0,0 mm 0,0 km/h (0 Bft) S 189 ° 0 min 0,000 mm 0,0 UV-I 25 W/m² 17,2 °C 20,4 °C 0,0 km/h (0 Bft)
10.06.2018 20:41 20,4 °C 82 % 1008,3 hPa 0,0 mm 0,0 km/h (0 Bft) S 189 ° 0 min 0,000 mm 0,0 UV-I 25 W/m² 17,2 °C 20,4 °C 0,0 km/h (0 Bft)
10.06.2018 20:42 20,3 °C 82 % 1008,3 hPa 0,0 mm 0,0 km/h (0 Bft) S 189 ° 0 min 0,000 mm 0,0 UV-I 25 W/m² 17,1 °C 20,3 °C 0,0 km/h (0 Bft)
10.06.2018 20:43 20,2 °C 82 % 1008,3 hPa 0,0 mm 0,0 km/h (0 Bft) S 189 ° 0 min 0,000 mm 0,0 UV-I 23 W/m² 17,0 °C 20,2 °C 0,0 km/h (0 Bft)
10.06.2018 20:44 20,2 °C 82 % 1008,4 hPa 0,0 mm 0,0 km/h (0 Bft) S 189 ° 0 min 0,000 mm 0,0 UV-I 23 W/m² 17,0 °C 20,2 °C 0,0 km/h (0 Bft)
10.06.2018 20:45 20,2 °C 82 % 1008,4 hPa 0,0 mm 0,0 km/h (0 Bft) S 189 ° 0 min 0,000 mm 0,0 UV-I 21 W/m² 17,0 °C 20,2 °C 0,0 km/h (0 Bft)
10.06.2018 20:46 20,2 °C 83 % 1008,4 hPa 0,0 mm 0,0 km/h (0 Bft) S 189 ° 0 min 0,000 mm 0,0 UV-I 21 W/m² 17,2 °C 20,2 °C 0,0 km/h (0 Bft)
10.06.2018 20:47 20,1 °C 83 % 1008,3 hPa 0,0 mm 0,0 km/h (0 Bft) S 189 ° 0 min 0,000 mm 0,0 UV-I 19 W/m² 17,1 °C 20,1 °C 0,0 km/h (0 Bft)
10.06.2018 20:48 20,1 °C 83 % 1008,3 hPa 0,0 mm 0,0 km/h (0 Bft) S 189 ° 0 min 0,000 mm 0,0 UV-I 16 W/m² 17,1 °C 20,1 °C 0,0 km/h (0 Bft)
10.06.2018 20:49 20,1 °C 83 % 1008,4 hPa 0,0 mm 0,0 km/h (0 Bft) S 189 ° 0 min 0,000 mm 0,0 UV-I 14 W/m² 17,1 °C 20,1 °C 0,0 km/h (0 Bft)
10.06.2018 20:50 20,0 °C 83 % 1008,4 hPa 0,0 mm 0,0 km/h (0 Bft) S 189 ° 0 min 0,000 mm 0,0 UV-I 12 W/m² 17,0 °C 20,0 °C 0,0 km/h (0 Bft)
10.06.2018 20:51 20,0 °C 83 % 1008,4 hPa 0,0 mm 0,0 km/h (0 Bft) S 189 ° 0 min 0,000 mm 0,0 UV-I 12 W/m² 17,0 °C 20,0 °C 0,0 km/h (0 Bft)
10.06.2018 20:52 20,0 °C 83 % 1008,4 hPa 0,0 mm 0,0 km/h (0 Bft) S 189 ° 0 min 0,000 mm 0,0 UV-I 11 W/m² 17,0 °C 20,0 °C 0,0 km/h (0 Bft)
10.06.2018 20:53 19,9 °C 83 % 1008,4 hPa 0,0 mm 0,0 km/h (0 Bft) S 189 ° 0 min 0,000 mm 0,0 UV-I 11 W/m² 16,9 °C 19,9 °C 0,0 km/h (0 Bft)
10.06.2018 20:54 19,8 °C 83 % 1008,4 hPa 0,0 mm 0,0 km/h (0 Bft) S 189 ° 0 min 0,000 mm 0,0 UV-I 11 W/m² 16,8 °C 19,8 °C 0,0 km/h (0 Bft)
10.06.2018 20:55 19,8 °C 84 % 1008,4 hPa 0,0 mm 0,0 km/h (0 Bft) S 189 ° 0 min 0,000 mm 0,0 UV-I 9 W/m² 17,0 °C 19,8 °C 0,0 km/h (0 Bft)
10.06.2018 20:56 19,8 °C 84 % 1008,4 hPa 0,0 mm 0,0 km/h (0 Bft) S 188 ° 0 min 0,000 mm 0,0 UV-I 9 W/m² 17,0 °C 19,8 °C 0,0 km/h (0 Bft)
10.06.2018 20:57 19,7 °C 84 % 1008,4 hPa 0,0 mm 0,0 km/h (0 Bft) S 189 ° 0 min 0,000 mm 0,0 UV-I 7 W/m² 16,9 °C 19,7 °C 0,0 km/h (0 Bft)
10.06.2018 20:58 19,7 °C 84 % 1008,3 hPa 0,0 mm 0,0 km/h (0 Bft) S 189 ° 0 min 0,000 mm 0,0 UV-I 7 W/m² 16,9 °C 19,7 °C 0,0 km/h (0 Bft)
10.06.2018 20:59 19,6 °C 84 % 1008,3 hPa 0,0 mm 0,0 km/h (0 Bft) S 189 ° 0 min 0,000 mm 0,0 UV-I 7 W/m² 16,8 °C 19,6 °C 0,0 km/h (0 Bft)
10.06.2018 21:00 19,5 °C 84 % 1008,3 hPa 0,0 mm 0,0 km/h (0 Bft) S 189 ° 0 min 0,000 mm 0,0 UV-I 5 W/m² 16,7 °C 19,5 °C 0,0 km/h (0 Bft)
10.06.2018 21:01 19,4 °C 84 % 1008,3 hPa 0,0 mm 0,0 km/h (0 Bft) S 189 ° 0 min 0,025 mm 0,0 UV-I 5 W/m² 16,6 °C 19,4 °C 0,0 km/h (0 Bft)
10.06.2018 21:02 19,4 °C 85 % 1008,3 hPa 0,0 mm 0,0 km/h (0 Bft) S 189 ° 0 min 0,000 mm 0,0 UV-I 5 W/m² 16,8 °C 19,4 °C 0,0 km/h (0 Bft)
10.06.2018 21:03 19,3 °C 85 % 1008,4 hPa 0,0 mm 0,0 km/h (0 Bft) S 189 ° 0 min 0,000 mm 0,0 UV-I 5 W/m² 16,7 °C 19,3 °C 0,0 km/h (0 Bft)
10.06.2018 21:04 19,2 °C 85 % 1008,4 hPa 0,0 mm 0,0 km/h (0 Bft) S 189 ° 0 min 0,000 mm 0,0 UV-I 5 W/m² 16,6 °C 19,2 °C 0,0 km/h (0 Bft)
10.06.2018 21:05 19,0 °C 85 % 1008,4 hPa 0,0 mm 0,0 km/h (0 Bft) S 189 ° 0 min 0,000 mm 0,0 UV-I 5 W/m² 16,4 °C 19,0 °C 0,0 km/h (0 Bft)
10.06.2018 21:06 18,9 °C 85 % 1008,5 hPa 0,0 mm 0,0 km/h (0 Bft) S 189 ° 0 min 0,000 mm 0,0 UV-I 0 W/m² 16,3 °C 18,9 °C 0,0 km/h (0 Bft)
10.06.2018 21:07 18,8 °C 86 % 1008,5 hPa 0,0 mm 0,0 km/h (0 Bft) S 189 ° 0 min 0,000 mm 0,0 UV-I 0 W/m² 16,4 °C 18,8 °C 0,0 km/h (0 Bft)
10.06.2018 21:08 18,7 °C 86 % 1008,4 hPa 0,0 mm 0,0 km/h (0 Bft) S 189 ° 0 min 0,000 mm 0,0 UV-I 0 W/m² 16,3 °C 18,7 °C 0,0 km/h (0 Bft)
10.06.2018 21:09 18,6 °C 87 % 1008,4 hPa 0,0 mm 0,0 km/h (0 Bft) S 189 ° 0 min 0,000 mm 0,0 UV-I 0 W/m² 16,4 °C 18,6 °C 0,0 km/h (0 Bft)
10.06.2018 21:10 18,6 °C 87 % 1008,4 hPa 0,0 mm 0,0 km/h (0 Bft) S 189 ° 0 min 0,000 mm 0,0 UV-I 0 W/m² 16,4 °C 18,6 °C 0,0 km/h (0 Bft)
10.06.2018 21:11 18,6 °C 87 % 1008,4 hPa 0,0 mm 0,0 km/h (0 Bft) S 189 ° 0 min 0,000 mm 0,0 UV-I 0 W/m² 16,4 °C 18,6 °C 0,0 km/h (0 Bft)
10.06.2018 21:12 18,6 °C 87 % 1008,4 hPa 0,0 mm 0,9 km/h (0 Bft) S 189 ° 0 min 0,000 mm 0,0 UV-I 0 W/m² 16,4 °C 18,6 °C 3,2 km/h (1 Bft)
10.06.2018 21:13 18,6 °C 87 % 1008,4 hPa 0,0 mm 1,2 km/h (1 Bft) S 189 ° 0 min 0,000 mm 0,0 UV-I 0 W/m² 16,4 °C 18,6 °C 1,6 km/h (1 Bft)
10.06.2018 21:14 18,6 °C 87 % 1008,4 hPa 0,0 mm 0,4 km/h (0 Bft) S 189 ° 0 min 0,000 mm 0,0 UV-I 0 W/m² 16,4 °C 18,6 °C 1,6 km/h (1 Bft)
10.06.2018 21:15 18,6 °C 87 % 1008,4 hPa 0,0 mm 1,1 km/h (1 Bft) S 189 ° 0 min 0,000 mm 0,0 UV-I 0 W/m² 16,4 °C 18,6 °C 3,2 km/h (1 Bft)
10.06.2018 21:16 18,6 °C 87 % 1008,4 hPa 0,0 mm 1,1 km/h (1 Bft) S 189 ° 0 min 0,000 mm 0,0 UV-I 0 W/m² 16,4 °C 18,6 °C 1,6 km/h (1 Bft)
10.06.2018 21:17 18,6 °C 87 % 1008,4 hPa 0,0 mm 0,0 km/h (0 Bft) S 189 ° 0 min 0,000 mm 0,0 UV-I 0 W/m² 16,4 °C 18,6 °C 0,0 km/h (0 Bft)
10.06.2018 21:18 18,6 °C 87 % 1008,4 hPa 0,0 mm 0,0 km/h (0 Bft) S 189 ° 0 min 0,000 mm 0,0 UV-I 0 W/m² 16,4 °C 18,6 °C 0,0 km/h (0 Bft)
10.06.2018 21:19 18,5 °C 87 % 1008,4 hPa 0,0 mm 0,0 km/h (0 Bft) S 189 ° 0 min 0,000 mm 0,0 UV-I 0 W/m² 16,3 °C 18,5 °C 0,0 km/h (0 Bft)
10.06.2018 21:20 18,5 °C 87 % 1008,4 hPa 0,0 mm 0,0 km/h (0 Bft) S 189 ° 0 min 0,000 mm 0,0 UV-I 0 W/m² 16,3 °C 18,5 °C 0,0 km/h (0 Bft)
10.06.2018 21:21 18,5 °C 87 % 1008,4 hPa 0,0 mm 0,0 km/h (0 Bft) S 189 ° 0 min 0,000 mm 0,0 UV-I 0 W/m² 16,3 °C 18,5 °C 0,0 km/h (0 Bft)
10.06.2018 21:22 18,4 °C 87 % 1008,4 hPa 0,0 mm 0,0 km/h (0 Bft) S 189 ° 0 min 0,000 mm 0,0 UV-I 0 W/m² 16,2 °C 18,4 °C 0,0 km/h (0 Bft)
10.06.2018 21:23 18,4 °C 87 % 1008,4 hPa 0,0 mm 0,0 km/h (0 Bft) S 189 ° 0 min 0,000 mm 0,0 UV-I 0 W/m² 16,2 °C 18,4 °C 0,0 km/h (0 Bft)
10.06.2018 21:24 18,3 °C 87 % 1008,4 hPa 0,0 mm 0,0 km/h (0 Bft) S 189 ° 0 min 0,000 mm 0,0 UV-I 0 W/m² 16,1 °C 18,3 °C 0,0 km/h (0 Bft)
10.06.2018 21:25 18,3 °C 87 % 1008,4 hPa 0,0 mm 0,0 km/h (0 Bft) S 189 ° 0 min 0,000 mm 0,0 UV-I 0 W/m² 16,1 °C 18,3 °C 0,0 km/h (0 Bft)
10.06.2018 21:26 18,3 °C 87 % 1008,4 hPa 0,0 mm 0,0 km/h (0 Bft) S 189 ° 0 min 0,000 mm 0,0 UV-I 0 W/m² 16,1 °C 18,3 °C 0,0 km/h (0 Bft)
10.06.2018 21:27 18,3 °C 87 % 1008,4 hPa 0,0 mm 0,0 km/h (0 Bft) S 189 ° 0 min 0,000 mm 0,0 UV-I 0 W/m² 16,1 °C 18,3 °C 0,0 km/h (0 Bft)
10.06.2018 21:28 18,2 °C 87 % 1008,4 hPa 0,0 mm 0,0 km/h (0 Bft) S 189 ° 0 min 0,000 mm 0,0 UV-I 0 W/m² 16,0 °C 18,2 °C 0,0 km/h (0 Bft)
10.06.2018 21:29 18,1 °C 87 % 1008,4 hPa 0,0 mm 0,0 km/h (0 Bft) S 189 ° 0 min 0,000 mm 0,0 UV-I 0 W/m² 15,9 °C 18,1 °C 0,0 km/h (0 Bft)
10.06.2018 21:30 18,0 °C 87 % 1008,5 hPa 0,0 mm 0,0 km/h (0 Bft) S 189 ° 0 min 0,000 mm 0,0 UV-I 0 W/m² 15,8 °C 18,0 °C 0,0 km/h (0 Bft)
10.06.2018 21:31 17,9 °C 87 % 1008,5 hPa 0,0 mm 0,0 km/h (0 Bft) S 189 ° 0 min 0,000 mm 0,0 UV-I 0 W/m² 15,7 °C 17,9 °C 0,0 km/h (0 Bft)
10.06.2018 21:32 17,9 °C 87 % 1008,5 hPa 0,0 mm 0,0 km/h (0 Bft) S 189 ° 0 min 0,000 mm 0,0 UV-I 0 W/m² 15,7 °C 17,9 °C 0,0 km/h (0 Bft)
10.06.2018 21:33 17,9 °C 88 % 1008,5 hPa 0,0 mm 0,0 km/h (0 Bft) S 189 ° 0 min 0,000 mm 0,0 UV-I 0 W/m² 15,9 °C 17,9 °C 0,0 km/h (0 Bft)
10.06.2018 21:34 17,9 °C 87 % 1008,5 hPa 0,0 mm 0,0 km/h (0 Bft) S 188 ° 0 min 0,000 mm 0,0 UV-I 0 W/m² 15,7 °C 17,9 °C 0,0 km/h (0 Bft)
10.06.2018 21:35 17,9 °C 87 % 1008,5 hPa 0,0 mm 0,0 km/h (0 Bft) S 188 ° 0 min 0,000 mm 0,0 UV-I 0 W/m² 15,7 °C 17,9 °C 0,0 km/h (0 Bft)
10.06.2018 21:36 17,9 °C 87 % 1008,5 hPa 0,0 mm 0,0 km/h (0 Bft) S 189 ° 0 min 0,000 mm 0,0 UV-I 0 W/m² 15,7 °C 17,9 °C 0,0 km/h (0 Bft)
10.06.2018 21:37 17,9 °C 87 % 1008,5 hPa 0,0 mm 0,0 km/h (0 Bft) S 189 ° 0 min 0,000 mm 0,0 UV-I 0 W/m² 15,7 °C 17,9 °C 0,0 km/h (0 Bft)
10.06.2018 21:38 17,8 °C 87 % 1008,5 hPa 0,0 mm 0,0 km/h (0 Bft) S 189 ° 0 min 0,000 mm 0,0 UV-I 0 W/m² 15,6 °C 17,8 °C 0,0 km/h (0 Bft)
10.06.2018 21:39 17,8 °C 87 % 1008,5 hPa 0,0 mm 0,0 km/h (0 Bft) S 189 ° 0 min 0,000 mm 0,0 UV-I 0 W/m² 15,6 °C 17,8 °C 0,0 km/h (0 Bft)
10.06.2018 21:40 17,8 °C 87 % 1008,5 hPa 0,0 mm 0,0 km/h (0 Bft) S 188 ° 0 min 0,000 mm 0,0 UV-I 0 W/m² 15,6 °C 17,8 °C 0,0 km/h (0 Bft)
10.06.2018 21:41 17,7 °C 87 % 1008,6 hPa 0,0 mm 0,0 km/h (0 Bft) S 188 ° 0 min 0,000 mm 0,0 UV-I 0 W/m² 15,5 °C 17,7 °C 0,0 km/h (0 Bft)
10.06.2018 21:42 17,7 °C 87 % 1008,5 hPa 0,0 mm 0,0 km/h (0 Bft) S 188 ° 0 min 0,000 mm 0,0 UV-I 0 W/m² 15,5 °C 17,7 °C 0,0 km/h (0 Bft)
10.06.2018 21:43 17,7 °C 87 % 1008,6 hPa 0,0 mm 0,0 km/h (0 Bft) S 188 ° 0 min 0,000 mm 0,0 UV-I 0 W/m² 15,5 °C 17,7 °C 0,0 km/h (0 Bft)
10.06.2018 21:44 17,7 °C 87 % 1008,6 hPa 0,0 mm 0,0 km/h (0 Bft) S 189 ° 0 min 0,000 mm 0,0 UV-I 0 W/m² 15,5 °C 17,7 °C 0,0 km/h (0 Bft)
10.06.2018 21:45 17,7 °C 87 % 1008,6 hPa 0,0 mm 0,0 km/h (0 Bft) S 188 ° 0 min 0,000 mm 0,0 UV-I 0 W/m² 15,5 °C 17,7 °C 0,0 km/h (0 Bft)
10.06.2018 21:46 17,7 °C 87 % 1008,6 hPa 0,0 mm 0,0 km/h (0 Bft) S 188 ° 0 min 0,000 mm 0,0 UV-I 0 W/m² 15,5 °C 17,7 °C 0,0 km/h (0 Bft)
10.06.2018 21:47 17,7 °C 87 % 1008,6 hPa 0,0 mm 0,0 km/h (0 Bft) S 189 ° 0 min 0,000 mm 0,0 UV-I 0 W/m² 15,5 °C 17,7 °C 0,0 km/h (0 Bft)
10.06.2018 21:48 17,6 °C 87 % 1008,6 hPa 0,0 mm 0,0 km/h (0 Bft) S 189 ° 0 min 0,000 mm 0,0 UV-I 0 W/m² 15,4 °C 17,6 °C 0,0 km/h (0 Bft)
10.06.2018 21:49 17,6 °C 87 % 1008,6 hPa 0,0 mm 0,0 km/h (0 Bft) S 189 ° 0 min 0,000 mm 0,0 UV-I 0 W/m² 15,4 °C 17,6 °C 0,0 km/h (0 Bft)
10.06.2018 21:50 17,6 °C 87 % 1008,7 hPa 0,0 mm 0,0 km/h (0 Bft) S 189 ° 0 min 0,000 mm 0,0 UV-I 0 W/m² 15,4 °C 17,6 °C 0,0 km/h (0 Bft)
10.06.2018 21:51 17,5 °C 87 % 1008,7 hPa 0,0 mm 0,0 km/h (0 Bft) S 189 ° 0 min 0,000 mm 0,0 UV-I 0 W/m² 15,3 °C 17,5 °C 0,0 km/h (0 Bft)
10.06.2018 21:52 17,5 °C 87 % 1008,7 hPa 0,0 mm 0,0 km/h (0 Bft) S 189 ° 0 min 0,000 mm 0,0 UV-I 0 W/m² 15,3 °C 17,5 °C 0,0 km/h (0 Bft)
10.06.2018 21:53 17,5 °C 87 % 1008,7 hPa 0,0 mm 0,0 km/h (0 Bft) S 189 ° 0 min 0,000 mm 0,0 UV-I 0 W/m² 15,3 °C 17,5 °C 0,0 km/h (0 Bft)
10.06.2018 21:54 17,4 °C 87 % 1008,7 hPa 0,0 mm 0,0 km/h (0 Bft) S 189 ° 0 min 0,000 mm 0,0 UV-I 0 W/m² 15,2 °C 17,4 °C 0,0 km/h (0 Bft)
10.06.2018 21:55 17,4 °C 87 % 1008,7 hPa 0,0 mm 0,0 km/h (0 Bft) S 188 ° 0 min 0,000 mm 0,0 UV-I 0 W/m² 15,2 °C 17,4 °C 0,0 km/h (0 Bft)
10.06.2018 21:56 17,4 °C 88 % 1008,8 hPa 0,0 mm 0,0 km/h (0 Bft) S 189 ° 0 min 0,000 mm 0,0 UV-I 0 W/m² 15,4 °C 17,4 °C 0,0 km/h (0 Bft)
10.06.2018 21:57 17,3 °C 88 % 1008,8 hPa 0,0 mm 0,0 km/h (0 Bft) S 189 ° 0 min 0,000 mm 0,0 UV-I 0 W/m² 15,3 °C 17,3 °C 0,0 km/h (0 Bft)
10.06.2018 21:58 17,3 °C 88 % 1008,8 hPa 0,0 mm 0,0 km/h (0 Bft) S 189 ° 0 min 0,000 mm 0,0 UV-I 0 W/m² 15,3 °C 17,3 °C 0,0 km/h (0 Bft)
10.06.2018 21:59 17,3 °C 88 % 1008,8 hPa 0,0 mm 0,0 km/h (0 Bft) S 189 ° 0 min 0,000 mm 0,0 UV-I 0 W/m² 15,3 °C 17,3 °C 0,0 km/h (0 Bft)
10.06.2018 22:00 17,3 °C 88 % 1008,9 hPa 0,0 mm 0,0 km/h (0 Bft) S 188 ° 0 min 0,000 mm 0,0 UV-I 0 W/m² 15,3 °C 17,3 °C 0,0 km/h (0 Bft)
10.06.2018 22:01 17,3 °C 88 % 1008,8 hPa 0,0 mm 0,0 km/h (0 Bft) S 188 ° 0 min 0,000 mm 0,0 UV-I 0 W/m² 15,3 °C 17,3 °C 0,0 km/h (0 Bft)
10.06.2018 22:02 17,4 °C 88 % 1008,8 hPa 0,0 mm 0,0 km/h (0 Bft) S 188 ° 0 min 0,000 mm 0,0 UV-I 0 W/m² 15,4 °C 17,4 °C 0,0 km/h (0 Bft)
10.06.2018 22:03 17,4 °C 88 % 1008,9 hPa 0,0 mm 0,0 km/h (0 Bft) S 189 ° 0 min 0,000 mm 0,0 UV-I 0 W/m² 15,4 °C 17,4 °C 0,0 km/h (0 Bft)
10.06.2018 22:04 17,4 °C 88 % 1008,9 hPa 0,0 mm 0,0 km/h (0 Bft) S 188 ° 0 min 0,000 mm 0,0 UV-I 0 W/m² 15,4 °C 17,4 °C 0,0 km/h (0 Bft)
10.06.2018 22:05 17,5 °C 88 % 1008,9 hPa 0,0 mm 0,0 km/h (0 Bft) S 188 ° 0 min 0,000 mm 0,0 UV-I 0 W/m² 15,5 °C 17,5 °C 0,0 km/h (0 Bft)
10.06.2018 22:06 17,6 °C 88 % 1009,0 hPa 0,0 mm 0,0 km/h (0 Bft) S 189 ° 0 min 0,000 mm 0,0 UV-I 0 W/m² 15,6 °C 17,6 °C 0,0 km/h (0 Bft)
10.06.2018 22:07 17,6 °C 88 % 1009,0 hPa 0,0 mm 0,0 km/h (0 Bft) S 189 ° 0 min 0,000 mm 0,0 UV-I 0 W/m² 15,6 °C 17,6 °C 0,0 km/h (0 Bft)
10.06.2018 22:08 17,6 °C 88 % 1009,0 hPa 0,0 mm 0,0 km/h (0 Bft) S 189 ° 0 min 0,000 mm 0,0 UV-I 0 W/m² 15,6 °C 17,6 °C 0,0 km/h (0 Bft)
10.06.2018 22:09 17,6 °C 88 % 1009,0 hPa 0,0 mm 0,0 km/h (0 Bft) S 188 ° 0 min 0,000 mm 0,0 UV-I 0 W/m² 15,6 °C 17,6 °C 0,0 km/h (0 Bft)
10.06.2018 22:10 17,6 °C 88 % 1009,0 hPa 0,0 mm 0,0 km/h (0 Bft) S 189 ° 0 min 0,000 mm 0,0 UV-I 0 W/m² 15,6 °C 17,6 °C 0,0 km/h (0 Bft)
10.06.2018 22:11 17,6 °C 88 % 1009,0 hPa 0,0 mm 0,0 km/h (0 Bft) S 189 ° 0 min 0,000 mm 0,0 UV-I 0 W/m² 15,6 °C 17,6 °C 0,0 km/h (0 Bft)
10.06.2018 22:12 17,6 °C 88 % 1009,0 hPa 0,0 mm 0,0 km/h (0 Bft) S 189 ° 0 min 0,000 mm 0,0 UV-I 0 W/m² 15,6 °C 17,6 °C 0,0 km/h (0 Bft)
10.06.2018 22:13 17,6 °C 88 % 1009,1 hPa 0,0 mm 0,0 km/h (0 Bft) S 189 ° 0 min 0,000 mm 0,0 UV-I 0 W/m² 15,6 °C 17,6 °C 0,0 km/h (0 Bft)
10.06.2018 22:14 17,6 °C 88 % 1009,1 hPa 0,0 mm 0,0 km/h (0 Bft) S 188 ° 0 min 0,000 mm 0,0 UV-I 0 W/m² 15,6 °C 17,6 °C 0,0 km/h (0 Bft)
10.06.2018 22:15 17,6 °C 88 % 1009,1 hPa 0,0 mm 0,0 km/h (0 Bft) S 189 ° 0 min 0,000 mm 0,0 UV-I 0 W/m² 15,6 °C 17,6 °C 0,0 km/h (0 Bft)
10.06.2018 22:16 17,6 °C 88 % 1009,1 hPa 0,0 mm 0,0 km/h (0 Bft) S 189 ° 0 min 0,000 mm 0,0 UV-I 0 W/m² 15,6 °C 17,6 °C 0,0 km/h (0 Bft)
10.06.2018 22:17 17,6 °C 88 % 1009,1 hPa 0,0 mm 0,0 km/h (0 Bft) S 189 ° 0 min 0,000 mm 0,0 UV-I 0 W/m² 15,6 °C 17,6 °C 0,0 km/h (0 Bft)
10.06.2018 22:18 17,6 °C 88 % 1009,1 hPa 0,0 mm 0,0 km/h (0 Bft) S 189 ° 0 min 0,000 mm 0,0 UV-I 0 W/m² 15,6 °C 17,6 °C 0,0 km/h (0 Bft)
10.06.2018 22:19 17,6 °C 88 % 1009,1 hPa 0,0 mm 0,0 km/h (0 Bft) S 188 ° 0 min 0,000 mm 0,0 UV-I 0 W/m² 15,6 °C 17,6 °C 0,0 km/h (0 Bft)
10.06.2018 22:20 17,6 °C 88 % 1009,2 hPa 0,0 mm 0,0 km/h (0 Bft) S 189 ° 0 min 0,000 mm 0,0 UV-I 0 W/m² 15,6 °C 17,6 °C 0,0 km/h (0 Bft)
10.06.2018 22:21 17,6 °C 88 % 1009,2 hPa 0,0 mm 0,0 km/h (0 Bft) S 189 ° 0 min 0,000 mm 0,0 UV-I 0 W/m² 15,6 °C 17,6 °C 0,0 km/h (0 Bft)
10.06.2018 22:22 17,5 °C 88 % 1009,2 hPa 0,0 mm 0,0 km/h (0 Bft) S 189 ° 0 min 0,000 mm 0,0 UV-I 0 W/m² 15,5 °C 17,5 °C 0,0 km/h (0 Bft)
10.06.2018 22:23 17,4 °C 88 % 1009,2 hPa 0,0 mm 0,0 km/h (0 Bft) S 189 ° 0 min 0,000 mm 0,0 UV-I 0 W/m² 15,4 °C 17,4 °C 0,0 km/h (0 Bft)
10.06.2018 22:24 17,4 °C 88 % 1009,2 hPa 0,0 mm 0,0 km/h (0 Bft) S 189 ° 0 min 0,000 mm 0,0 UV-I 0 W/m² 15,4 °C 17,4 °C 0,0 km/h (0 Bft)
10.06.2018 22:25 17,3 °C 89 % 1009,2 hPa 0,0 mm 0,0 km/h (0 Bft) S 188 ° 0 min 0,000 mm 0,0 UV-I 0 W/m² 15,5 °C 17,3 °C 0,0 km/h (0 Bft)
10.06.2018 22:26 17,3 °C 89 % 1009,2 hPa 0,0 mm 0,0 km/h (0 Bft) S 188 ° 0 min 0,000 mm 0,0 UV-I 0 W/m² 15,5 °C 17,3 °C 0,0 km/h (0 Bft)
10.06.2018 22:27 17,2 °C 89 % 1009,2 hPa 0,0 mm 0,0 km/h (0 Bft) S 189 ° 0 min 0,000 mm 0,0 UV-I 0 W/m² 15,4 °C 17,2 °C 0,0 km/h (0 Bft)
10.06.2018 22:28 17,2 °C 89 % 1009,2 hPa 0,0 mm 0,0 km/h (0 Bft) S 189 ° 0 min 0,000 mm 0,0 UV-I 0 W/m² 15,4 °C 17,2 °C 0,0 km/h (0 Bft)
10.06.2018 22:29 17,3 °C 89 % 1009,2 hPa 0,0 mm 0,0 km/h (0 Bft) S 189 ° 0 min 0,000 mm 0,0 UV-I 0 W/m² 15,5 °C 17,3 °C 0,0 km/h (0 Bft)
10.06.2018 22:30 17,3 °C 89 % 1009,2 hPa 0,0 mm 0,0 km/h (0 Bft) S 189 ° 0 min 0,000 mm 0,0 UV-I 0 W/m² 15,5 °C 17,3 °C 0,0 km/h (0 Bft)
10.06.2018 22:31 17,3 °C 89 % 1009,2 hPa 0,0 mm 1,7 km/h (1 Bft) S 188 ° 0 min 0,000 mm 0,0 UV-I 0 W/m² 15,5 °C 17,3 °C 4,8 km/h (1 Bft)
10.06.2018 22:32 17,3 °C 89 % 1009,2 hPa 0,0 mm 0,7 km/h (0 Bft) S 189 ° 0 min 0,000 mm 0,0 UV-I 0 W/m² 15,5 °C 17,3 °C 1,6 km/h (1 Bft)
10.06.2018 22:33 17,3 °C 89 % 1009,2 hPa 0,0 mm 0,5 km/h (0 Bft) S 189 ° 0 min 0,000 mm 0,0 UV-I 0 W/m² 15,5 °C 17,3 °C 1,6 km/h (1 Bft)
10.06.2018 22:34 17,3 °C 88 % 1009,2 hPa 0,0 mm 1,1 km/h (1 Bft) S 189 ° 0 min 0,000 mm 0,0 UV-I 0 W/m² 15,3 °C 17,3 °C 3,2 km/h (1 Bft)
10.06.2018 22:35 17,3 °C 88 % 1009,2 hPa 0,0 mm 0,7 km/h (0 Bft) S 188 ° 0 min 0,000 mm 0,0 UV-I 0 W/m² 15,3 °C 17,3 °C 3,2 km/h (1 Bft)
10.06.2018 22:36 17,3 °C 88 % 1009,2 hPa 0,0 mm 0,9 km/h (0 Bft) S 188 ° 0 min 0,000 mm 0,0 UV-I 0 W/m² 15,3 °C 17,3 °C 3,2 km/h (1 Bft)
10.06.2018 22:37 17,4 °C 87 % 1009,2 hPa 0,0 mm 0,0 km/h (0 Bft) S 189 ° 0 min 0,000 mm 0,0 UV-I 0 W/m² 15,2 °C 17,4 °C 0,0 km/h (0 Bft)
10.06.2018 22:38 17,4 °C 87 % 1009,2 hPa 0,0 mm 0,0 km/h (0 Bft) S 189 ° 0 min 0,000 mm 0,0 UV-I 0 W/m² 15,2 °C 17,4 °C 0,0 km/h (0 Bft)
10.06.2018 22:39 17,3 °C 87 % 1009,2 hPa 0,0 mm 0,0 km/h (0 Bft) S 189 ° 0 min 0,000 mm 0,0 UV-I 0 W/m² 15,1 °C 17,3 °C 0,0 km/h (0 Bft)
10.06.2018 22:40 17,3 °C 87 % 1009,2 hPa 0,0 mm 0,0 km/h (0 Bft) S 189 ° 0 min 0,000 mm 0,0 UV-I 0 W/m² 15,1 °C 17,3 °C 0,0 km/h (0 Bft)
10.06.2018 22:41 17,3 °C 87 % 1009,2 hPa 0,0 mm 0,1 km/h (0 Bft) S 188 ° 0 min 0,000 mm 0,0 UV-I 0 W/m² 15,1 °C 17,3 °C 1,6 km/h (1 Bft)
10.06.2018 22:42 17,3 °C 87 % 1009,2 hPa 0,0 mm 0,9 km/h (0 Bft) S 189 ° 0 min 0,000 mm 0,0 UV-I 0 W/m² 15,1 °C 17,3 °C 3,2 km/h (1 Bft)
10.06.2018 22:43 17,2 °C 87 % 1009,2 hPa 0,0 mm 0,0 km/h (0 Bft) S 189 ° 0 min 0,000 mm 0,0 UV-I 0 W/m² 15,0 °C 17,2 °C 0,0 km/h (0 Bft)
10.06.2018 22:44 17,2 °C 87 % 1009,2 hPa 0,0 mm 0,0 km/h (0 Bft) S 189 ° 0 min 0,000 mm 0,0 UV-I 0 W/m² 15,0 °C 17,2 °C 0,0 km/h (0 Bft)
10.06.2018 22:45 17,1 °C 88 % 1009,2 hPa 0,0 mm 0,0 km/h (0 Bft) S 189 ° 0 min 0,000 mm 0,0 UV-I 0 W/m² 15,1 °C 17,1 °C 0,0 km/h (0 Bft)
10.06.2018 22:46 17,0 °C 87 % 1009,2 hPa 0,0 mm 0,0 km/h (0 Bft) S 189 ° 0 min 0,000 mm 0,0 UV-I 0 W/m² 14,8 °C 17,0 °C 0,0 km/h (0 Bft)
10.06.2018 22:47 16,9 °C 88 % 1009,1 hPa 0,0 mm 0,0 km/h (0 Bft) S 189 ° 0 min 0,000 mm 0,0 UV-I 0 W/m² 14,9 °C 16,9 °C 0,0 km/h (0 Bft)
10.06.2018 22:48 16,9 °C 88 % 1009,2 hPa 0,0 mm 0,0 km/h (0 Bft) S 189 ° 0 min 0,000 mm 0,0 UV-I 0 W/m² 14,9 °C 16,9 °C 0,0 km/h (0 Bft)
10.06.2018 22:49 16,8 °C 88 % 1009,2 hPa 0,0 mm 0,0 km/h (0 Bft) S 189 ° 0 min 0,000 mm 0,0 UV-I 0 W/m² 14,8 °C 16,8 °C 0,0 km/h (0 Bft)
10.06.2018 22:50 16,8 °C 88 % 1009,1 hPa 0,0 mm 0,0 km/h (0 Bft) S 189 ° 0 min 0,000 mm 0,0 UV-I 0 W/m² 14,8 °C 16,8 °C 0,0 km/h (0 Bft)
10.06.2018 22:51 16,8 °C 88 % 1009,1 hPa 0,0 mm 0,0 km/h (0 Bft) S 189 ° 0 min 0,000 mm 0,0 UV-I 0 W/m² 14,8 °C 16,8 °C 0,0 km/h (0 Bft)
10.06.2018 22:52 16,7 °C 88 % 1009,2 hPa 0,0 mm 0,0 km/h (0 Bft) S 189 ° 0 min 0,000 mm 0,0 UV-I 0 W/m² 14,7 °C 16,7 °C 0,0 km/h (0 Bft)
10.06.2018 22:53 16,7 °C 88 % 1009,2 hPa 0,0 mm 0,0 km/h (0 Bft) S 189 ° 0 min 0,000 mm 0,0 UV-I 0 W/m² 14,7 °C 16,7 °C 0,0 km/h (0 Bft)
10.06.2018 22:54 16,7 °C 88 % 1009,1 hPa 0,0 mm 0,0 km/h (0 Bft) S 188 ° 0 min 0,000 mm 0,0 UV-I 0 W/m² 14,7 °C 16,7 °C 0,0 km/h (0 Bft)
10.06.2018 22:55 16,7 °C 88 % 1009,2 hPa 0,0 mm 0,0 km/h (0 Bft) S 189 ° 0 min 0,000 mm 0,0 UV-I 0 W/m² 14,7 °C 16,7 °C 0,0 km/h (0 Bft)
10.06.2018 22:56 16,7 °C 89 % 1009,2 hPa 0,0 mm 0,0 km/h (0 Bft) S 189 ° 0 min 0,000 mm 0,0 UV-I 0 W/m² 14,9 °C 16,7 °C 0,0 km/h (0 Bft)
10.06.2018 22:57 16,6 °C 89 % 1009,2 hPa 0,0 mm 0,0 km/h (0 Bft) S 189 ° 0 min 0,000 mm 0,0 UV-I 0 W/m² 14,8 °C 16,6 °C 0,0 km/h (0 Bft)
10.06.2018 22:58 16,6 °C 89 % 1009,1 hPa 0,0 mm 0,0 km/h (0 Bft) S 188 ° 0 min 0,000 mm 0,0 UV-I 0 W/m² 14,8 °C 16,6 °C 0,0 km/h (0 Bft)
10.06.2018 22:59 16,6 °C 89 % 1009,2 hPa 0,0 mm 0,0 km/h (0 Bft) S 189 ° 0 min 0,000 mm 0,0 UV-I 0 W/m² 14,8 °C 16,6 °C 0,0 km/h (0 Bft)
10.06.2018 23:00 16,6 °C 89 % 1009,2 hPa 0,0 mm 0,0 km/h (0 Bft) S 189 ° 0 min 0,000 mm 0,0 UV-I 0 W/m² 14,8 °C 16,6 °C 0,0 km/h (0 Bft)
10.06.2018 23:01 16,5 °C 89 % 1009,2 hPa 0,0 mm 0,0 km/h (0 Bft) S 189 ° 0 min 0,000 mm 0,0 UV-I 0 W/m² 14,7 °C 16,5 °C 0,0 km/h (0 Bft)
10.06.2018 23:02 16,5 °C 89 % 1009,2 hPa 0,0 mm 0,0 km/h (0 Bft) S 189 ° 0 min 0,000 mm 0,0 UV-I 0 W/m² 14,7 °C 16,5 °C 0,0 km/h (0 Bft)
10.06.2018 23:03 16,5 °C 89 % 1009,3 hPa 0,0 mm 0,1 km/h (0 Bft) S 189 ° 0 min 0,000 mm 0,0 UV-I 0 W/m² 14,7 °C 16,5 °C 1,6 km/h (1 Bft)
10.06.2018 23:04 16,4 °C 89 % 1009,3 hPa 0,0 mm 0,6 km/h (0 Bft) S 189 ° 0 min 0,000 mm 0,0 UV-I 0 W/m² 14,6 °C 16,4 °C 1,6 km/h (1 Bft)
10.06.2018 23:05 16,4 °C 89 % 1009,2 hPa 0,0 mm 0,0 km/h (0 Bft) S 189 ° 0 min 0,000 mm 0,0 UV-I 0 W/m² 14,6 °C 16,4 °C 0,0 km/h (0 Bft)
10.06.2018 23:06 16,4 °C 89 % 1009,3 hPa 0,0 mm 0,0 km/h (0 Bft) S 189 ° 0 min 0,000 mm 0,0 UV-I 0 W/m² 14,6 °C 16,4 °C 0,0 km/h (0 Bft)
10.06.2018 23:07 16,4 °C 89 % 1009,3 hPa 0,0 mm 0,0 km/h (0 Bft) S 189 ° 0 min 0,000 mm 0,0 UV-I 0 W/m² 14,6 °C 16,4 °C 0,0 km/h (0 Bft)
10.06.2018 23:08 16,4 °C 89 % 1009,3 hPa 0,0 mm 0,0 km/h (0 Bft) S 189 ° 0 min 0,000 mm 0,0 UV-I 0 W/m² 14,6 °C 16,4 °C 0,0 km/h (0 Bft)
10.06.2018 23:09 16,4 °C 89 % 1009,2 hPa 0,0 mm 0,0 km/h (0 Bft) S 189 ° 0 min 0,000 mm 0,0 UV-I 0 W/m² 14,6 °C 16,4 °C 0,0 km/h (0 Bft)
10.06.2018 23:10 16,4 °C 89 % 1009,2 hPa 0,0 mm 0,0 km/h (0 Bft) S 189 ° 0 min 0,000 mm 0,0 UV-I 0 W/m² 14,6 °C 16,4 °C 0,0 km/h (0 Bft)
10.06.2018 23:11 16,4 °C 89 % 1009,3 hPa 0,0 mm 0,0 km/h (0 Bft) S 189 ° 0 min 0,000 mm 0,0 UV-I 0 W/m² 14,6 °C 16,4 °C 0,0 km/h (0 Bft)
10.06.2018 23:12 16,4 °C 89 % 1009,3 hPa 0,0 mm 0,0 km/h (0 Bft) S 189 ° 0 min 0,000 mm 0,0 UV-I 0 W/m² 14,6 °C 16,4 °C 0,0 km/h (0 Bft)
10.06.2018 23:13 16,4 °C 89 % 1009,3 hPa 0,0 mm 0,0 km/h (0 Bft) S 189 ° 0 min 0,000 mm 0,0 UV-I 0 W/m² 14,6 °C 16,4 °C 0,0 km/h (0 Bft)
10.06.2018 23:14 16,4 °C 89 % 1009,3 hPa 0,0 mm 0,0 km/h (0 Bft) S 189 ° 0 min 0,000 mm 0,0 UV-I 0 W/m² 14,6 °C 16,4 °C 0,0 km/h (0 Bft)
10.06.2018 23:15 16,4 °C 89 % 1009,3 hPa 0,0 mm 0,1 km/h (0 Bft) S 189 ° 0 min 0,000 mm 0,0 UV-I 0 W/m² 14,6 °C 16,4 °C 1,6 km/h (1 Bft)
10.06.2018 23:16 16,4 °C 89 % 1009,3 hPa 0,0 mm 0,0 km/h (0 Bft) S 189 ° 0 min 0,000 mm 0,0 UV-I 0 W/m² 14,6 °C 16,4 °C 0,0 km/h (0 Bft)
10.06.2018 23:17 16,4 °C 89 % 1009,3 hPa 0,0 mm 0,5 km/h (0 Bft) S 189 ° 0 min 0,000 mm 0,0 UV-I 0 W/m² 14,6 °C 16,4 °C 1,6 km/h (1 Bft)
10.06.2018 23:18 16,4 °C 88 % 1009,3 hPa 0,0 mm 0,6 km/h (0 Bft) S 189 ° 0 min 0,000 mm 0,0 UV-I 0 W/m² 14,4 °C 16,4 °C 3,2 km/h (1 Bft)
10.06.2018 23:19 16,4 °C 88 % 1009,3 hPa 0,0 mm 0,4 km/h (0 Bft) S 189 ° 0 min 0,000 mm 0,0 UV-I 0 W/m² 14,4 °C 16,4 °C 1,6 km/h (1 Bft)
10.06.2018 23:20 16,4 °C 88 % 1009,3 hPa 0,0 mm 0,1 km/h (0 Bft) S 189 ° 0 min 0,000 mm 0,0 UV-I 0 W/m² 14,4 °C 16,4 °C 1,6 km/h (1 Bft)
10.06.2018 23:21 16,4 °C 88 % 1009,3 hPa 0,0 mm 1,5 km/h (1 Bft) S-SW 194 ° 0 min 0,000 mm 0,0 UV-I 0 W/m² 14,4 °C 16,4 °C 3,2 km/h (1 Bft)
10.06.2018 23:22 16,5 °C 88 % 1009,3 hPa 0,0 mm 0,5 km/h (0 Bft) S-SW 194 ° 0 min 0,000 mm 0,0 UV-I 0 W/m² 14,5 °C 16,5 °C 1,6 km/h (1 Bft)
10.06.2018 23:23 16,5 °C 88 % 1009,3 hPa 0,0 mm 0,3 km/h (0 Bft) S-SW 194 ° 0 min 0,000 mm 0,0 UV-I 0 W/m² 14,5 °C 16,5 °C 1,6 km/h (1 Bft)
10.06.2018 23:24 16,6 °C 88 % 1009,3 hPa 0,0 mm 0,0 km/h (0 Bft) S-SW 194 ° 0 min 0,000 mm 0,0 UV-I 0 W/m² 14,6 °C 16,6 °C 0,0 km/h (0 Bft)
10.06.2018 23:25 16,6 °C 87 % 1009,4 hPa 0,0 mm 0,0 km/h (0 Bft) S-SW 194 ° 0 min 0,000 mm 0,0 UV-I 0 W/m² 14,4 °C 16,6 °C 0,0 km/h (0 Bft)
10.06.2018 23:26 16,6 °C 87 % 1009,4 hPa 0,0 mm 0,0 km/h (0 Bft) S-SW 194 ° 0 min 0,000 mm 0,0 UV-I 0 W/m² 14,4 °C 16,6 °C 0,0 km/h (0 Bft)
10.06.2018 23:27 16,6 °C 87 % 1009,4 hPa 0,0 mm 0,0 km/h (0 Bft) S-SW 194 ° 0 min 0,000 mm 0,0 UV-I 0 W/m² 14,4 °C 16,6 °C 0,0 km/h (0 Bft)
10.06.2018 23:28 16,6 °C 87 % 1009,4 hPa 0,0 mm 0,2 km/h (0 Bft) S-SW 194 ° 0 min 0,000 mm 0,0 UV-I 0 W/m² 14,4 °C 16,6 °C 1,6 km/h (1 Bft)
10.06.2018 23:29 16,6 °C 87 % 1009,4 hPa 0,0 mm 0,3 km/h (0 Bft) S-SW 194 ° 0 min 0,000 mm 0,0 UV-I 0 W/m² 14,4 °C 16,6 °C 1,6 km/h (1 Bft)
10.06.2018 23:30 16,6 °C 87 % 1009,4 hPa 0,0 mm 0,0 km/h (0 Bft) S-SW 194 ° 0 min 0,000 mm 0,0 UV-I 0 W/m² 14,4 °C 16,6 °C 0,0 km/h (0 Bft)
10.06.2018 23:31 16,6 °C 87 % 1009,4 hPa 0,0 mm 0,0 km/h (0 Bft) S-SW 194 ° 0 min 0,000 mm 0,0 UV-I 0 W/m² 14,4 °C 16,6 °C 0,0 km/h (0 Bft)
10.06.2018 23:32 16,5 °C 87 % 1009,4 hPa 0,0 mm 0,0 km/h (0 Bft) S-SW 194 ° 0 min 0,000 mm 0,0 UV-I 0 W/m² 14,3 °C 16,5 °C 0,0 km/h (0 Bft)
10.06.2018 23:33 16,4 °C 87 % 1009,4 hPa 0,0 mm 0,0 km/h (0 Bft) S-SW 194 ° 0 min 0,000 mm 0,0 UV-I 0 W/m² 14,2 °C 16,4 °C 0,0 km/h (0 Bft)
10.06.2018 23:34 16,4 °C 87 % 1009,4 hPa 0,0 mm 0,0 km/h (0 Bft) S-SW 194 ° 0 min 0,000 mm 0,0 UV-I 0 W/m² 14,2 °C 16,4 °C 0,0 km/h (0 Bft)
10.06.2018 23:35 16,3 °C 87 % 1009,5 hPa 0,0 mm 0,0 km/h (0 Bft) S-SW 194 ° 0 min 0,000 mm 0,0 UV-I 0 W/m² 14,1 °C 16,3 °C 0,0 km/h (0 Bft)
10.06.2018 23:36 16,3 °C 87 % 1009,5 hPa 0,0 mm 0,0 km/h (0 Bft) S-SW 194 ° 0 min 0,000 mm 0,0 UV-I 0 W/m² 14,1 °C 16,3 °C 0,0 km/h (0 Bft)
10.06.2018 23:37 16,3 °C 88 % 1009,5 hPa 0,0 mm 0,0 km/h (0 Bft) S-SW 194 ° 0 min 0,000 mm 0,0 UV-I 0 W/m² 14,3 °C 16,3 °C 0,0 km/h (0 Bft)
10.06.2018 23:38 16,3 °C 88 % 1009,5 hPa 0,0 mm 0,0 km/h (0 Bft) S-SW 194 ° 0 min 0,000 mm 0,0 UV-I 0 W/m² 14,3 °C 16,3 °C 0,0 km/h (0 Bft)
10.06.2018 23:39 16,2 °C 88 % 1009,5 hPa 0,0 mm 0,0 km/h (0 Bft) S-SW 194 ° 0 min 0,000 mm 0,0 UV-I 0 W/m² 14,2 °C 16,2 °C 0,0 km/h (0 Bft)
10.06.2018 23:40 16,2 °C 88 % 1009,5 hPa 0,0 mm 0,0 km/h (0 Bft) S-SW 194 ° 0 min 0,000 mm 0,0 UV-I 0 W/m² 14,2 °C 16,2 °C 0,0 km/h (0 Bft)
10.06.2018 23:41 16,1 °C 88 % 1009,5 hPa 0,0 mm 0,0 km/h (0 Bft) S-SW 194 ° 0 min 0,000 mm 0,0 UV-I 0 W/m² 14,1 °C 16,1 °C 0,0 km/h (0 Bft)
10.06.2018 23:42 16,2 °C 88 % 1009,5 hPa 0,0 mm 0,0 km/h (0 Bft) S-SW 194 ° 0 min 0,000 mm 0,0 UV-I 0 W/m² 14,2 °C 16,2 °C 0,0 km/h (0 Bft)
10.06.2018 23:43 16,1 °C 88 % 1009,6 hPa 0,0 mm 0,0 km/h (0 Bft) S-SW 194 ° 0 min 0,000 mm 0,0 UV-I 0 W/m² 14,1 °C 16,1 °C 0,0 km/h (0 Bft)
10.06.2018 23:44 16,1 °C 89 % 1009,6 hPa 0,0 mm 0,0 km/h (0 Bft) S-SW 194 ° 0 min 0,000 mm 0,0 UV-I 0 W/m² 14,3 °C 16,1 °C 0,0 km/h (0 Bft)
10.06.2018 23:45 16,1 °C 89 % 1009,7 hPa 0,0 mm 0,0 km/h (0 Bft) S-SW 194 ° 0 min 0,000 mm 0,0 UV-I 0 W/m² 14,3 °C 16,1 °C 0,0 km/h (0 Bft)
10.06.2018 23:46 16,1 °C 89 % 1009,7 hPa 0,0 mm 0,0 km/h (0 Bft) S-SW 194 ° 0 min 0,000 mm 0,0 UV-I 0 W/m² 14,3 °C 16,1 °C 0,0 km/h (0 Bft)
10.06.2018 23:47 16,0 °C 88 % 1009,7 hPa 0,0 mm 0,0 km/h (0 Bft) S-SW 194 ° 0 min 0,000 mm 0,0 UV-I 0 W/m² 14,0 °C 16,0 °C 0,0 km/h (0 Bft)
10.06.2018 23:48 15,9 °C 89 % 1009,7 hPa 0,0 mm 0,0 km/h (0 Bft) S-SW 194 ° 0 min 0,000 mm 0,0 UV-I 0 W/m² 14,1 °C 15,9 °C 0,0 km/h (0 Bft)
10.06.2018 23:49 15,9 °C 89 % 1009,7 hPa 0,0 mm 0,0 km/h (0 Bft) S-SW 194 ° 0 min 0,000 mm 0,0 UV-I 0 W/m² 14,1 °C 15,9 °C 0,0 km/h (0 Bft)
10.06.2018 23:50 15,9 °C 89 % 1009,7 hPa 0,0 mm 0,0 km/h (0 Bft) S-SW 194 ° 0 min 0,000 mm 0,0 UV-I 0 W/m² 14,1 °C 15,9 °C 0,0 km/h (0 Bft)
10.06.2018 23:51 15,9 °C 89 % 1009,7 hPa 0,0 mm 0,0 km/h (0 Bft) S-SW 194 ° 0 min 0,000 mm 0,0 UV-I 0 W/m² 14,1 °C 15,9 °C 0,0 km/h (0 Bft)
10.06.2018 23:52 15,8 °C 89 % 1009,7 hPa 0,0 mm 0,0 km/h (0 Bft) S-SW 194 ° 0 min 0,000 mm 0,0 UV-I 0 W/m² 14,0 °C 15,8 °C 0,0 km/h (0 Bft)
10.06.2018 23:53 15,8 °C 89 % 1009,7 hPa 0,0 mm 0,0 km/h (0 Bft) S-SW 194 ° 0 min 0,000 mm 0,0 UV-I 0 W/m² 14,0 °C 15,8 °C 0,0 km/h (0 Bft)
10.06.2018 23:54 15,8 °C 89 % 1009,7 hPa 0,0 mm 0,0 km/h (0 Bft) S-SW 194 ° 0 min 0,000 mm 0,0 UV-I 0 W/m² 14,0 °C 15,8 °C 0,0 km/h (0 Bft)
10.06.2018 23:55 15,8 °C 89 % 1009,7 hPa 0,0 mm 0,0 km/h (0 Bft) S-SW 194 ° 0 min 0,000 mm 0,0 UV-I 0 W/m² 14,0 °C 15,8 °C 0,0 km/h (0 Bft)
10.06.2018 23:56 15,7 °C 89 % 1009,6 hPa 0,0 mm 0,0 km/h (0 Bft) S-SW 194 ° 0 min 0,000 mm 0,0 UV-I 0 W/m² 13,9 °C 15,7 °C 0,0 km/h (0 Bft)
10.06.2018 23:57 15,7 °C 89 % 1009,7 hPa 0,0 mm 0,0 km/h (0 Bft) S-SW 194 ° 0 min 0,000 mm 0,0 UV-I 0 W/m² 13,9 °C 15,7 °C 0,0 km/h (0 Bft)
10.06.2018 23:58 15,6 °C 89 % 1009,7 hPa 0,0 mm 0,0 km/h (0 Bft) S-SW 194 ° 0 min 0,000 mm 0,0 UV-I 0 W/m² 13,8 °C 15,6 °C 0,0 km/h (0 Bft)
10.06.2018 23:59 15,6 °C 89 % 1009,7 hPa 0,0 mm 0,0 km/h (0 Bft) S-SW 194 ° 0 min 0,000 mm 0,0 UV-I 0 W/m² 13,8 °C 15,6 °C 0,0 km/h (0 Bft)
_ Min-Zeit 05:37 15:31 18:36 - 23:59 - - - - - - 05:35 05:37 23:59
Minimum _ 13,6 °C 51 % 1008,1 hPa - 0,0 km/h (0 Bft) - - - - - - 12,6 °C 13,6 °C 0,0 km/h (0 Bft)
_ Max-Zeit 15:31 06:35 00:24 12:38 14:27 - - 10:06 16:00 13:43 12:29 12:08 15:31 14:31
Maximum _ 25,7 °C 94 % 1010,3 hPa 0,6 mm 15,6 km/h
NW (3 Bft)
- - 2 min 0,508 mm 8,2 UV-I 1092 W/m² 18,7 °C 25,7 °C 24,1 km/h
NW (4 Bft)
Durchschnitt _ 19,5 °C 80 % 1009,3 hPa #0,8 mm 2,3 km/h (1 Bft) W-NW - #4:22 h #3,835 mm 3,4 UV-I 247 W/m² 15,7 °C 19,5 °C 4,1 km/h (1 Bft)